ECMWFFLT1_925_thetae_045.txt.gz
Theta_e
335 335 334 333 333 333 334 333 333 334 334 334 334 334 335 335 335 335 334 334 334 334 334 334 334 333 332 332 332 332 332 332 332 332 331 332 332 331 331 330 330 330 328 329 329 329 329 329 328 327 327 325 321 318 319 318 318 317 317 316 317 317 319
336 335 333 333 333 332 332 331 332 333 333 333 333 333 333 333 333 334 334 334 334 334 334 334 334 333 332 332 331 332 333 333 332 332 331 332 331 330 330 330 330 329 329 329 329 328 329 328 327 327 327 326 322 320 318 317 317 317 315 315 314 314 315
334 333 332 332 332 331 330 331 333 333 333 333 333 333 333 332 332 333 335 335 335 335 334 333 333 333 333 333 333 334 334 332 333 332 332 332 331 330 330 330 330 329 329 330 329 328 329 328 326 327 327 326 324 321 318 317 316 316 315 314 313 313 313
333 331 330 330 330 329 330 332 334 333 333 334 334 334 333 332 332 332 333 335 335 335 334 333 334 333 333 333 334 334 333 332 333 332 331 331 331 331 330 329 329 329 329 329 329 329 330 329 327 327 326 325 324 321 318 317 316 315 315 314 313 312 312
332 330 330 329 328 329 332 334 334 333 334 333 334 334 333 333 333 332 332 332 333 333 333 334 334 333 333 333 333 333 332 332 332 331 330 332 332 331 331 329 329 329 328 328 328 328 329 329 328 327 325 324 323 321 317 316 315 314 314 313 312 312 311
331 329 329 329 329 330 333 334 334 333 334 334 333 333 333 333 333 333 332 332 332 332 332 334 335 334 333 333 333 333 333 332 332 331 331 331 331 330 331 330 329 328 329 328 328 328 328 328 328 327 324 323 321 318 315 314 313 312 312 311 311 311 311
330 328 328 328 329 331 334 334 334 333 333 333 332 332 333 333 332 332 332 331 331 331 331 333 334 334 334 334 333 333 333 332 331 331 330 330 329 328 329 329 329 328 328 328 327 328 329 328 328 326 324 323 320 316 313 312 312 311 311 311 311 310 310
329 328 328 328 330 332 333 333 333 331 331 331 331 331 331 331 331 332 332 332 332 331 331 332 333 334 334 334 333 333 333 331 331 331 330 329 329 328 328 329 329 328 328 327 327 328 328 327 327 325 323 322 319 316 313 312 311 311 311 311 310 310 311
328 328 328 328 331 333 332 332 332 330 331 331 330 330 331 331 331 331 331 331 331 331 331 331 331 333 334 333 331 332 332 331 331 331 330 330 329 329 329 329 329 329 328 328 326 327 327 327 327 325 323 321 318 316 314 312 312 312 311 310 311 310 312
328 328 328 329 332 333 332 332 332 331 331 331 330 331 331 331 331 330 330 330 330 331 331 331 331 331 333 333 331 331 332 331 332 331 330 330 330 331 330 329 329 329 328 328 327 326 326 325 326 325 323 320 318 316 314 314 314 313 311 311 311 310 312
328 329 329 330 332 332 332 332 331 331 331 331 331 330 331 331 330 329 329 329 329 329 329 330 330 330 331 332 332 332 331 331 331 331 331 331 331 332 331 330 330 329 328 328 327 326 326 325 325 324 322 319 317 317 315 315 315 313 312 312 311 311 311
329 329 329 329 330 331 331 332 331 331 331 330 330 329 329 329 328 328 327 328 328 328 328 329 328 329 329 331 332 331 330 331 331 331 331 331 330 331 330 330 329 328 327 327 327 327 326 326 325 323 321 319 317 316 316 316 316 314 313 313 312 311 311
331 328 328 327 328 329 330 330 330 330 329 328 328 328 327 327 327 327 327 327 328 328 328 328 329 329 328 330 332 331 331 331 331 330 331 331 331 330 330 330 330 329 328 327 327 328 328 327 325 322 321 320 317 315 315 316 317 315 315 315 314 312 311
331 329 327 326 327 328 329 328 329 329 328 328 327 327 327 326 327 327 327 327 327 328 328 328 329 328 328 330 331 331 331 331 330 330 330 330 330 331 330 330 329 328 328 328 328 327 326 325 324 321 320 319 317 315 315 316 316 317 317 317 315 313 312
329 328 327 326 328 329 328 328 329 328 328 328 327 327 327 327 326 326 327 326 326 326 326 327 327 327 328 331 332 331 331 330 328 328 328 328 329 330 331 330 329 328 328 328 327 325 323 323 323 320 319 318 317 315 315 316 316 317 318 317 317 315 313
327 327 327 327 328 329 328 329 329 328 327 327 326 326 326 326 326 325 325 325 325 325 325 325 326 326 327 330 332 331 330 329 327 326 327 327 327 329 331 329 328 328 328 328 327 324 322 322 320 319 318 316 315 315 316 317 316 317 318 317 317 316 315
328 328 327 327 328 329 329 329 329 328 327 326 325 326 326 325 325 325 325 324 324 325 325 325 326 326 326 329 329 329 328 327 326 325 326 325 324 326 329 329 328 328 328 329 327 324 321 321 319 318 317 317 315 314 315 316 316 317 317 317 317 316 316
329 328 327 328 329 328 328 328 328 327 325 325 325 326 325 324 324 325 324 324 323 324 325 325 325 326 326 327 327 326 326 325 325 324 324 323 322 323 326 328 328 329 329 329 328 324 320 320 319 317 317 317 316 315 315 316 316 316 317 317 316 316 316
329 329 328 329 329 328 328 328 328 326 325 326 326 325 324 324 323 323 324 323 322 322 323 323 324 324 325 325 325 325 324 323 323 324 323 321 321 322 323 324 326 328 330 329 327 324 321 320 319 317 317 317 317 317 316 316 316 316 317 317 316 315 315
329 330 329 328 329 328 328 327 326 325 326 326 325 324 324 323 323 323 324 322 321 320 321 321 321 322 323 323 323 323 323 322 322 322 321 320 320 321 321 322 322 324 327 327 326 324 322 320 319 318 318 317 317 317 317 317 317 317 317 317 317 317 316
331 331 329 328 328 327 326 326 326 326 326 326 324 323 323 323 323 323 323 322 320 319 320 320 320 321 322 322 322 322 322 322 322 322 321 320 320 320 321 321 321 322 323 325 325 324 323 322 320 319 318 318 318 318 318 318 318 318 317 317 318 318 317
331 330 328 327 326 326 325 325 326 327 326 325 323 323 322 322 322 322 322 322 320 320 321 320 320 320 320 320 320 321 322 322 321 321 321 320 320 320 320 321 321 322 323 323 322 323 324 323 322 321 320 320 319 319 319 319 318 318 318 318 318 318 318
328 329 329 327 326 326 326 326 327 327 326 324 322 322 321 320 320 320 320 319 320 322 321 319 318 318 318 319 320 320 320 321 321 320 321 321 321 321 321 321 321 322 321 319 319 320 321 322 322 323 323 323 322 321 321 320 319 318 318 318 318 318 318
327 328 328 328 327 327 326 326 326 325 324 323 321 320 319 318 318 318 318 320 322 322 320 317 316 317 317 317 319 320 320 319 320 319 319 320 321 321 320 321 321 319 317 316 315 315 316 318 320 321 322 323 322 322 322 321 320 319 319 318 318 318 318
325 325 326 326 326 326 325 325 325 324 324 322 320 319 318 318 318 319 321 322 320 317 316 315 314 314 314 314 316 319 320 319 319 318 318 319 320 320 319 320 320 318 316 316 317 316 314 314 315 316 317 319 319 319 319 320 319 319 319 319 318 318 317
321 322 322 323 323 323 323 324 324 324 324 323 322 321 320 320 321 322 321 319 315 313 312 312 312 312 311 311 313 316 318 318 318 318 317 317 318 319 318 318 319 319 318 318 318 318 318 316 315 315 314 314 314 315 314 315 316 316 317 318 319 319 319
318 318 320 320 321 321 321 321 321 322 322 323 322 322 322 321 321 319 317 315 314 313 312 311 311 311 311 311 311 313 317 318 317 318 318 318 318 320 320 320 320 320 320 319 318 318 318 319 319 319 317 316 315 314 313 313 313 313 313 314 316 318 319
314 315 316 318 318 318 318 318 318 318 319 320 320 320 320 319 317 315 314 314 314 314 314 314 313 311 311 311 310 312 317 319 318 318 319 319 319 319 320 320 320 319 320 321 319 317 318 320 321 321 321 320 319 318 317 317 315 315 314 314 314 316 317
312 313 314 315 316 316 316 316 316 316 316 317 318 318 317 316 315 313 312 312 313 313 314 315 316 315 314 314 313 316 319 319 318 319 320 319 319 318 319 320 320 320 321 321 320 319 319 319 318 319 320 320 320 320 320 320 319 318 318 317 316 316 318
310 311 312 312 313 313 314 314 314 315 314 314 314 315 314 314 314 312 311 311 311 311 312 313 314 316 317 317 317 319 320 319 319 320 321 321 320 320 321 322 321 322 322 322 321 320 319 318 317 318 319 319 319 320 320 319 320 320 320 319 317 316 316
307 308 308 308 308 309 310 310 310 311 311 311 311 311 310 310 311 312 311 309 307 307 308 310 311 313 315 317 318 318 318 318 319 320 321 321 321 321 322 321 320 320 321 322 322 321 320 319 319 320 322 321 320 321 321 321 321 320 320 320 319 318 317
305 306 306 307 307 307 307 307 307 307 308 308 308 308 307 307 308 308 308 307 307 306 305 304 305 306 308 310 313 314 315 316 318 318 318 319 319 319 320 319 317 315 315 316 317 317 317 316 316 317 319 321 322 322 323 322 321 320 320 319 318 318 318
304 304 304 305 305 305 306 306 306 306 306 306 306 306 306 305 304 304 304 305 306 306 304 303 303 303 303 304 306 308 311 312 312 313 314 314 315 316 318 318 316 314 312 311 310 309 308 308 308 309 311 314 318 320 320 319 319 319 319 319 318 317 316
303 303 304 304 304 304 305 305 306 306 306 306 306 306 306 305 304 304 304 304 304 304 304 304 304 303 303 303 302 303 307 308 306 305 307 308 309 310 313 315 314 312 311 309 308 307 304 302 302 302 303 305 308 310 310 311 311 312 313 316 319 319 318
303 303 303 303 304 304 304 304 305 306 306 306 306 306 306 307 306 306 305 305 304 303 301 301 301 300 300 300 300 300 302 303 301 301 304 306 306 307 308 310 310 309 308 307 306 305 302 300 299 299 299 300 301 301 301 302 302 303 306 311 315 317 318
303 303 303 303 304 304 304 304 305 306 306 307 307 307 307 308 308 307 306 305 304 303 301 300 299 299 297 297 298 298 298 298 298 299 302 303 303 302 303 304 305 304 303 303 302 300 299 299 298 298 299 299 298 298 299 299 300 301 304 307 309 312 315
302 302 303 303 303 304 304 304 304 305 306 307 307 307 306 306 307 307 307 306 305 304 303 302 301 300 299 298 298 297 297 297 297 297 298 299 300 301 301 301 301 300 299 299 298 298 298 298 298 298 298 298 298 298 298 298 299 301 304 306 307 308 310

ECMWFFLT1_925_thetae_048.txt.gz
Theta_e
333 335 335 335 335 335 335 335 334 335 335 335 335 334 334 335 335 334 333 334 335 335 335 334 333 333 333 332 332 333 332 332 332 332 333 332 330 330 330 331 331 331 330 330 330 329 330 331 329 327 323 319 320 320 320 319 318 319 319 321 322 322 323
333 335 335 335 335 335 335 335 334 334 334 334 334 333 334 335 335 335 334 334 335 335 334 334 333 332 332 332 332 332 331 331 331 331 332 331 331 331 331 331 332 332 330 329 330 329 330 330 330 329 325 320 319 319 319 318 317 317 317 318 319 320 322
334 335 335 334 334 333 334 334 334 333 332 333 333 333 334 335 335 335 335 335 335 335 334 333 332 332 332 332 332 331 330 331 331 331 331 330 331 331 330 331 332 331 330 330 330 329 329 329 329 329 326 322 321 319 318 318 317 316 315 315 315 316 319
335 334 334 334 333 332 332 332 332 332 332 333 333 333 333 334 334 334 334 335 335 334 333 333 332 332 332 331 331 331 332 332 332 332 331 331 332 331 330 330 330 329 329 331 329 329 329 329 328 329 326 324 322 320 318 318 317 315 315 314 313 314 315
334 333 333 333 332 332 331 330 331 332 332 333 333 333 333 333 333 333 333 334 335 334 334 333 332 332 333 332 332 332 333 332 333 332 331 332 332 332 331 331 329 328 328 329 328 329 329 328 328 328 326 324 321 319 318 317 316 315 314 313 312 312 313
332 332 333 333 331 330 330 330 332 332 333 334 334 334 333 333 333 333 333 333 334 334 334 334 333 333 333 333 332 333 333 332 332 333 331 331 332 332 332 331 329 328 327 327 328 329 329 328 328 327 325 323 321 318 318 317 316 315 313 312 312 311 311
333 333 332 331 330 329 329 330 332 332 334 334 334 334 334 333 333 333 333 333 332 332 332 333 334 333 333 333 332 333 333 331 332 332 331 331 332 333 332 331 330 328 328 328 327 328 329 329 328 327 324 323 319 316 316 316 314 313 312 312 311 310 310
333 332 331 329 328 328 328 329 331 332 334 334 334 334 334 334 334 333 333 332 332 332 332 333 334 334 334 333 332 332 332 331 331 331 331 330 332 333 332 331 330 328 328 329 328 328 329 328 327 325 324 324 319 315 314 313 312 311 311 311 311 310 310
332 328 328 327 327 327 328 329 331 332 333 333 333 333 333 333 333 333 333 332 332 332 332 332 333 334 334 333 332 332 332 331 331 331 331 330 330 331 330 330 329 327 329 330 329 328 328 328 327 324 324 323 319 317 316 314 312 311 310 311 311 312 311
327 323 325 326 326 327 328 329 331 331 332 332 332 332 332 332 332 332 332 332 332 332 332 332 332 333 333 332 332 332 332 330 330 331 330 330 329 329 329 329 328 328 329 329 328 328 329 328 326 324 324 322 318 318 319 318 315 311 310 311 312 313 312
323 323 325 325 326 328 328 329 331 331 331 331 331 331 331 331 332 331 331 331 331 331 332 332 331 331 332 332 331 331 331 330 330 330 330 329 330 329 329 329 329 328 329 330 328 327 327 327 325 325 324 322 319 317 317 319 318 312 310 311 312 313 313
325 327 327 325 326 328 329 330 331 331 331 331 331 330 331 331 331 330 330 330 330 330 331 331 330 330 331 332 331 330 331 331 331 331 330 330 330 330 330 329 329 329 329 329 328 326 327 326 326 326 324 323 321 316 314 317 317 313 310 311 311 313 313
328 329 327 326 326 329 331 332 331 331 331 331 330 330 331 331 330 329 329 328 328 329 329 329 329 329 330 330 331 331 331 331 331 330 330 331 331 331 331 330 330 330 329 328 327 326 326 326 325 325 324 323 321 317 315 316 316 314 312 311 311 312 314
329 328 327 327 328 330 331 332 331 331 331 330 330 330 330 329 328 327 328 327 328 328 328 329 329 329 329 329 330 331 331 329 330 330 329 330 331 331 332 331 330 330 329 327 326 327 326 325 325 324 323 322 319 316 316 316 315 315 314 312 311 312 314
330 327 327 328 329 330 331 331 331 330 330 329 329 328 327 327 326 327 327 327 328 328 328 329 329 329 329 329 330 331 330 329 329 329 329 329 329 330 331 331 330 329 328 327 327 327 326 326 325 323 322 322 318 315 315 316 315 315 316 315 312 312 313
329 328 328 329 328 329 330 330 329 329 329 328 327 327 327 327 327 327 327 326 327 327 327 327 328 328 328 328 330 330 329 329 328 328 328 328 328 328 328 329 329 329 328 327 328 327 325 326 325 323 322 321 318 316 315 315 315 316 317 316 315 313 313
328 328 328 327 327 328 329 329 329 328 329 328 327 327 327 327 326 326 326 325 325 325 325 325 326 327 326 327 329 329 329 329 328 327 327 328 327 327 328 328 327 328 328 327 328 327 325 324 323 323 321 318 317 315 314 315 316 317 317 317 317 315 312
329 329 327 326 327 328 329 329 329 328 328 328 327 327 327 326 325 325 325 324 324 325 325 325 326 326 326 327 328 328 328 327 326 326 326 326 326 325 328 328 327 328 328 327 327 326 324 323 322 322 319 316 316 314 313 316 317 317 318 317 317 316 314
329 328 327 327 328 329 329 329 329 328 327 326 326 327 326 325 325 325 324 324 324 324 324 324 325 326 326 327 327 327 327 326 325 325 325 325 324 324 326 328 328 328 328 327 327 326 324 322 321 321 318 316 316 314 313 316 317 317 318 318 317 317 316
328 328 327 329 329 329 329 329 328 327 326 326 326 326 325 324 324 324 324 323 322 322 322 323 323 324 324 325 326 325 325 324 324 324 323 323 323 323 324 325 326 327 327 327 327 327 325 323 320 320 318 316 317 314 311 314 316 317 318 318 317 317 316
327 328 328 329 329 329 328 328 327 326 325 326 326 325 324 324 323 323 323 323 322 321 321 321 322 322 322 323 324 324 323 323 323 323 322 322 322 321 322 323 324 325 327 328 328 327 325 323 321 320 319 317 318 316 313 314 315 316 317 317 317 317 317
327 328 329 328 328 328 328 327 327 325 326 325 325 324 323 323 323 324 323 323 322 320 320 320 320 321 321 321 322 322 322 323 322 322 322 321 321 320 321 322 322 323 325 326 327 326 325 323 322 322 320 319 319 318 316 316 317 317 317 317 317 318 317
328 328 329 328 328 328 327 326 325 325 325 324 323 323 323 323 323 323 323 323 321 320 319 319 320 320 320 320 321 322 322 322 322 322 321 321 321 321 321 321 322 322 322 323 324 325 324 323 323 323 322 321 321 320 318 318 318 318 318 318 318 318 318
327 327 328 327 327 327 326 326 325 325 325 324 323 323 322 321 321 322 323 322 321 320 319 318 319 319 319 318 320 321 321 321 321 321 321 321 321 321 321 321 321 321 320 321 321 322 323 323 322 323 322 322 322 322 321 321 321 320 320 319 319 319 319
327 327 326 326 326 326 326 325 325 325 324 323 322 321 320 320 321 322 323 322 321 320 319 318 317 318 318 318 318 320 321 320 320 320 320 320 320 321 321 320 321 321 320 319 318 317 318 319 320 321 322 321 322 322 322 321 321 321 320 320 319 319 320
326 326 326 326 326 326 326 326 325 325 324 322 321 320 321 322 322 322 321 321 319 317 317 317 316 316 317 317 317 319 319 319 319 319 318 318 318 320 320 320 320 320 319 318 318 317 316 315 316 317 318 318 318 319 319 319 319 319 319 318 317 317 319
323 323 324 325 326 326 325 324 324 323 323 322 321 322 322 322 321 320 320 318 315 313 313 313 313 314 314 315 315 316 317 318 319 318 318 318 318 319 320 320 321 320 318 318 318 318 319 318 317 317 317 317 315 315 316 316 315 315 315 314 314 314 316
321 321 322 323 324 324 323 323 323 322 322 321 321 321 321 320 320 319 317 315 313 312 312 311 311 311 311 312 312 313 315 318 319 317 318 319 319 320 320 321 320 320 320 319 318 318 319 320 320 320 321 320 319 318 317 316 316 315 315 315 314 314 314
318 319 320 321 321 321 321 321 321 321 321 320 319 319 318 318 317 316 315 314 313 313 312 312 312 311 311 311 310 311 316 319 318 318 319 319 319 319 320 321 321 320 320 320 319 318 318 319 319 320 320 320 320 320 320 320 319 318 318 319 318 317 316
313 315 316 317 317 316 316 316 317 318 319 318 317 316 315 315 314 314 314 314 314 313 312 312 312 312 312 312 312 314 319 320 318 319 320 320 320 321 322 322 322 322 321 321 321 320 319 319 319 319 320 320 320 320 320 321 322 321 320 320 320 320 319
309 310 311 311 312 312 313 313 314 315 316 315 315 314 314 313 312 311 310 310 311 312 312 311 311 312 313 314 315 316 317 318 319 320 320 320 321 321 321 321 321 320 320 319 319 320 320 320 319 319 320 321 321 321 321 321 321 322 321 320 320 320 320
307 307 307 308 308 309 310 310 312 313 313 313 313 312 312 311 310 308 308 308 308 308 308 308 308 308 309 311 313 314 314 314 316 317 317 318 319 319 318 318 317 316 315 314 314 315 315 315 314 313 312 313 315 318 319 319 318 319 320 320 320 320 320
305 305 306 307 307 307 307 308 309 309 309 310 310 310 310 310 308 308 308 307 307 306 305 305 306 306 306 306 308 311 312 311 311 311 311 313 315 316 315 315 314 312 311 310 311 310 310 309 308 306 304 303 305 308 310 310 309 309 309 310 312 314 315
304 304 305 305 306 306 306 306 307 307 307 307 307 307 307 307 307 307 306 306 306 306 305 304 304 305 305 305 305 306 308 307 307 307 307 308 310 311 311 311 310 310 309 309 308 308 307 307 305 303 301 299 299 300 300 300 301 301 300 301 302 304 307
304 304 304 305 305 306 306 306 306 306 306 306 306 306 306 306 306 306 305 306 305 303 302 302 302 301 301 302 302 302 302 303 302 302 304 305 305 305 306 306 306 305 304 304 303 303 303 302 301 300 299 298 298 298 298 298 298 298 298 299 299 301 303
304 303 303 304 304 305 305 306 306 307 307 307 307 307 307 307 307 306 306 305 304 302 301 301 301 299 299 299 299 299 299 298 298 299 300 301 300 300 301 302 301 300 300 299 299 299 299 298 299 298 298 298 298 297 298 298 297 298 298 298 299 300 301
303 303 303 303 304 304 304 305 305 306 307 308 308 307 307 308 308 307 306 305 305 304 303 302 301 300 300 299 299 299 299 298 298 299 299 300 301 300 299 300 299 298 298 297 297 297 298 298 298 298 298 299 298 298 299 300 300 301 300 300 301 301 302

ECMWFFLT1_925_thetae_051.txt.gz
Theta_e
332 331 332 333 333 332 333 334 334 334 333 333 333 334 334 332 332 334 334 333 334 334 334 334 334 334 334 334 333 333 332 332 332 331 331 331 330 330 330 331 331 329 328 328 328 328 329 329 326 324 323 325 326 325 323 321 322 323 324 325 325 325 324
333 332 331 332 332 333 334 334 334 334 334 334 334 335 334 333 333 334 334 333 333 334 334 333 334 334 334 333 333 333 332 332 332 330 330 331 330 329 330 331 330 329 329 329 328 327 328 328 328 324 320 321 322 320 320 320 321 323 324 324 324 323 322
333 334 333 333 333 334 334 335 334 335 335 335 334 334 334 334 335 334 334 333 333 334 334 333 333 333 333 332 332 333 332 332 332 330 329 330 330 328 330 331 330 330 329 329 328 327 327 327 328 324 319 318 319 318 319 319 320 322 322 323 322 322 322
334 335 336 335 335 335 334 334 335 335 335 335 334 333 334 334 334 334 334 333 334 334 334 333 332 333 332 331 331 332 332 332 332 331 330 330 330 329 330 331 330 329 330 329 329 328 327 327 327 325 320 318 318 317 318 318 317 318 320 322 322 322 321
334 335 335 335 335 335 334 334 334 334 333 334 333 333 334 334 334 334 334 334 334 334 333 332 332 332 332 331 331 332 331 331 331 331 330 330 330 330 331 331 330 329 328 329 328 328 327 327 327 325 321 319 318 318 317 316 315 315 318 320 319 319 318
334 334 334 334 334 334 334 334 334 333 332 333 333 333 333 334 334 334 335 335 334 333 333 332 332 332 332 331 331 331 331 330 330 330 330 330 330 330 330 330 329 328 328 328 328 328 328 327 326 325 322 319 319 318 317 316 315 314 315 316 315 316 315
334 333 332 332 333 333 332 332 332 332 332 333 333 333 333 333 333 334 334 334 334 333 332 332 332 332 332 331 331 331 332 331 331 331 330 331 331 330 330 329 328 328 327 327 328 327 327 327 327 326 323 320 318 317 317 317 316 313 313 313 314 313 312
334 333 331 331 332 332 331 331 331 332 333 333 333 333 333 333 333 333 333 333 333 332 332 331 332 332 332 332 331 332 332 332 332 332 331 332 331 331 331 329 328 327 327 327 327 327 328 327 326 326 323 320 318 317 316 316 315 313 312 312 312 312 311
334 333 332 331 331 330 330 330 331 332 333 333 333 333 333 333 333 333 333 333 332 332 332 332 332 332 332 332 332 332 333 332 332 332 331 331 331 331 331 330 328 327 327 327 327 327 329 328 327 326 323 319 317 317 315 315 313 311 310 311 310 310 310
333 333 332 331 330 329 329 330 332 333 333 334 333 333 333 332 332 332 332 332 332 332 332 332 332 332 332 332 332 332 332 332 332 331 331 331 331 332 332 330 329 327 327 327 327 327 329 329 327 325 323 319 316 316 316 315 313 309 309 310 309 309 309
332 332 331 330 328 327 327 329 332 333 334 334 333 333 333 333 333 332 332 332 332 332 332 333 332 331 332 332 332 332 332 331 331 331 330 330 331 332 332 330 328 327 327 327 327 327 328 329 327 324 324 320 315 313 314 314 314 310 309 311 310 309 309
332 331 330 328 327 326 327 330 332 332 333 333 332 332 332 333 332 332 332 332 332 331 331 332 332 332 332 331 332 332 332 331 331 331 330 330 330 330 330 329 328 327 328 328 327 327 328 329 327 325 324 323 318 313 311 312 313 311 310 311 311 310 310
332 330 328 326 325 326 327 329 331 331 332 332 331 331 331 332 331 331 331 330 330 331 331 331 331 331 331 331 331 331 331 330 330 330 330 329 329 329 329 328 328 328 328 328 328 327 327 328 327 325 325 325 323 319 313 311 311 310 310 311 311 311 311
329 327 326 325 325 326 328 329 330 331 332 331 331 330 331 331 330 330 329 328 329 331 330 330 330 330 331 331 331 330 330 330 330 330 330 329 329 330 329 329 328 328 328 328 329 327 326 326 326 325 325 325 325 323 317 311 310 310 310 311 311 311 312
327 325 325 325 325 327 329 329 331 332 331 331 330 330 330 330 329 329 328 328 328 329 329 329 329 329 330 330 330 330 331 331 331 331 330 330 330 330 330 330 329 329 329 329 328 326 325 325 325 325 325 324 324 323 318 311 311 311 311 312 311 311 312
326 326 326 326 326 328 330 331 331 332 331 330 329 330 330 330 328 327 327 327 328 328 328 329 328 329 329 329 330 331 330 330 330 330 329 330 331 331 331 331 330 330 330 328 327 326 325 325 324 324 325 324 323 321 316 312 311 312 312 312 312 312 312
326 328 328 327 327 329 331 332 331 331 330 330 330 329 329 327 326 326 327 327 328 327 328 328 327 328 328 328 330 330 330 330 329 329 329 329 329 330 331 331 330 330 329 328 327 327 326 326 325 325 324 323 323 320 315 313 313 313 313 312 312 312 312
328 329 329 327 327 330 331 331 330 330 330 329 328 328 327 326 326 327 327 327 327 326 327 327 327 327 327 327 329 329 329 328 328 328 328 328 327 327 329 329 329 329 329 328 327 327 327 326 325 325 324 323 323 320 316 315 313 313 313 312 312 312 312
330 329 328 327 328 330 331 330 329 329 328 327 326 326 326 326 327 326 325 325 325 325 326 326 326 326 326 327 328 328 328 328 327 327 327 327 327 326 327 328 328 328 327 327 327 327 327 326 325 325 324 322 322 319 315 315 314 313 313 313 313 313 313
331 330 328 328 329 330 330 329 328 328 327 326 326 327 326 326 325 324 324 324 324 324 325 325 325 326 326 326 327 327 327 326 326 326 325 326 326 326 327 327 327 327 326 326 327 327 327 326 325 324 323 322 321 316 314 315 315 314 315 315 315 314 313
331 329 328 328 329 329 329 328 328 328 327 327 327 327 326 325 324 324 323 323 323 323 324 325 325 325 326 326 326 326 326 325 325 325 324 324 324 325 325 326 327 327 327 327 327 327 327 326 325 324 322 321 320 316 313 315 316 316 316 316 316 316 314
330 329 328 329 329 329 328 328 328 327 327 326 326 326 325 324 324 323 322 322 321 322 323 323 323 324 324 325 324 324 324 324 323 323 323 323 323 324 325 325 326 326 326 327 327 326 327 327 325 323 321 320 319 316 313 314 316 317 317 317 317 317 316
330 329 329 329 329 329 328 328 327 326 326 326 325 324 324 324 323 322 321 320 319 319 319 319 320 321 322 323 323 323 323 323 323 322 322 322 323 324 324 324 324 324 324 326 327 326 327 327 325 322 321 320 319 317 314 314 316 317 317 317 317 317 317
329 329 329 329 328 328 328 327 326 326 326 325 324 323 323 323 322 321 320 319 319 318 317 317 317 319 320 322 322 322 322 322 322 321 321 321 322 322 322 322 322 322 323 324 325 325 325 325 324 322 322 322 321 319 318 318 318 318 318 318 318 318 318
329 329 329 329 328 328 327 326 325 325 325 324 323 323 323 322 321 320 319 319 318 317 317 316 317 317 319 320 321 321 321 321 320 320 320 321 321 321 321 321 321 320 320 321 322 322 323 323 323 322 321 322 321 321 321 321 320 320 320 319 319 319 319
327 327 328 328 327 327 326 325 325 325 323 323 322 322 321 321 319 318 318 318 317 316 316 316 316 317 317 318 319 319 320 320 319 319 319 319 320 320 321 320 320 319 318 318 318 318 319 320 321 321 321 320 320 320 320 321 321 320 320 319 319 319 319
324 324 325 325 325 326 325 325 325 324 322 321 321 320 320 319 317 316 316 315 314 313 313 313 314 315 316 317 317 317 317 318 319 319 319 319 320 320 321 321 320 319 317 317 316 316 316 316 317 317 317 316 317 317 317 318 318 318 317 317 316 316 316
323 323 324 324 324 324 324 323 323 322 321 320 319 318 317 316 314 313 312 312 312 311 311 310 311 312 313 315 315 315 315 317 318 319 319 320 320 321 321 320 320 318 317 317 317 318 318 317 315 315 316 318 318 317 317 317 317 317 316 316 316 316 315
318 319 320 321 321 321 321 320 319 319 319 318 317 316 315 314 313 312 312 312 312 311 311 311 310 310 311 311 312 313 315 318 319 319 319 319 320 320 320 320 319 317 317 317 317 318 320 319 318 318 319 320 320 320 320 320 320 319 319 319 319 319 319
311 313 315 316 315 316 316 316 316 317 316 315 314 314 314 313 313 313 312 312 313 312 312 311 311 311 311 312 312 314 317 319 319 319 320 320 321 320 320 319 319 318 317 317 317 318 319 319 319 319 319 319 320 321 321 320 320 320 320 320 319 319 319
307 309 311 311 311 312 313 313 314 315 315 313 312 312 312 312 312 312 312 312 312 312 312 311 312 312 312 313 313 315 316 318 318 318 318 318 319 319 317 316 316 317 317 316 315 316 317 317 317 317 317 317 318 319 319 320 320 320 320 320 320 320 320
306 307 308 309 310 310 311 311 311 312 312 311 311 311 312 312 312 311 311 310 309 309 309 309 310 312 312 312 312 312 313 314 315 315 315 315 314 314 313 312 312 313 313 312 312 313 313 314 313 312 311 311 311 312 312 313 314 315 316 316 316 316 316
306 306 306 307 308 309 310 310 310 311 310 310 311 311 311 311 310 309 308 308 307 307 307 307 309 310 311 310 309 309 308 309 311 312 313 313 312 311 311 310 310 310 310 310 310 310 310 309 309 308 307 305 304 303 303 304 303 303 304 304 305 305 305
305 306 306 307 307 308 308 309 309 310 310 310 311 310 310 309 309 307 306 306 306 305 305 306 307 308 309 309 309 308 306 305 307 309 310 310 310 309 308 307 307 307 307 307 306 305 304 303 302 302 302 301 300 300 300 299 298 299 299 299 299 299 299
304 305 305 306 307 307 307 308 308 308 308 309 310 309 308 307 306 304 303 303 303 302 302 303 303 304 305 306 306 306 305 303 302 304 305 305 304 304 303 302 302 303 303 303 302 300 299 298 298 298 298 298 298 298 298 299 300 300 301 300 301 302 302
304 304 305 305 305 306 306 307 307 307 307 307 308 308 307 306 305 303 302 302 301 301 300 300 301 301 301 302 302 302 302 302 301 301 303 302 300 300 300 299 299 299 299 299 299 298 298 299 299 299 300 300 300 300 300 302 304 305 305 305 305 305 305
303 303 304 304 304 304 305 305 306 307 307 307 308 308 306 306 305 304 302 301 301 301 301 300 300 300 300 301 301 301 301 301 300 300 300 300 299 299 299 298 298 298 299 300 300 301 301 302 302 303 303 304 304 304 304 305 306 306 306 306 306 306 305

ECMWFFLT1_925_thetae_057.txt.gz
Theta_e
332 332 333 333 334 334 334 334 334 333 333 333 334 333 332 334 333 332 332 332 333 334 333 334 334 333 332 332 332 332 332 332 331 331 330 329 329 328 328 327 328 328 327 327 327 327 329 329 327 327 328 328 329 329 327 327 327 326 326 326 324 322 322
332 332 332 332 333 333 333 333 333 333 333 333 333 333 333 335 334 332 331 332 332 332 333 334 334 333 332 332 333 332 332 332 332 331 330 330 329 329 328 329 329 328 327 327 327 326 327 328 328 324 324 327 328 328 328 327 327 326 326 326 325 323 323
332 332 332 332 332 332 331 332 332 332 332 332 333 333 334 335 334 331 330 332 332 331 333 334 334 333 332 332 332 332 332 332 331 331 330 330 330 329 329 329 329 327 326 326 326 327 325 324 326 323 321 325 326 326 326 326 326 326 325 326 324 324 324
330 331 331 331 331 331 331 331 332 331 331 331 332 333 333 334 333 330 330 333 332 330 332 333 333 333 333 333 332 331 332 331 331 331 330 330 330 329 330 330 330 328 327 326 326 327 324 322 324 322 320 324 326 324 324 325 326 325 325 325 324 324 323
331 330 329 330 331 331 331 331 330 330 329 330 331 332 332 333 332 329 331 334 332 332 332 332 333 333 333 333 332 331 331 331 331 331 330 330 329 329 329 330 330 329 327 327 327 327 325 324 324 321 318 322 324 322 322 325 326 325 325 325 324 323 322
330 329 329 329 330 330 331 331 330 329 330 329 331 332 332 333 332 331 331 332 333 332 332 332 333 333 333 333 333 332 332 332 332 331 330 330 330 329 329 330 330 328 328 327 327 327 325 324 323 319 318 321 321 319 320 323 325 325 325 324 324 323 322
329 329 329 329 330 330 330 331 330 329 330 330 331 333 333 333 333 332 331 331 332 332 332 333 334 333 333 333 333 333 333 333 332 331 331 331 330 329 329 329 329 328 328 327 327 327 325 324 323 320 318 319 319 317 317 321 323 324 324 324 324 323 322
329 329 329 330 330 330 330 330 330 329 329 331 332 332 333 333 333 333 332 332 332 332 333 333 333 334 333 333 333 333 333 333 332 332 331 331 331 330 329 329 329 328 328 327 327 327 326 324 323 322 320 319 318 316 315 316 319 323 324 324 324 323 322
329 330 331 331 331 331 330 329 330 329 328 330 332 331 332 332 333 333 333 332 332 333 333 333 333 333 334 333 333 333 333 332 331 331 331 331 331 331 330 329 329 329 328 328 328 327 326 325 323 322 321 320 319 318 316 315 315 319 322 322 323 323 321
329 331 331 332 331 330 330 329 329 329 329 330 331 331 332 332 332 333 333 333 333 333 333 333 333 333 333 333 333 333 332 331 331 330 330 331 331 330 330 329 329 329 328 328 328 327 326 325 322 321 322 320 319 318 319 318 315 314 318 320 320 320 320
329 331 331 331 331 331 330 329 330 329 330 331 332 332 332 331 331 331 332 333 333 332 333 333 332 332 332 332 332 332 331 330 330 329 329 331 331 330 329 329 328 329 329 329 328 327 327 326 323 320 321 321 319 318 317 318 317 313 314 318 318 317 318
330 331 331 331 331 331 331 330 331 330 331 332 332 332 332 331 331 331 332 332 332 332 333 333 332 331 331 331 332 331 330 330 330 330 330 331 331 330 329 329 329 329 329 329 328 327 327 327 324 321 320 319 319 318 316 316 317 314 312 315 316 315 315
330 331 331 331 330 331 331 331 331 331 331 333 332 331 331 331 331 331 332 332 332 333 333 333 332 331 331 331 331 331 330 330 330 330 330 330 330 330 329 329 329 329 328 328 328 328 327 327 326 322 320 319 318 318 317 315 316 314 312 313 314 314 314
330 331 331 331 331 331 331 331 332 332 332 332 331 331 331 331 330 331 331 332 333 333 333 332 331 330 331 331 331 330 330 330 330 330 330 330 330 330 329 330 330 329 328 327 327 327 327 327 327 325 322 319 317 317 317 315 314 312 311 312 313 313 313
330 331 331 331 331 331 330 331 331 332 332 331 330 329 330 331 330 330 330 332 333 332 332 331 331 330 331 332 331 330 329 330 330 330 330 330 330 330 330 330 330 330 329 328 326 327 327 326 327 328 326 323 320 319 318 316 314 312 311 310 311 312 312
330 331 330 330 331 331 331 330 330 331 330 329 329 329 330 330 330 330 330 332 332 331 331 331 331 331 331 331 331 330 330 330 331 331 331 331 331 331 331 331 331 330 330 329 327 327 327 328 327 328 328 325 323 322 319 316 315 313 312 310 310 311 312
329 330 329 330 330 330 331 331 330 329 328 329 330 330 330 330 330 329 331 332 331 331 331 331 331 331 331 331 331 331 331 331 331 331 331 331 331 331 331 331 330 330 331 330 329 327 328 329 328 328 327 326 323 322 319 317 316 315 313 311 310 311 311
328 328 328 329 329 330 330 330 329 327 328 330 331 330 330 330 329 330 331 332 331 331 331 331 332 331 331 331 331 331 331 331 331 331 330 330 330 330 330 330 329 329 330 330 329 327 328 328 328 327 327 326 324 323 320 319 317 314 313 313 311 310 310
328 327 326 327 328 328 328 327 327 327 327 329 330 331 331 328 328 330 332 331 331 331 331 331 331 331 331 331 331 331 330 331 331 330 330 329 330 330 329 329 329 328 329 329 328 327 327 328 328 327 327 325 324 324 323 322 320 316 316 316 313 310 310
327 327 326 326 327 327 327 326 326 327 328 329 328 329 329 328 328 329 331 331 331 331 331 331 331 330 330 330 330 330 330 330 330 330 329 329 329 330 329 329 329 329 329 329 328 328 327 328 328 328 326 325 324 324 323 323 322 320 319 317 312 310 310
326 327 327 327 326 326 326 325 325 327 328 329 329 327 327 329 329 328 329 331 330 330 330 330 330 329 329 329 329 330 330 330 330 329 329 330 329 330 329 329 329 329 330 329 329 329 328 328 328 327 326 324 324 324 323 323 322 321 318 314 310 310 310
325 326 327 327 326 326 325 325 326 327 328 329 330 328 326 328 329 327 328 330 329 329 330 330 329 328 328 328 328 328 329 329 329 330 330 330 330 329 328 328 329 329 329 329 330 330 329 328 328 326 325 324 324 323 323 323 323 319 315 311 309 309 309
323 326 326 326 326 326 325 325 326 327 328 329 329 329 327 327 327 327 329 329 327 328 329 329 328 328 327 328 328 327 328 329 329 329 329 329 329 328 327 327 328 328 328 328 329 330 329 329 328 326 325 324 323 323 322 322 321 318 313 310 309 309 309
319 323 326 327 327 326 325 325 326 328 328 328 327 328 327 326 326 327 327 327 326 327 327 327 327 327 327 327 327 327 327 328 328 328 328 328 327 326 327 327 327 327 327 326 327 328 328 327 326 326 325 324 321 321 321 321 320 318 314 312 310 309 309
316 320 324 326 327 326 326 326 326 328 328 326 326 326 326 325 325 326 326 325 325 326 326 327 327 326 326 326 326 326 327 327 327 326 326 326 325 325 325 325 325 325 326 326 326 327 326 326 325 322 321 321 320 319 318 318 317 317 316 313 311 310 310
315 318 322 325 326 326 326 326 327 327 327 325 324 324 324 323 323 324 323 323 323 323 325 326 326 326 325 325 326 326 326 326 325 324 324 323 323 323 324 324 324 325 326 326 326 326 326 325 323 319 317 317 318 316 315 315 316 316 315 314 312 312 312
314 316 319 324 325 325 325 326 326 325 325 324 322 321 321 321 321 321 321 321 320 320 322 323 324 325 325 325 325 324 324 323 323 322 322 322 322 322 323 324 324 325 325 326 326 326 325 323 321 317 314 314 315 315 315 315 315 315 315 314 314 315 315
311 312 315 319 323 324 324 324 324 322 322 321 319 318 318 319 318 317 316 317 318 318 318 319 321 322 323 323 323 322 321 321 321 321 321 322 323 323 323 324 324 323 324 325 325 324 322 320 318 316 314 314 314 314 314 314 314 315 315 315 315 316 315
308 309 310 313 318 322 324 322 321 320 319 316 313 312 313 314 314 313 313 314 315 316 315 316 317 320 321 321 320 320 320 320 320 320 320 321 321 321 321 322 322 321 322 322 321 319 317 316 316 315 314 314 314 314 314 314 314 314 314 314 315 315 315
307 307 307 308 310 315 320 320 319 318 315 311 309 308 308 309 310 311 311 312 313 314 313 314 315 317 318 319 319 319 318 318 318 318 317 316 317 317 316 317 318 318 318 318 317 316 314 313 313 314 314 314 313 312 312 313 314 314 313 312 311 311 311
306 306 306 306 305 307 311 314 314 313 311 308 306 306 305 306 308 309 310 311 312 313 313 314 315 316 317 318 319 319 318 317 316 315 314 313 313 314 313 313 314 315 316 317 318 317 316 315 315 316 316 314 312 309 306 306 307 307 307 306 305 305 306
306 306 305 305 304 304 305 306 307 308 308 306 304 303 303 305 306 307 308 310 311 312 313 314 315 316 317 317 317 318 317 316 314 311 311 311 310 310 311 311 312 313 314 314 315 315 316 316 316 316 314 314 311 307 303 302 302 302 303 304 304 304 304
306 306 305 305 304 303 303 302 303 303 304 303 303 303 303 304 305 305 307 309 310 312 313 313 313 315 316 316 316 316 316 316 313 310 309 309 308 308 308 308 309 309 310 310 310 311 311 312 312 310 309 310 308 304 302 302 303 303 303 304 304 304 304
307 307 306 306 306 305 303 301 301 301 301 301 303 303 302 302 303 304 305 308 309 310 312 311 311 312 314 314 313 314 315 314 312 310 308 307 306 304 303 304 304 303 304 305 306 307 307 306 306 305 305 305 305 303 303 303 304 304 304 304 304 304 304
306 307 306 306 306 305 304 303 301 300 300 300 301 302 302 301 301 301 303 305 306 308 309 310 310 311 312 312 311 312 312 310 310 311 310 306 305 303 301 300 300 301 302 303 303 303 303 302 302 302 302 303 303 303 304 304 304 304 304 303 303 303 303
304 305 306 306 305 305 305 304 303 301 301 301 300 301 301 301 300 300 301 302 303 304 305 307 308 307 308 309 309 309 309 308 308 310 309 306 304 303 301 301 301 301 302 302 302 302 302 302 302 302 303 303 304 304 304 304 303 303 303 303 303 302 302
304 304 304 304 304 304 304 304 303 303 302 301 301 300 300 300 300 300 300 300 301 301 301 302 303 303 303 304 305 304 304 304 305 306 306 304 302 302 301 302 302 302 302 302 302 303 303 303 304 304 304 304 304 304 304 303 303 303 302 302 302 301 301

ECMWFFLT1_925_thetae_060.txt.gz
Theta_e
330 330 331 333 334 334 334 334 334 332 332 333 334 332 332 331 331 332 332 332 332 332 333 333 331 330 332 333 331 331 330 330 330 329 328 328 328 328 327 326 326 327 327 326 326 326 327 328 327 327 327 328 329 328 328 327 326 325 325 325 323 321 321
330 330 330 331 333 333 333 333 332 331 330 330 332 333 332 332 331 331 332 331 332 333 333 333 332 329 331 333 331 331 330 330 330 330 329 329 328 328 327 326 327 327 326 326 326 326 326 327 327 326 326 327 328 328 328 327 326 326 325 325 324 322 322
331 330 330 331 331 331 331 331 330 329 329 329 330 331 331 332 331 331 332 332 331 333 333 333 332 330 329 332 332 331 331 330 330 330 329 330 329 329 328 327 327 327 326 325 325 326 326 325 326 326 325 326 327 327 328 327 327 326 326 326 325 323 323
331 330 329 330 330 330 330 330 330 329 329 329 328 329 330 331 331 331 332 333 331 332 331 331 332 330 329 332 332 331 331 331 330 330 330 330 330 329 328 328 328 327 326 326 325 326 325 324 325 325 323 324 326 326 327 327 327 327 326 326 325 324 323
330 330 329 329 329 329 330 330 330 330 330 329 329 329 329 330 331 332 333 332 331 331 330 330 331 329 330 332 332 332 332 331 331 331 330 330 329 329 329 328 328 328 327 327 326 326 326 324 325 324 322 324 324 323 326 327 326 326 326 325 325 323 323
331 330 330 330 329 329 329 329 330 330 330 330 330 330 329 329 330 332 333 333 331 331 330 330 331 331 331 331 331 332 332 331 332 331 331 331 330 329 329 329 328 328 328 328 327 327 326 325 324 322 321 323 323 321 323 325 324 326 325 325 324 324 323
331 331 330 330 330 329 329 330 330 330 330 330 330 330 330 329 330 332 333 333 332 331 330 330 330 332 332 330 330 332 332 332 332 332 331 331 330 330 329 329 329 329 329 328 327 327 326 325 324 322 320 321 321 319 320 323 324 325 325 324 324 324 323
331 330 330 331 331 330 329 329 330 330 330 330 329 328 329 330 331 332 332 332 331 331 331 329 329 331 332 331 330 330 331 332 331 331 331 330 330 330 330 329 329 329 329 329 327 327 327 326 325 324 322 320 319 317 317 319 322 324 324 324 324 324 324
330 329 329 330 330 330 330 329 329 329 329 329 329 328 328 330 331 331 331 331 331 330 331 330 329 331 332 332 331 329 329 331 331 331 331 330 330 330 329 329 329 329 329 329 328 327 327 326 325 325 324 322 321 318 316 317 318 321 324 323 323 323 323
328 328 328 329 329 330 330 330 330 330 329 329 329 329 329 330 331 331 331 332 331 330 330 331 331 331 332 332 331 330 330 332 332 331 331 331 331 330 329 329 329 329 329 328 328 327 326 326 325 325 324 323 323 320 318 319 318 318 322 323 322 323 322
327 327 328 328 328 329 330 330 330 330 329 329 329 329 329 331 331 331 332 333 332 330 330 331 332 332 332 333 332 332 332 333 332 332 332 332 332 331 329 330 330 329 329 329 328 327 327 326 325 324 324 324 324 321 318 320 320 317 319 322 321 321 321
327 327 327 327 328 329 330 330 331 330 330 329 328 329 330 331 331 330 331 332 332 330 330 331 333 332 333 333 332 332 332 333 332 332 332 332 331 331 329 330 330 330 330 329 328 328 327 327 325 324 323 323 323 322 319 319 321 318 317 320 320 320 319
328 327 327 327 327 328 329 330 331 330 330 329 328 329 330 330 331 331 331 332 331 330 330 331 332 332 333 333 332 332 332 333 332 332 332 331 331 330 329 330 330 330 330 329 329 328 327 327 326 324 323 322 322 322 320 318 319 318 316 317 318 317 317
328 328 328 327 327 327 328 329 330 330 330 329 328 328 328 329 331 332 331 331 330 331 331 331 332 332 332 332 331 331 331 332 332 331 330 330 330 330 330 330 330 329 329 329 329 329 328 327 327 325 323 322 321 320 320 318 317 316 314 314 314 314 315
328 328 328 328 328 328 328 328 329 330 330 329 329 329 328 329 331 332 330 330 330 331 332 331 332 332 332 331 331 330 330 331 331 330 330 329 329 330 330 330 330 329 329 329 329 329 328 328 327 326 323 321 321 320 319 318 317 316 314 313 313 313 314
328 328 328 328 329 329 328 328 329 329 330 330 329 329 329 331 331 331 330 330 331 331 332 331 332 332 332 331 330 330 330 330 330 330 330 330 330 330 330 330 330 329 328 328 329 328 327 327 327 326 324 322 321 319 318 317 317 316 315 313 312 312 313
328 328 327 327 328 328 328 328 328 329 329 329 329 330 330 331 331 331 330 330 331 331 332 332 332 332 332 331 330 330 330 329 330 330 329 330 330 330 330 330 329 329 329 328 328 327 326 327 326 326 326 325 323 320 319 318 317 317 316 314 313 312 312
326 327 328 327 327 327 328 328 328 328 328 327 328 329 330 330 330 330 330 330 330 330 331 332 332 331 331 330 330 330 330 329 329 330 329 329 330 330 330 330 330 330 330 329 328 328 327 326 326 326 327 326 326 324 322 321 318 317 316 314 313 312 311
322 324 327 328 327 326 327 328 328 328 327 327 327 328 328 329 329 329 330 330 330 330 330 331 331 331 331 330 330 331 330 329 329 329 329 330 330 331 331 330 330 330 331 330 330 329 328 327 327 327 327 327 327 327 326 324 321 319 317 315 313 312 311
318 321 323 326 327 326 326 327 328 328 327 327 327 327 328 328 329 329 329 329 329 330 330 330 330 330 331 330 330 331 330 330 330 329 330 330 331 331 330 330 330 330 330 330 330 330 330 329 327 327 328 327 327 327 326 325 323 320 317 315 313 312 311
316 318 321 323 326 327 326 327 327 327 327 328 328 328 328 329 329 329 328 329 329 330 329 329 329 330 331 331 330 331 330 330 330 330 330 331 330 330 329 328 329 329 329 329 328 329 329 329 328 327 327 327 327 326 326 325 323 321 320 318 316 313 311
314 316 319 321 324 326 326 326 326 326 326 327 328 328 328 329 329 329 329 328 328 329 329 328 329 330 331 331 330 330 330 330 330 330 330 330 330 329 329 329 329 329 329 328 328 328 328 328 327 327 327 327 327 326 325 324 323 322 322 320 319 315 312
312 314 317 319 322 324 326 326 326 326 326 326 327 327 328 329 329 329 329 329 328 328 328 328 330 330 330 330 330 330 330 330 330 330 329 329 329 329 328 329 329 329 329 328 328 328 328 327 326 326 325 325 326 325 324 323 323 323 322 320 320 317 312
310 312 315 317 320 323 325 326 326 325 325 325 326 327 327 328 329 329 329 328 327 327 328 329 330 330 330 330 329 329 329 329 329 329 329 329 329 329 329 329 329 329 328 328 329 329 328 328 327 326 325 324 324 324 323 323 322 322 321 320 320 318 314
307 310 313 316 319 321 324 326 326 325 325 326 326 327 327 328 328 328 328 328 328 327 328 329 329 329 330 329 328 328 328 328 328 328 329 329 329 329 329 329 328 327 327 327 327 327 328 328 327 326 325 324 324 323 323 323 322 321 321 320 320 318 316
305 307 310 314 318 321 323 325 326 325 325 326 327 327 327 328 328 328 327 327 327 327 327 328 328 328 329 328 327 327 328 327 327 327 328 329 328 329 329 327 326 326 326 326 325 326 326 326 325 324 323 322 322 321 321 321 321 320 320 320 319 318 316
305 306 308 310 315 318 321 324 325 325 325 325 326 326 327 326 326 326 326 327 327 326 327 327 327 327 328 327 326 326 327 327 326 327 327 327 327 327 326 325 325 325 325 325 325 326 325 324 322 320 319 318 317 316 316 317 318 319 318 317 316 315 313
304 305 306 308 310 313 315 319 323 324 325 325 324 325 325 324 324 324 324 325 325 325 326 327 326 326 327 326 326 326 326 326 326 326 325 324 324 324 324 324 324 324 325 325 325 325 325 323 321 318 316 315 314 314 315 315 315 315 315 314 313 313 313
304 304 304 305 307 307 308 311 313 316 319 322 322 321 321 321 321 321 322 322 322 323 325 326 325 325 326 326 325 325 325 324 324 323 322 322 322 322 322 323 323 324 324 325 325 325 324 323 320 317 315 314 314 315 315 315 315 314 314 313 313 313 314
303 303 302 303 303 304 304 304 306 307 310 313 315 315 315 316 316 316 317 317 318 321 323 323 323 324 324 324 324 323 322 322 320 320 320 320 320 321 321 322 323 323 323 323 323 322 321 321 318 315 314 313 313 313 312 312 312 310 310 310 310 308 308
303 303 302 302 302 302 302 302 302 303 303 303 305 307 309 310 310 310 310 311 314 318 320 320 320 321 321 321 322 322 320 319 318 317 318 318 318 319 319 319 320 320 320 320 319 317 316 317 316 315 314 313 312 310 309 308 308 307 308 309 308 306 306
303 303 302 302 301 301 302 301 301 301 301 300 300 301 303 305 306 306 307 308 310 313 316 316 317 318 317 318 319 320 319 318 316 314 314 313 313 314 315 316 317 318 318 317 315 313 313 314 314 314 313 312 311 308 306 306 307 308 309 309 307 306 307
303 303 303 302 302 301 301 301 301 301 300 300 300 300 301 302 303 304 305 306 307 308 309 311 312 313 314 315 316 317 317 317 315 312 310 309 309 309 310 313 315 316 317 316 314 313 313 313 314 313 312 312 310 305 303 303 305 305 306 305 304 304 304
303 303 303 302 302 302 301 301 302 302 301 300 300 300 300 300 300 301 302 304 304 304 305 306 307 309 311 312 313 314 314 314 313 311 308 307 306 306 305 306 308 310 313 315 314 313 313 312 313 312 311 310 307 303 302 303 304 304 304 303 303 303 302
303 302 302 302 302 302 302 302 301 302 302 302 301 300 299 299 299 300 300 301 302 302 303 304 304 305 307 308 308 310 310 309 308 309 307 305 304 303 302 301 301 302 305 307 307 307 307 307 307 307 306 306 304 303 303 303 303 303 303 303 302 302 302
302 302 302 302 302 301 301 301 301 301 302 302 302 301 300 299 298 299 299 300 300 301 301 302 302 303 304 304 305 306 306 305 305 306 306 303 301 300 300 300 300 300 301 302 302 302 303 303 304 304 304 304 304 304 304 304 303 303 302 302 302 301 301
302 301 301 301 301 301 300 300 300 300 300 300 300 300 300 299 299 298 298 299 300 301 301 301 301 301 302 303 304 304 304 304 304 305 304 302 301 301 301 301 302 302 302 303 303 303 303 303 304 304 304 304 304 303 303 303 302 302 301 301 300 300 299

ECMWFFLT1_925_thetae_063.txt.gz
Theta_e
334 334 333 331 331 331 332 333 333 333 333 332 332 331 330 331 331 330 329 330 331 331 332 331 331 331 330 331 331 332 332 332 331 331 331 330 330 330 329 329 327 327 330 330 329 329 328 327 328 327 327 327 328 329 329 328 327 327 326 325 325 325 324
333 333 332 331 331 332 333 333 332 333 333 333 333 332 331 330 330 329 329 330 330 331 331 331 331 330 330 331 331 331 332 332 332 332 332 330 330 330 330 329 329 329 330 330 329 330 329 327 327 327 327 327 328 329 329 329 328 327 327 326 325 324 323
333 333 332 331 331 332 332 332 332 332 332 332 332 332 331 330 329 329 330 330 330 331 331 331 330 330 330 331 331 331 331 331 332 332 332 331 330 331 331 330 329 330 330 329 329 329 329 329 328 328 328 327 328 328 328 328 328 327 327 326 325 324 323
334 333 332 332 331 331 331 332 332 332 332 332 331 331 330 330 330 330 330 330 331 331 331 331 330 329 330 331 331 331 331 331 332 332 331 331 331 331 331 331 330 330 329 329 329 328 329 330 329 328 328 327 328 329 328 327 327 326 326 326 326 325 324
334 333 332 332 332 331 331 331 331 331 332 331 331 331 330 330 329 330 331 330 331 331 331 330 330 330 330 330 330 330 330 330 331 331 331 330 331 331 331 331 330 330 330 330 330 329 330 330 329 329 327 327 328 328 327 326 326 326 326 326 325 325 324
332 332 332 332 332 331 331 330 330 331 331 331 331 331 330 329 329 329 330 330 331 331 330 330 331 332 330 329 330 330 329 329 329 330 330 330 330 331 331 331 331 330 330 330 330 330 330 330 330 329 328 327 328 328 326 326 326 326 326 326 325 325 324
329 330 331 331 331 331 330 329 330 330 331 331 330 330 330 330 329 329 329 330 330 330 331 331 331 332 330 329 330 330 329 328 328 330 330 330 331 331 331 331 331 330 330 330 330 329 330 329 329 329 328 327 328 328 326 326 326 326 326 325 324 324 324
328 328 329 329 329 330 329 329 330 330 330 331 331 330 330 329 329 328 328 329 329 330 331 331 330 331 330 329 330 330 329 329 328 329 330 331 331 331 331 330 330 330 330 329 329 329 329 329 329 329 328 326 326 327 327 326 326 325 326 325 324 324 324
328 328 328 328 328 328 329 329 329 330 330 330 330 330 330 330 329 328 327 328 328 329 330 329 328 329 330 330 330 330 329 329 329 329 330 331 332 331 331 330 330 331 330 329 329 329 329 328 329 329 328 327 327 326 326 325 326 326 326 325 324 323 324
328 328 328 328 328 328 328 328 328 329 329 328 328 329 329 329 329 328 328 327 327 327 330 330 328 329 330 330 330 330 329 329 329 329 330 331 331 331 331 330 329 330 330 329 329 329 328 328 328 328 328 328 328 326 326 325 326 327 326 325 324 323 322
328 328 327 328 328 328 328 328 328 328 327 327 328 328 329 329 329 328 328 327 327 328 330 330 329 328 329 330 330 330 329 329 329 329 330 331 331 331 331 330 329 330 330 329 329 329 328 327 327 327 327 328 328 327 327 326 326 327 326 325 324 323 322
328 327 328 328 328 328 328 328 327 327 327 327 328 328 328 329 328 328 329 329 329 330 330 329 328 328 329 330 330 329 328 328 329 330 330 330 331 331 330 329 329 330 330 329 329 329 328 327 327 327 327 327 327 327 327 326 326 326 325 325 325 323 321
327 328 328 328 328 328 328 328 327 327 328 328 329 328 328 329 328 328 328 329 329 330 330 329 328 328 329 329 330 330 329 328 329 330 330 330 329 330 330 328 327 329 330 329 328 329 328 328 327 326 326 327 327 327 326 326 326 325 323 323 324 322 320
325 327 328 328 328 328 328 328 327 327 328 328 328 328 328 328 328 327 327 328 329 330 330 330 329 328 328 329 330 329 328 327 328 329 329 328 328 328 329 329 328 329 330 329 329 329 329 328 327 326 326 326 326 326 325 325 326 324 320 319 321 321 320
323 325 327 328 328 328 328 328 328 328 328 328 328 328 328 328 328 327 328 328 329 330 330 331 330 328 328 329 329 329 328 327 328 328 327 327 327 328 329 329 329 330 329 329 330 329 329 328 327 326 325 325 325 325 324 324 324 325 322 317 317 318 318
322 323 324 326 327 328 328 328 328 328 328 328 328 328 328 328 328 328 329 330 330 330 330 330 329 328 328 328 328 328 328 327 327 328 328 328 328 328 329 330 330 330 329 329 330 329 329 328 327 326 325 325 325 323 323 323 323 324 323 319 316 315 316
318 320 321 323 325 327 328 328 328 328 328 328 328 328 328 328 329 329 329 329 330 330 330 330 329 329 328 328 328 328 327 327 327 329 330 330 330 330 330 330 331 330 329 329 330 329 329 328 327 327 325 325 325 323 322 323 322 322 323 320 317 315 314
313 315 318 321 322 324 326 327 327 327 327 327 328 328 328 328 329 329 328 328 328 329 329 329 329 329 328 328 328 327 326 327 328 330 331 331 331 330 330 331 331 330 329 329 330 329 328 328 328 327 326 326 325 323 323 321 320 320 322 322 319 315 313
310 312 314 317 320 322 323 325 326 326 326 327 327 328 328 328 328 328 328 328 327 328 329 329 329 329 327 327 327 327 326 327 329 331 331 331 331 331 331 331 331 330 329 329 329 328 328 328 328 327 327 327 325 323 322 321 319 319 320 321 321 317 314
309 310 311 313 316 319 322 324 325 326 326 327 327 327 328 328 328 328 328 327 327 327 329 329 329 329 328 327 328 329 329 329 330 330 330 331 331 331 331 331 331 330 329 329 329 328 328 327 328 327 327 327 326 325 323 321 319 319 319 320 320 319 316
308 309 310 311 313 316 319 322 324 325 326 327 327 327 328 328 328 328 328 328 327 328 329 329 329 329 329 328 329 331 330 330 330 330 330 330 330 330 330 330 330 329 329 329 329 329 328 327 327 326 326 327 327 326 325 323 322 321 320 320 319 318 317
307 308 308 309 311 313 316 319 322 324 326 326 326 327 327 328 328 328 328 328 328 328 329 329 329 329 329 329 330 330 330 331 330 330 330 329 329 329 329 329 330 329 329 329 329 329 328 327 326 325 326 327 327 328 327 326 325 323 322 321 320 318 317
306 307 307 308 309 310 313 317 320 323 325 325 326 327 327 328 328 328 328 328 328 329 329 329 329 330 329 330 330 330 330 331 331 330 330 330 329 329 329 329 329 329 329 329 328 329 328 328 327 328 328 328 327 328 328 327 326 325 323 322 322 319 318
305 306 306 307 307 308 311 315 318 321 324 325 326 326 327 328 328 328 328 327 328 329 329 329 330 329 329 329 330 331 330 331 331 330 330 330 330 329 329 329 329 328 328 328 328 328 328 328 328 327 327 328 327 327 328 327 327 325 324 324 323 321 320
305 305 305 305 305 306 310 314 317 320 323 324 325 325 326 327 327 327 327 327 328 329 329 329 329 328 328 329 330 330 330 330 330 330 329 330 330 330 329 329 329 328 328 328 328 328 328 328 328 327 326 326 326 326 326 327 327 326 325 325 324 323 322
304 304 304 304 304 304 307 310 314 316 319 323 325 325 326 326 326 326 326 326 328 329 329 329 328 328 328 329 330 330 330 329 330 329 329 329 329 329 328 328 328 327 327 328 327 327 328 328 328 327 326 326 325 325 325 325 325 325 324 324 324 324 323
304 303 303 303 303 303 304 306 310 312 314 317 320 323 324 325 325 326 326 325 327 328 329 328 328 328 329 329 330 330 329 329 329 329 328 328 328 328 328 328 328 326 326 327 327 327 327 327 327 326 325 324 324 324 323 323 323 324 323 322 322 321 321
304 303 303 303 303 302 302 303 306 308 309 310 312 316 318 320 322 323 324 322 323 326 327 328 328 328 328 329 329 329 328 328 328 328 327 327 328 328 328 328 328 325 325 326 326 326 326 326 325 323 321 321 320 320 320 320 320 321 321 321 320 319 319
304 303 303 303 302 302 302 302 303 305 306 306 307 308 309 310 312 314 316 317 318 319 322 324 326 327 327 328 328 327 327 327 327 327 326 326 327 328 327 327 327 325 325 325 325 325 325 325 323 320 318 316 316 315 315 315 315 315 316 317 317 317 316
304 303 303 303 302 302 302 301 301 303 304 304 304 303 303 303 305 307 309 312 314 314 315 317 320 324 325 326 325 326 326 325 325 325 325 325 325 325 325 325 324 323 324 325 325 324 324 323 321 318 316 314 312 312 312 312 313 313 313 313 314 314 314
303 303 303 303 303 302 302 302 301 301 302 302 302 302 301 301 302 303 305 307 309 311 312 313 317 320 321 322 323 324 325 324 323 323 323 323 323 322 323 323 322 322 323 324 325 324 323 322 320 317 315 312 310 309 308 308 309 309 310 310 310 310 310
303 303 303 303 303 303 302 302 301 301 301 300 301 301 301 300 299 300 301 303 305 307 308 311 314 315 316 317 320 322 323 322 321 320 320 320 320 320 321 322 321 321 323 324 324 322 321 321 320 317 315 311 308 306 305 305 306 305 306 306 306 307 307
302 302 302 302 302 302 302 302 302 301 300 300 300 300 301 300 299 298 298 300 301 303 304 306 308 310 312 313 315 317 320 321 320 319 318 317 318 318 319 320 320 321 322 323 321 319 317 318 318 316 314 311 309 306 305 304 305 305 305 305 305 306 306
301 301 302 302 302 301 301 302 301 301 301 300 300 299 299 300 299 299 298 298 298 299 301 302 305 306 307 308 310 313 315 316 317 317 315 314 314 315 315 317 318 318 319 319 317 316 315 316 316 314 313 312 310 308 306 305 306 306 305 304 303 303 303
301 300 301 301 301 301 301 301 301 301 301 300 300 299 299 298 299 299 298 298 298 298 299 300 302 304 305 305 306 307 308 308 310 312 311 309 309 310 312 313 313 314 314 314 314 313 313 313 313 313 312 311 310 308 306 306 305 304 303 303 302 302 302
301 300 300 301 301 301 301 300 300 300 300 300 300 300 299 298 298 298 298 298 298 298 298 298 300 302 303 303 303 304 304 304 305 306 306 304 303 305 307 308 308 309 310 311 310 310 310 310 310 310 309 308 307 305 305 304 303 303 302 302 301 301 301
301 300 300 300 300 300 300 300 300 299 299 299 299 299 299 298 297 297 297 297 297 298 298 298 299 300 302 303 302 302 303 303 302 303 302 300 300 301 301 302 303 305 306 306 306 305 305 306 306 305 304 304 304 304 304 303 302 302 302 301 300 300 299

ECMWFFLT1_925_thetae_069.txt.gz
Theta_e
338 337 337 338 338 338 338 337 338 336 335 337 337 337 336 335 335 335 335 335 334 335 336 335 335 335 334 334 332 332 332 333 333 332 331 331 332 332 333 335 334 334 334 332 331 332 332 332 332 332 331 330 330 331 330 329 330 330 329 328 328 329 329
338 338 337 337 337 337 337 337 338 337 337 338 338 337 337 336 335 335 335 334 334 335 335 335 335 335 335 334 333 333 333 333 333 332 332 332 332 331 332 332 332 334 335 332 332 332 333 333 332 331 332 332 331 331 330 329 330 330 329 328 327 328 328
339 338 337 337 338 338 338 337 337 337 337 337 337 337 336 336 336 335 335 334 334 335 335 335 335 335 336 335 334 333 334 333 333 332 332 332 332 330 330 330 330 333 335 332 332 333 333 333 331 330 332 332 331 331 331 331 331 330 330 329 327 328 328
337 337 337 337 338 338 338 337 337 336 336 336 336 337 337 337 336 336 335 335 335 335 334 334 334 334 334 335 335 333 334 334 333 333 332 333 332 330 330 330 330 332 333 333 332 332 332 333 332 331 331 332 331 331 332 332 331 330 330 329 328 328 328
335 335 335 336 337 337 337 337 337 336 335 336 336 336 337 337 338 337 336 335 335 334 334 334 334 334 334 335 335 334 334 333 333 333 332 333 332 331 330 330 330 330 331 333 332 330 333 334 333 333 332 332 331 331 331 332 332 331 331 330 328 328 328
334 334 334 334 335 335 335 336 336 334 333 335 336 336 337 337 337 337 336 335 335 334 334 333 334 334 334 335 336 335 334 333 333 333 332 332 332 331 331 331 331 331 330 331 330 330 332 333 332 332 332 332 332 331 331 331 332 331 331 330 329 328 328
332 333 333 333 333 334 334 334 335 334 333 335 336 335 336 337 337 336 336 335 335 334 334 334 334 334 334 335 336 335 334 333 333 333 332 332 332 332 332 331 331 331 330 330 331 331 332 332 331 332 333 332 331 331 332 331 332 332 331 330 328 328 328
329 330 331 332 332 333 333 333 334 334 333 334 335 335 336 336 337 337 336 336 336 335 335 334 334 334 334 335 335 334 333 332 332 332 332 332 332 332 332 331 331 331 331 331 332 332 332 332 331 331 333 332 330 330 331 331 331 332 331 330 328 328 328
327 328 329 330 330 332 333 333 333 333 332 333 333 334 335 335 336 336 336 336 336 334 335 335 334 333 333 334 334 333 332 332 332 332 332 332 332 332 332 332 331 331 330 330 331 331 331 332 332 331 331 331 330 330 330 330 330 330 330 328 328 327 328
325 326 328 329 329 330 331 332 333 332 332 333 333 333 334 333 333 333 333 335 335 334 334 335 334 333 333 333 333 332 331 331 332 332 332 332 332 332 332 332 332 332 332 330 330 330 330 332 333 331 331 331 331 330 330 331 330 330 329 327 328 327 327
323 325 326 327 328 329 331 332 332 332 333 333 333 333 333 333 333 333 332 333 333 332 333 334 333 333 333 333 332 332 332 331 331 332 331 331 332 332 332 332 331 332 333 332 331 330 330 332 333 332 331 330 331 330 329 330 330 330 329 327 328 327 327
321 323 324 325 326 328 330 331 332 332 333 333 333 333 333 333 333 333 333 332 332 333 333 333 333 332 332 332 332 331 331 332 332 331 331 331 332 332 332 333 331 331 334 333 331 330 330 331 333 332 331 330 331 331 330 331 330 330 329 328 328 327 327
319 320 321 322 324 326 328 329 330 331 332 332 332 332 333 333 333 332 332 332 333 334 333 333 333 332 331 331 332 332 331 332 331 331 331 331 332 332 331 332 331 331 334 334 331 330 330 330 331 331 331 331 331 331 331 332 331 331 330 329 327 327 327
318 319 319 320 321 323 324 325 326 327 329 331 331 332 332 332 332 332 332 332 333 333 332 332 332 332 332 331 332 331 330 331 331 330 330 330 331 332 331 331 331 331 334 335 332 330 329 329 330 330 330 331 331 331 331 330 330 331 330 328 328 327 327
317 317 317 317 318 319 320 321 323 324 326 327 329 331 331 331 331 331 332 332 332 331 331 332 332 332 332 331 331 330 329 330 330 330 331 332 332 332 331 331 331 332 334 334 333 331 330 330 330 329 329 330 330 330 330 329 330 330 329 328 328 328 327
316 316 316 316 316 317 318 319 320 322 323 325 327 329 330 331 331 331 331 331 331 331 331 332 332 332 332 331 331 330 329 328 329 330 331 332 332 331 331 331 332 332 333 333 333 332 330 330 330 330 329 329 329 330 330 330 331 331 329 327 327 327 327
315 315 315 315 315 315 316 318 319 319 320 322 324 326 328 330 331 331 331 331 331 331 331 332 332 331 331 330 331 330 329 329 329 330 330 331 331 331 331 332 332 332 331 331 332 331 330 330 330 330 329 329 329 329 329 330 330 330 330 328 326 326 326
314 314 314 314 314 314 315 315 316 317 319 320 322 323 325 328 330 330 330 331 330 330 332 332 331 330 331 331 331 331 331 331 331 330 331 331 330 330 330 331 331 331 331 329 329 330 330 331 331 330 330 330 330 330 329 329 329 329 329 328 326 324 325
313 313 313 313 313 313 314 314 314 315 317 319 320 322 324 326 328 330 330 330 330 330 332 332 330 329 330 331 332 331 331 332 332 331 331 331 331 330 330 330 332 331 330 329 330 330 331 331 331 332 332 330 330 330 329 329 328 328 328 328 327 324 323
312 312 312 312 312 312 312 313 313 313 314 316 317 319 321 324 326 328 329 329 329 329 330 330 329 329 329 331 332 332 331 332 332 331 331 331 331 331 330 331 331 330 329 331 330 329 331 332 332 333 332 330 329 329 329 328 327 327 328 327 328 325 322
312 312 311 311 311 311 311 311 311 311 312 313 313 314 316 319 323 327 328 329 329 328 329 330 329 329 330 331 332 332 332 331 331 331 331 331 331 331 331 331 330 329 329 331 330 329 331 333 332 332 331 330 329 328 328 328 328 328 328 328 328 326 322
311 311 311 310 310 310 310 310 310 309 310 310 310 310 312 314 318 322 325 326 327 328 329 329 328 328 329 330 330 331 331 331 331 331 330 330 330 330 330 330 330 330 331 332 332 331 331 330 330 330 331 330 329 327 327 329 330 330 329 328 328 326 323
310 310 310 310 310 309 309 309 309 308 308 308 307 307 308 310 312 315 318 321 323 325 325 325 326 327 328 329 330 330 330 330 330 330 330 330 329 329 330 331 331 332 332 332 332 331 330 330 330 330 330 329 328 327 328 329 330 330 329 328 327 326 326
309 309 309 309 309 309 308 308 308 307 307 307 306 306 305 306 308 309 312 314 318 320 319 319 323 326 327 329 329 329 329 329 330 330 330 330 330 330 330 331 331 331 331 331 331 331 330 330 330 330 329 329 328 328 328 329 330 330 328 329 329 328 327
308 308 308 308 308 308 308 307 307 306 306 306 305 305 304 304 304 305 307 309 312 315 315 315 318 321 324 327 328 328 328 329 330 331 331 330 330 330 330 330 330 330 330 330 330 331 330 330 330 330 329 329 329 330 329 329 330 330 329 329 330 329 327
308 308 308 308 308 308 307 307 306 306 306 305 305 304 304 303 303 303 303 304 306 310 311 310 312 315 318 322 325 326 327 329 331 331 330 328 328 329 329 329 329 329 329 329 329 330 330 330 330 329 329 329 329 329 331 330 331 331 330 331 330 328 327
307 307 307 307 307 307 307 307 306 306 306 305 305 304 303 303 302 302 302 301 302 305 306 306 308 311 313 317 321 323 325 327 328 329 330 328 328 328 328 328 328 328 329 329 329 329 329 330 330 329 328 327 327 328 330 330 330 330 329 330 330 328 326
306 306 306 306 306 306 306 306 306 306 306 305 305 304 303 303 302 302 301 300 300 302 302 302 304 307 310 313 317 320 323 324 325 326 328 329 329 329 328 327 327 328 328 328 329 329 329 329 329 329 327 327 327 328 329 329 329 329 328 329 329 329 327
306 306 305 305 305 305 305 305 305 306 306 306 305 305 304 303 302 302 301 300 300 300 300 300 301 304 306 309 312 317 320 322 323 324 326 327 328 328 327 326 327 328 327 327 328 328 328 329 329 328 327 328 329 328 327 328 328 327 328 328 329 329 328
305 305 305 305 305 305 304 304 304 304 305 305 305 305 304 304 303 302 301 301 300 299 299 298 299 301 303 305 309 312 316 318 321 323 324 325 326 327 327 326 326 326 326 325 326 327 327 327 327 327 327 328 328 326 324 325 325 325 326 326 327 327 327
304 304 304 304 304 304 304 304 304 304 304 304 304 304 304 304 304 303 302 301 300 299 298 298 298 299 301 303 306 309 312 315 319 322 323 324 325 326 326 326 326 326 325 325 326 327 327 326 325 326 327 326 326 324 321 320 321 322 322 323 324 325 325
303 304 304 304 303 303 303 303 303 303 303 303 303 303 303 303 303 303 303 302 301 300 299 298 297 298 299 301 304 307 311 313 314 316 320 323 324 324 325 326 326 325 324 325 327 328 328 328 326 325 325 324 325 324 320 318 318 319 318 319 320 320 320
303 303 303 303 303 302 303 302 302 302 302 302 302 302 302 302 302 302 302 302 301 300 300 298 297 297 298 299 301 305 308 310 310 311 316 321 323 322 323 323 323 323 323 325 328 327 327 328 326 324 324 324 325 324 320 317 317 317 317 317 316 316 315
302 302 302 302 302 302 302 302 302 302 302 302 302 302 302 302 301 301 300 300 300 300 299 298 298 297 297 297 299 302 305 307 307 309 313 317 318 316 316 317 318 320 322 324 326 327 326 327 325 322 323 324 324 322 319 317 317 317 317 316 315 315 314
301 301 301 302 302 302 301 301 301 301 301 301 301 301 301 301 301 300 300 299 299 299 298 297 297 297 297 297 297 299 301 303 306 307 308 309 310 309 309 310 313 316 318 320 323 323 324 324 323 321 322 323 321 319 317 317 317 316 316 315 315 314 314
300 300 300 301 301 301 300 300 300 301 301 301 301 301 301 301 301 300 299 299 298 298 297 297 297 297 297 297 297 297 298 300 303 305 303 301 302 304 306 307 309 311 312 314 316 318 318 318 318 318 319 319 317 316 316 316 316 316 315 315 314 314 313
300 300 300 300 300 300 300 299 299 299 300 300 300 301 301 300 300 300 299 299 299 298 297 296 296 296 297 297 297 297 297 297 299 301 300 297 297 299 302 304 305 307 307 309 310 312 313 313 313 314 314 314 313 313 314 314 314 314 313 312 311 309 309

ECMWFFLT1_925_thetae_072.txt.gz
Theta_e
339 339 338 338 338 338 339 339 339 338 338 337 336 336 337 336 336 337 337 336 336 335 335 335 335 335 335 336 335 334 333 333 333 333 332 332 332 333 333 333 334 332 332 332 332 333 333 334 333 332 332 331 330 330 330 329 329 329 329 329 330 331 330
338 338 338 338 337 337 338 338 338 338 338 338 337 336 336 336 336 336 336 336 336 335 335 334 334 334 335 336 335 335 334 333 333 333 332 332 332 333 333 334 333 333 332 332 332 331 330 332 334 333 332 331 331 331 330 329 329 329 329 329 330 330 329
337 337 337 337 337 337 338 338 337 337 337 338 337 336 336 336 337 337 337 337 336 336 335 335 334 334 334 335 335 335 335 334 333 332 331 332 333 333 333 333 333 333 332 331 331 331 330 332 334 333 332 331 331 331 331 330 329 330 329 328 329 329 329
334 335 336 336 336 336 336 336 336 336 336 336 336 336 336 336 336 336 336 336 335 335 336 335 335 334 334 335 335 335 334 334 334 333 332 332 333 333 332 332 332 333 332 331 332 331 331 332 332 331 331 331 331 331 331 331 330 330 330 329 328 328 329
332 333 334 335 335 335 335 335 335 335 335 335 335 335 335 335 336 336 336 336 335 335 334 335 335 335 334 335 335 335 334 334 334 333 333 332 333 334 333 332 331 332 332 332 332 331 330 331 331 331 331 331 331 330 331 332 330 330 330 329 328 328 329
329 330 331 332 332 333 334 334 335 335 335 335 335 335 334 335 335 335 336 335 335 335 334 333 334 334 335 335 335 335 335 335 334 334 334 333 333 333 333 332 331 331 331 331 332 331 330 330 330 330 330 329 329 330 331 332 331 331 330 330 329 328 328
327 327 328 329 330 332 333 333 333 334 335 335 334 334 334 335 335 335 334 334 334 334 334 333 333 332 333 334 334 334 334 334 334 334 334 333 333 333 333 333 332 331 330 331 331 331 330 330 330 330 330 329 329 329 330 332 331 331 330 330 329 328 328
324 325 327 327 328 330 331 332 332 333 334 334 334 333 334 334 335 335 334 333 333 333 334 333 332 332 331 332 334 335 334 334 334 334 333 333 333 333 333 333 332 331 331 331 331 331 330 330 330 330 330 329 329 329 330 332 331 331 331 330 330 329 328
322 323 324 325 326 327 328 330 332 333 333 333 333 333 333 333 334 335 334 333 333 333 333 333 332 333 331 330 332 334 334 333 334 334 333 332 333 333 333 333 333 332 331 331 331 331 331 330 330 330 330 329 329 330 331 332 332 331 330 330 330 329 328
321 322 322 323 323 324 325 328 330 331 332 332 333 333 333 333 334 334 334 334 333 332 332 332 332 333 331 330 332 334 334 334 334 334 334 333 333 333 333 333 332 332 331 331 331 331 331 330 330 330 329 328 329 330 331 332 331 330 330 330 330 329 329
320 321 320 320 320 322 323 325 325 326 327 328 329 331 331 333 333 333 334 334 334 333 332 332 333 333 332 332 332 333 333 333 333 333 334 333 333 333 333 332 332 332 332 332 331 331 331 331 331 330 329 329 329 329 330 331 331 330 330 331 330 329 328
319 319 319 319 319 320 321 321 322 322 323 324 325 327 328 330 332 332 333 333 333 333 332 332 332 332 332 332 332 332 333 333 333 333 334 333 332 332 332 332 332 332 332 331 331 331 331 331 331 329 329 329 329 329 329 330 332 332 330 330 330 329 328
318 318 318 317 318 318 318 319 320 320 321 322 323 324 325 327 329 330 331 332 331 331 331 330 330 330 330 331 331 332 332 332 333 333 332 332 332 331 332 332 332 332 332 331 331 332 332 332 331 330 330 330 329 329 328 329 332 331 329 329 329 328 327
317 316 316 316 316 316 316 317 318 318 319 320 321 322 323 324 326 327 329 330 330 329 329 329 329 328 329 329 330 331 332 332 332 331 331 331 331 331 332 332 332 332 332 332 332 332 332 333 332 330 331 331 329 328 328 329 330 330 330 330 328 327 327
315 315 315 315 315 315 315 316 316 316 316 317 318 320 321 322 324 325 326 328 329 329 328 328 329 329 329 329 328 329 331 332 331 330 331 332 332 332 331 331 331 331 332 332 331 331 332 333 332 331 331 331 329 328 328 329 329 329 329 330 328 327 327
314 315 314 314 314 314 314 314 314 314 314 315 316 317 318 319 320 322 324 326 329 330 329 327 327 328 328 329 328 327 329 331 331 331 332 332 332 332 331 330 329 330 330 331 330 330 331 333 333 332 331 330 330 328 328 329 328 327 326 327 328 327 327
314 314 313 313 313 313 312 313 313 313 313 313 313 314 314 315 316 319 321 324 327 328 329 328 327 327 328 329 329 328 329 331 331 331 331 331 331 331 331 330 329 330 331 330 330 329 330 332 333 332 331 330 330 329 328 328 328 327 327 327 328 328 328
313 313 312 312 312 312 311 311 312 311 311 311 311 311 311 311 313 315 317 321 324 326 327 327 326 326 327 328 330 329 329 329 330 331 330 329 329 330 330 330 330 331 331 330 330 330 330 331 332 332 331 330 330 329 328 328 327 328 328 327 327 328 329
312 311 311 311 311 311 311 310 310 310 309 309 309 309 308 308 309 312 313 317 321 322 321 320 319 320 323 325 328 329 328 328 329 329 328 327 328 328 329 330 330 330 331 330 330 329 329 330 330 332 331 330 330 329 328 328 328 329 328 327 327 328 328
310 310 310 310 310 310 310 309 309 309 308 308 308 307 306 306 307 308 309 312 316 316 314 315 315 316 318 320 323 326 328 328 329 329 328 327 328 329 328 329 330 330 330 331 330 329 329 330 330 331 331 330 330 330 328 328 329 329 328 327 327 328 327
310 310 309 310 310 309 309 308 308 308 308 307 307 306 305 305 305 305 305 307 311 311 310 309 309 310 313 316 319 322 325 327 328 329 328 328 328 329 328 328 328 329 329 330 331 330 330 330 330 330 330 330 331 331 329 328 328 328 328 327 327 327 326
309 309 309 309 309 309 308 308 307 307 307 306 306 306 305 304 304 304 303 304 306 308 305 303 303 305 307 311 314 318 322 324 327 328 328 328 329 328 328 328 327 328 329 330 331 331 330 330 329 329 330 331 331 330 328 327 327 327 327 326 327 327 325
308 308 308 308 308 308 308 307 307 307 307 306 306 305 305 304 304 303 302 302 303 304 302 299 300 303 305 307 310 314 318 321 325 327 328 328 328 328 329 329 329 329 330 330 330 331 331 330 329 329 331 331 331 330 328 326 326 327 327 326 327 327 325
307 307 307 307 307 307 307 307 307 307 307 306 306 305 304 304 304 303 302 301 301 302 300 298 299 301 304 306 308 311 314 318 321 324 326 328 328 327 328 329 330 330 330 329 329 329 330 330 330 330 331 331 331 331 329 326 326 327 327 327 327 327 325
307 307 306 306 306 306 306 306 306 306 306 306 306 305 305 304 304 303 302 302 301 301 300 298 298 300 302 304 306 309 312 315 318 321 324 326 327 327 327 328 330 330 329 328 328 328 329 330 330 330 330 331 330 331 329 328 327 327 327 327 327 327 325
306 306 306 305 305 305 305 305 305 305 305 305 305 305 305 304 304 303 302 302 301 301 299 298 298 299 300 303 305 308 311 314 316 319 322 323 325 327 328 329 329 329 330 330 330 329 329 330 330 330 330 330 330 329 329 329 328 328 328 327 327 327 326
305 305 305 305 305 304 304 304 304 304 304 304 304 304 304 304 304 303 302 301 301 301 300 298 298 298 299 301 304 307 310 313 315 317 320 322 324 325 326 327 328 328 328 329 330 330 330 330 330 330 329 328 328 329 329 328 328 328 327 327 326 326 326
305 305 304 304 304 304 304 304 304 304 304 303 303 303 303 303 303 303 302 301 301 301 300 298 297 297 298 300 303 306 310 312 313 315 318 320 322 323 324 326 326 327 327 328 328 328 329 329 330 329 328 327 327 328 328 328 328 328 327 327 326 326 326
304 304 304 303 303 303 303 303 303 303 303 303 303 303 303 302 302 301 301 301 300 300 299 298 297 297 297 299 302 305 307 309 311 314 316 318 320 323 324 325 326 326 327 327 327 327 327 328 329 328 326 325 326 326 326 327 327 328 328 327 327 327 327
303 303 303 303 303 302 303 303 302 302 303 303 302 302 302 302 301 300 300 300 299 299 298 297 297 297 297 297 299 301 302 304 307 311 312 314 318 322 324 325 325 326 326 326 326 326 326 326 327 326 325 325 325 324 324 325 326 327 327 327 327 327 328
302 302 303 303 302 301 301 302 302 302 302 302 302 302 302 301 301 300 300 299 299 298 298 297 297 297 297 297 297 297 298 300 302 306 309 311 315 318 321 323 324 325 326 326 326 326 326 326 325 325 325 326 324 322 322 324 325 326 327 327 327 327 328
301 301 302 302 301 300 300 300 301 301 301 301 302 302 301 301 301 300 300 299 299 298 297 297 297 297 297 297 297 297 297 297 299 302 305 307 310 312 313 316 319 322 323 325 326 326 325 324 324 324 326 326 323 321 322 323 324 325 325 325 325 326 327
301 300 300 301 301 300 299 299 300 300 301 301 301 301 301 301 300 300 300 299 299 298 297 296 296 297 297 297 297 297 297 296 297 299 300 301 304 306 307 309 312 315 317 320 323 324 324 324 323 323 325 325 322 321 321 322 323 324 322 322 323 323 323
300 300 300 300 300 299 298 298 299 299 300 300 300 301 300 301 301 300 300 299 299 298 297 296 296 297 297 297 297 297 297 297 297 297 297 297 298 300 301 303 305 308 310 314 318 321 321 322 323 322 324 324 323 322 322 321 321 320 319 320 320 319 318
300 300 300 299 299 299 299 298 298 298 299 300 299 299 300 300 300 300 299 299 299 298 297 297 296 296 297 297 297 297 297 297 297 297 297 296 296 297 298 300 302 303 306 309 314 317 318 318 320 320 321 322 323 323 322 320 319 317 317 318 317 315 314
300 300 299 299 299 299 299 298 298 298 298 298 298 298 299 299 300 299 298 298 298 298 298 297 296 296 296 297 297 297 297 297 297 297 296 296 296 296 296 298 300 302 303 304 308 313 314 315 316 318 320 321 322 321 319 318 317 316 316 315 314 313 312
300 300 300 299 299 299 299 298 298 298 298 298 298 297 298 298 298 298 298 298 297 297 297 297 297 296 296 296 297 297 297 298 298 297 296 296 295 295 296 297 298 300 302 301 302 306 310 311 312 315 318 319 319 318 317 316 315 315 313 311 309 309 308

ECMWFFLT1_925_thetae_075.txt.gz
Theta_e
334 335 336 336 337 337 337 337 336 335 334 335 336 335 335 336 336 337 337 336 336 336 336 335 335 335 335 334 334 335 335 334 334 332 331 332 332 331 331 331 331 331 331 332 332 333 336 337 333 331 332 331 331 331 331 330 329 330 329 329 330 330 331
331 332 333 334 335 335 335 336 336 336 334 334 335 335 334 335 335 336 336 336 336 336 336 336 336 335 335 335 335 335 335 335 335 333 332 331 332 332 331 331 331 332 332 332 332 331 333 336 335 333 331 331 332 331 331 329 329 330 329 329 329 329 330
329 329 330 331 331 332 333 333 334 334 335 334 335 334 334 334 334 334 335 336 336 336 336 336 336 335 334 335 335 335 335 335 334 334 333 332 331 331 332 331 331 332 333 331 331 331 331 332 333 333 330 330 331 331 331 330 329 329 328 328 329 329 329
326 326 327 329 329 330 331 331 331 331 332 333 334 334 333 333 333 333 334 335 335 335 335 335 335 335 335 334 334 334 335 334 334 334 334 333 332 331 331 332 332 332 332 331 330 331 331 330 331 332 330 330 330 330 331 330 329 329 328 328 329 329 330
323 324 325 327 328 328 329 329 330 330 331 332 333 333 333 333 333 333 334 334 334 334 334 333 334 334 334 333 333 334 334 334 334 334 334 333 332 331 331 332 332 332 332 332 331 331 331 330 330 330 329 330 331 330 330 330 330 330 329 329 329 329 329
321 322 323 325 325 326 325 326 328 330 331 332 332 332 333 333 333 333 333 334 334 334 333 333 333 333 332 332 332 333 333 332 333 334 334 333 331 330 331 331 332 331 331 332 332 331 332 331 330 330 329 329 330 330 330 330 330 330 329 329 329 329 329
321 321 321 321 322 322 323 324 326 327 328 328 329 328 329 330 331 331 332 333 333 333 332 332 333 333 332 332 332 332 331 331 331 332 334 333 331 331 330 330 331 331 330 331 332 331 331 331 331 331 330 329 329 329 329 329 329 329 328 329 329 329 329
321 320 319 318 318 319 321 322 323 323 323 324 324 324 325 326 327 329 331 331 331 332 332 332 331 331 331 331 331 331 331 331 331 331 332 333 333 332 331 331 332 332 330 330 331 331 331 331 331 331 330 330 330 329 329 329 328 328 328 329 329 329 329
318 317 317 317 317 317 318 319 319 320 320 321 322 322 323 323 324 326 327 328 330 331 331 332 331 330 330 330 330 331 331 331 331 330 330 331 331 332 332 332 332 332 331 331 331 331 331 331 331 331 330 330 331 331 330 329 329 329 328 329 329 329 328
316 316 316 316 316 315 316 316 316 317 317 318 319 320 321 321 322 324 324 326 328 329 330 330 330 330 330 330 330 331 331 331 330 329 328 328 328 330 331 331 330 331 331 331 331 330 331 331 331 330 330 330 330 330 331 330 329 328 328 329 329 329 328
315 315 315 315 314 314 315 315 315 315 315 315 316 317 318 320 321 322 323 325 326 327 328 329 329 329 329 329 329 330 330 331 330 330 329 328 328 329 329 328 328 329 330 331 332 332 331 330 330 329 330 330 329 328 329 331 330 328 328 329 330 329 329
314 314 313 313 312 313 313 313 314 313 313 313 314 314 315 316 317 319 321 323 324 326 328 329 329 328 328 328 328 328 329 329 329 329 329 328 329 329 329 328 328 328 330 332 332 331 330 330 330 329 330 330 329 327 327 329 331 330 328 330 330 330 329
313 313 312 312 311 312 312 312 312 312 311 312 312 312 313 313 314 316 318 321 323 324 325 327 328 328 328 328 328 328 328 328 328 329 329 329 329 330 330 330 329 329 331 332 330 329 329 330 330 329 330 330 330 329 328 327 330 330 328 329 329 329 329
312 311 311 311 311 311 310 311 311 310 310 310 310 310 310 310 311 313 316 319 319 317 318 320 322 323 323 324 326 327 328 328 328 328 328 328 330 331 330 330 329 329 330 331 330 329 330 331 330 329 330 330 329 329 328 328 329 329 328 328 328 328 328
310 310 310 310 310 309 309 309 309 309 308 308 308 307 307 307 308 309 312 314 313 312 312 314 315 317 317 319 321 324 326 328 328 329 328 328 329 330 330 330 330 329 330 331 332 332 331 331 330 329 329 330 329 328 328 328 328 328 328 328 328 328 328
310 310 310 310 309 308 307 308 308 307 307 306 306 305 305 305 306 307 308 310 309 308 309 310 312 312 313 315 317 320 323 326 327 328 328 328 328 329 329 330 330 330 330 332 332 332 331 330 330 330 330 330 330 329 329 329 328 328 328 327 327 327 327
309 309 309 309 308 308 307 307 307 306 306 305 305 305 304 304 304 304 305 306 306 305 305 307 308 308 309 310 312 315 319 321 324 326 327 328 328 329 330 330 331 331 330 331 331 331 331 330 331 331 331 331 330 330 329 329 328 328 328 327 327 327 327
309 309 309 308 308 307 307 307 307 306 305 305 305 304 304 303 303 303 303 304 305 303 301 301 302 304 305 306 309 312 315 317 320 323 326 327 328 328 329 330 330 330 330 329 329 329 330 330 331 332 332 331 330 329 329 328 328 328 329 327 327 327 327
307 307 307 307 307 307 307 307 307 306 305 305 305 304 304 303 303 303 302 302 303 302 299 299 299 300 301 304 306 309 312 315 318 320 323 326 327 328 329 329 328 328 329 328 328 328 329 329 329 330 330 329 328 329 329 328 327 327 328 327 326 327 326
306 306 306 306 306 306 306 306 307 307 306 305 305 304 304 303 303 302 302 301 302 301 299 298 298 298 299 300 302 305 308 312 315 318 320 323 326 328 328 328 328 327 328 328 328 328 328 327 327 328 328 328 329 329 328 328 327 327 327 327 326 326 326
306 305 305 305 305 305 305 305 305 306 306 306 305 305 304 303 303 302 301 301 301 300 299 298 298 298 298 299 300 303 306 308 312 316 319 321 324 326 327 327 327 327 327 327 328 328 328 327 328 328 328 329 330 329 327 327 327 326 327 327 326 326 326
305 305 305 304 304 304 304 304 304 304 304 304 304 305 304 304 303 302 301 301 301 300 298 297 297 297 297 297 298 301 305 307 310 313 316 319 321 325 327 327 327 327 327 327 327 327 328 328 328 328 328 327 329 330 328 326 327 327 326 327 326 325 325
304 304 304 304 303 303 303 303 303 303 303 303 303 303 303 303 303 302 301 300 301 300 298 297 297 297 297 297 298 301 305 307 309 311 312 315 319 322 324 326 327 327 327 327 327 326 327 327 327 327 326 326 328 329 327 325 326 326 326 326 326 325 325
304 304 304 303 303 303 302 303 303 303 302 302 302 302 302 302 302 301 300 300 300 300 298 297 297 297 298 298 298 300 302 304 307 309 310 313 317 320 321 324 326 326 326 327 328 327 327 327 327 327 326 326 327 328 327 326 325 325 326 326 326 325 325
303 303 303 303 303 302 302 302 303 303 302 302 302 301 301 300 300 300 300 299 299 299 298 297 297 297 298 299 299 299 300 302 305 307 310 313 316 318 320 321 323 325 326 327 328 328 328 328 328 328 327 326 327 328 328 327 326 326 325 325 325 325 325
303 301 300 301 302 302 302 302 302 302 302 301 301 301 300 300 300 300 299 299 298 298 297 297 297 297 297 298 299 298 299 300 302 304 307 311 313 315 318 320 322 324 325 326 326 326 327 327 327 328 327 327 327 328 328 327 327 327 326 325 325 326 326
301 299 298 299 300 301 301 301 302 302 302 301 301 300 300 300 300 299 299 299 298 297 297 296 297 297 297 298 298 298 298 298 299 301 304 306 308 309 311 314 318 321 324 325 325 325 326 326 326 326 326 327 327 327 328 328 328 327 326 325 325 326 326
300 299 298 298 298 299 300 300 301 301 302 301 300 300 300 300 300 299 299 298 298 297 297 296 297 297 298 298 297 297 297 297 298 299 300 302 303 304 304 307 311 316 320 323 325 325 326 326 326 325 324 325 326 327 326 327 328 327 327 326 325 326 327
300 299 298 298 298 298 299 299 300 301 301 301 300 300 300 300 299 299 299 298 298 297 296 296 296 297 297 298 297 297 296 297 298 298 298 299 300 300 301 302 305 310 314 318 321 323 324 325 326 325 324 324 325 326 326 327 327 327 327 326 326 327 327
300 299 298 298 297 297 298 299 299 299 299 300 300 300 300 299 299 299 299 298 298 297 296 296 296 296 297 297 297 297 296 297 297 297 297 297 298 298 299 300 302 305 309 312 317 320 322 324 325 326 325 324 324 325 326 327 327 327 327 327 327 327 327
300 299 298 298 297 297 297 298 298 298 298 298 299 299 299 298 298 298 298 298 298 297 297 296 296 296 296 296 296 296 296 296 297 297 297 297 296 297 297 298 300 302 305 307 312 317 320 322 324 325 325 324 323 323 325 326 326 326 327 327 327 327 326
300 299 298 297 297 297 297 297 297 297 297 297 297 298 298 297 297 297 297 297 297 297 296 296 296 296 295 295 295 296 295 295 296 297 296 296 296 296 296 297 299 300 302 305 309 314 317 319 321 324 325 324 323 323 324 325 325 325 326 326 326 326 326
299 299 298 297 297 297 297 297 297 296 296 296 296 297 297 296 296 297 297 296 296 296 296 296 296 296 296 295 295 295 295 294 295 296 296 295 295 295 295 296 297 299 301 303 305 309 314 316 319 321 323 323 324 324 324 324 324 324 324 324 325 325 325
299 299 299 297 297 297 297 297 297 296 296 295 295 296 296 296 296 296 296 296 295 295 295 295 295 296 296 295 295 295 294 294 294 295 295 294 294 294 294 295 296 297 300 301 303 305 309 312 316 318 320 321 323 323 324 323 322 321 321 321 322 322 323
299 299 299 298 297 297 296 297 297 296 296 295 295 295 295 295 296 295 295 294 295 294 294 294 295 296 296 296 296 295 294 294 294 294 294 294 293 293 293 294 295 296 298 300 301 302 304 307 311 313 316 320 322 323 323 321 319 318 318 318 318 316 316
299 299 299 299 297 297 296 296 296 296 296 295 295 294 294 294 295 295 294 294 294 294 294 294 295 296 296 296 296 295 295 294 294 294 293 293 293 293 293 293 294 296 298 298 298 300 301 303 305 307 312 318 321 321 320 318 317 316 315 314 312 310 309
299 299 299 299 298 297 297 296 296 295 295 295 294 294 294 294 294 294 294 293 293 294 294 294 294 295 296 296 296 296 295 295 294 294 293 293 293 292 292 293 295 296 297 297 297 298 299 299 301 303 307 312 316 318 317 316 316 315 312 310 308 307 306

ECMWFFLT1_925_thetae_078.txt.gz
Theta_e
328 328 330 330 331 331 332 332 332 332 332 333 333 334 334 334 333 333 334 334 335 336 335 335 335 334 334 334 334 334 334 333 333 333 332 332 331 331 331 331 331 331 330 330 330 331 334 335 332 331 332 332 331 331 331 331 331 331 331 330 330 330 331
325 326 327 328 328 329 329 329 330 331 331 332 332 333 333 333 333 332 333 333 334 334 334 334 335 335 334 333 333 333 333 333 333 333 332 331 331 330 331 331 331 331 330 330 330 329 331 333 334 333 332 331 332 331 330 331 331 331 330 330 330 329 330
323 324 325 325 325 326 326 326 328 329 330 331 331 332 331 331 332 332 332 332 333 332 333 334 333 333 333 332 332 331 330 331 331 331 331 330 330 330 330 330 329 329 330 330 330 329 329 330 332 332 330 330 331 331 331 331 331 331 331 330 329 329 330
322 322 322 322 322 324 324 325 326 325 326 327 328 328 328 328 329 330 331 332 332 332 332 332 332 331 331 331 331 331 331 330 329 330 330 329 329 329 329 330 329 328 329 330 330 330 330 330 331 331 329 329 330 330 330 331 331 331 330 330 329 329 329
319 318 319 319 320 321 322 323 323 322 322 323 324 325 325 325 325 327 329 329 330 331 331 331 331 331 330 330 330 331 332 330 330 330 329 329 329 328 328 328 329 329 329 330 330 330 330 330 331 331 329 329 330 330 330 330 331 331 330 329 329 329 329
317 316 316 317 317 319 320 320 320 320 320 321 321 322 322 323 323 324 326 326 328 329 329 330 330 330 330 330 330 330 330 330 330 330 329 329 329 328 328 328 328 328 329 329 330 330 330 330 330 330 329 329 330 330 329 330 330 330 329 329 328 328 329
317 316 315 315 315 316 317 317 317 317 318 318 319 319 320 321 321 323 324 324 326 327 328 329 329 329 329 329 329 329 329 330 329 330 330 329 329 329 329 328 328 328 328 329 330 330 330 329 328 329 329 329 328 328 329 330 329 329 329 329 329 329 329
315 314 314 314 314 314 314 314 314 314 315 315 316 316 317 318 319 321 322 323 324 325 326 327 328 329 329 329 329 328 328 329 329 329 330 329 329 329 329 328 328 328 328 328 329 330 330 329 328 328 329 330 330 328 328 329 329 329 329 329 329 329 329
312 312 312 313 313 313 313 312 312 312 312 312 313 314 315 316 317 319 321 321 322 323 324 325 326 327 328 328 329 328 328 328 328 329 329 329 329 329 329 328 328 328 328 328 328 328 329 329 329 329 328 329 330 330 329 329 328 328 329 329 329 329 329
311 311 311 311 312 312 311 310 310 310 310 310 311 312 313 314 315 318 318 316 316 318 320 321 323 325 326 326 327 327 327 327 328 328 328 328 329 329 329 328 328 328 328 328 328 328 328 329 329 330 329 328 329 330 331 330 329 328 328 328 328 328 328
311 310 309 310 310 310 310 309 308 308 308 308 308 310 311 312 313 315 314 311 312 314 316 317 318 320 321 322 323 324 325 326 327 327 327 328 328 328 328 328 328 328 328 328 328 329 329 329 329 330 330 329 328 329 329 330 330 328 327 329 328 328 328
310 308 308 308 309 309 308 307 306 306 305 306 306 307 308 309 310 311 310 309 310 311 312 313 314 316 317 317 318 320 322 323 324 325 326 327 327 327 328 328 328 328 328 328 328 328 328 329 329 329 330 329 329 328 328 328 330 329 327 328 329 329 328
308 307 307 307 308 307 307 305 305 304 304 304 304 305 305 306 307 307 307 308 309 309 309 310 310 311 313 314 314 316 318 320 321 322 323 325 327 328 328 328 328 328 329 329 328 328 328 328 328 329 329 329 329 329 328 327 328 329 328 328 328 328 329
308 307 307 307 307 307 306 305 304 304 304 304 303 304 303 303 304 305 305 305 305 305 306 306 307 307 309 310 311 313 315 318 319 319 320 322 324 326 328 328 328 328 329 329 329 329 328 328 329 329 329 329 329 329 328 327 326 327 327 328 328 328 328
308 307 307 307 307 306 306 305 305 304 304 303 303 303 302 302 302 303 304 304 302 302 302 303 303 304 304 306 307 309 311 313 315 317 318 319 321 323 325 327 328 328 329 329 329 329 328 328 329 329 329 329 329 329 328 328 326 326 327 327 328 328 328
307 307 307 307 307 307 306 306 305 304 304 303 303 302 302 301 301 301 302 302 301 299 299 300 300 300 301 302 303 305 307 308 309 312 314 316 319 320 322 325 327 328 328 329 329 329 329 329 329 328 328 328 328 329 329 328 327 327 327 327 327 328 328
305 305 305 306 306 306 306 306 305 305 304 304 303 302 302 301 301 301 301 301 300 299 298 298 298 298 299 299 299 301 303 305 307 308 310 313 316 318 320 322 325 327 328 329 329 329 329 329 329 329 328 328 328 328 328 328 328 327 327 327 327 327 327
304 304 304 304 304 304 305 305 305 305 305 304 303 302 302 301 300 300 301 300 299 298 297 297 297 297 297 297 297 298 300 302 304 306 308 310 312 315 317 320 323 325 327 328 328 328 328 328 329 329 329 328 328 328 328 328 328 328 328 327 327 327 327
303 303 303 303 303 303 303 303 303 304 304 303 303 302 301 300 300 300 300 300 299 298 297 297 297 297 297 297 297 297 297 299 302 304 306 308 310 312 314 317 321 323 325 327 327 327 327 327 328 329 329 329 328 328 328 328 328 328 328 328 328 327 327
303 303 303 303 303 302 302 302 302 302 302 301 301 301 301 300 299 299 299 299 299 298 297 297 297 297 297 296 296 297 297 298 300 302 304 307 309 310 312 315 319 321 323 326 327 327 327 327 327 328 328 328 329 328 328 328 328 328 328 328 327 327 326
302 302 302 303 303 302 302 301 301 301 300 300 300 300 300 300 299 299 298 298 298 297 297 297 296 296 296 296 296 296 297 298 300 301 303 305 308 310 312 314 317 319 321 323 325 326 326 326 326 327 327 327 328 328 328 327 328 328 328 327 326 326 326
302 302 302 302 302 302 302 301 300 300 300 300 300 300 299 299 299 298 298 298 297 297 296 296 296 297 296 296 296 296 297 298 299 301 302 304 306 309 310 311 314 316 319 321 323 324 326 325 325 326 326 327 327 327 327 326 326 327 327 326 325 325 325
302 302 302 301 302 302 302 301 300 300 300 300 299 299 299 299 298 298 297 297 297 296 296 296 296 297 297 296 296 296 297 298 299 300 301 302 304 305 305 307 310 313 316 319 320 322 324 325 325 325 326 326 326 326 327 326 326 326 326 325 325 324 324
300 300 300 301 301 301 302 301 300 300 300 300 299 299 298 298 298 298 297 297 296 296 296 295 296 297 298 297 296 296 297 297 298 299 300 300 301 301 302 303 306 310 313 314 316 319 322 324 325 325 325 326 326 326 327 326 326 325 325 325 325 325 324
299 299 300 300 300 301 301 301 300 300 300 299 299 299 298 298 298 298 297 297 296 296 296 295 296 296 298 298 297 296 296 297 298 298 299 299 299 299 300 301 302 305 308 310 312 315 317 319 321 323 325 325 325 325 326 326 325 325 325 325 325 325 325
298 299 299 299 299 300 300 300 300 300 299 298 298 298 298 298 298 297 297 297 296 296 296 296 295 296 297 298 298 296 296 297 297 297 298 298 298 298 298 299 300 302 305 307 308 310 311 314 317 319 322 324 324 325 325 326 326 325 325 325 325 325 325
297 298 297 297 297 298 298 299 299 299 298 297 297 297 297 297 297 297 296 296 296 295 296 296 295 295 296 297 297 296 296 296 297 297 297 297 297 297 297 298 299 299 301 303 304 305 307 311 314 317 320 322 324 325 325 325 325 325 325 325 325 325 325
296 296 296 295 295 295 296 296 297 297 296 296 296 296 296 297 297 296 296 296 295 295 295 296 296 295 295 296 296 295 295 295 296 296 296 296 296 296 296 297 297 297 298 300 301 302 304 307 312 316 318 321 323 324 324 325 325 325 325 325 325 325 325
296 296 296 295 295 295 295 295 295 295 295 296 296 295 295 295 296 296 295 295 295 295 295 296 296 295 295 295 295 294 294 294 295 296 296 295 295 295 295 296 296 295 295 297 299 301 303 306 310 314 316 320 323 324 324 324 324 324 325 325 324 324 325
296 296 296 296 295 295 295 295 295 295 295 295 295 295 295 294 294 294 294 294 294 294 295 295 296 296 295 295 294 294 294 294 294 295 295 295 294 294 294 295 295 294 294 295 298 300 302 305 308 311 313 317 321 324 324 324 324 323 323 324 325 324 324
296 296 296 296 296 296 295 295 295 295 294 295 295 294 294 294 293 294 294 294 294 294 294 295 296 296 296 295 294 294 293 293 293 294 294 294 294 293 293 294 294 293 293 294 296 299 301 303 305 307 309 312 318 323 324 324 324 323 322 323 324 324 324
296 296 296 296 296 296 295 295 294 294 294 294 294 294 294 293 293 293 293 293 293 294 294 294 295 296 296 295 294 294 293 293 293 293 294 294 294 293 293 293 293 293 293 293 295 297 300 301 303 304 305 307 313 319 323 323 324 323 322 323 324 324 324
296 296 296 296 296 296 295 295 294 294 294 294 293 293 293 293 293 293 293 293 293 293 293 294 295 295 296 296 295 294 294 293 293 293 293 293 293 293 292 293 292 292 293 293 294 296 298 300 301 302 303 304 307 314 320 322 322 323 322 323 324 324 323
297 296 296 296 296 295 295 295 294 294 294 293 293 293 293 292 292 292 292 292 292 293 293 294 294 295 296 295 295 294 294 293 293 293 293 293 293 292 292 292 292 292 292 293 293 294 296 298 299 300 301 302 306 312 317 319 320 321 321 321 321 321 320
297 297 296 296 296 295 295 295 294 294 293 293 293 293 292 292 292 292 292 292 292 292 293 294 294 295 296 295 295 294 294 293 293 293 292 292 292 292 292 292 292 292 292 293 293 293 294 296 298 298 300 304 308 314 317 318 319 319 318 317 318 318 317
298 297 297 296 296 295 295 295 294 294 293 293 293 293 292 292 292 292 292 292 292 292 293 294 295 295 296 295 295 294 294 293 293 293 292 292 292 291 291 291 292 292 292 293 293 293 293 295 295 297 299 303 307 312 315 316 317 316 315 315 314 313 312
298 297 297 297 296 295 295 295 294 294 293 293 293 293 292 292 292 292 291 291 292 293 294 295 295 296 296 295 295 295 294 293 293 292 292 292 291 291 291 291 292 292 293 293 293 293 293 294 294 295 297 300 302 305 307 309 311 311 310 309 308 307 306

ECMWFFLT1_925_thetae_084.txt.gz
Theta_e
323 322 322 323 323 323 323 322 322 322 322 322 323 324 325 325 326 328 328 329 329 329 329 329 329 330 330 330 330 330 330 330 330 330 330 330 330 330 330 329 329 329 329 329 328 328 329 329 328 327 328 328 329 329 330 330 330 330 330 330 330 330 329
321 321 321 321 321 321 321 320 320 320 320 320 321 321 322 323 324 325 325 326 326 326 327 328 328 329 329 329 329 329 329 329 329 329 329 330 330 330 330 330 329 329 329 329 328 328 328 328 329 327 328 328 328 328 329 329 330 330 331 330 330 330 330
320 320 320 320 319 319 319 318 317 317 317 318 318 319 320 320 321 322 322 322 322 323 324 325 326 327 327 328 329 329 329 329 329 328 328 328 329 330 330 329 329 329 329 328 328 328 328 328 328 328 328 328 328 328 328 328 329 330 330 331 331 331 330
317 318 318 318 317 316 316 315 315 315 315 315 315 316 317 317 318 319 319 319 319 319 320 321 322 323 324 326 327 327 328 328 328 328 328 328 328 329 329 329 329 329 329 329 329 329 328 328 328 328 328 328 328 328 328 328 328 329 330 331 331 331 331
314 314 314 313 313 313 312 312 313 313 313 313 313 314 314 314 314 315 315 316 316 316 316 316 317 319 320 322 323 324 325 326 326 327 327 328 327 328 328 328 328 328 328 329 329 328 328 328 328 328 328 328 328 328 328 328 328 328 329 330 331 331 330
312 312 311 310 310 310 310 310 310 310 310 310 311 311 311 311 312 312 312 313 312 312 313 313 314 315 316 318 319 320 321 322 323 323 325 326 326 327 326 326 327 327 327 328 328 328 328 328 328 328 328 328 328 328 328 328 328 328 329 329 330 330 330
311 310 309 308 308 308 308 308 308 308 308 308 308 309 309 310 310 310 310 310 310 310 310 311 311 312 313 314 315 316 316 317 319 320 321 323 324 325 325 326 326 326 326 327 327 327 327 328 328 328 328 328 328 328 328 328 328 328 328 329 329 329 329
309 307 307 306 306 306 307 307 307 307 307 306 307 308 309 309 308 308 308 308 308 308 308 308 309 309 310 311 312 313 313 314 315 316 317 319 320 321 323 324 324 325 325 325 326 326 326 326 327 327 327 329 329 329 329 328 328 328 328 329 329 329 330
307 306 305 305 304 305 305 305 305 305 305 305 307 308 308 308 306 306 306 306 306 306 306 306 306 306 307 308 309 311 311 312 312 313 313 313 315 317 319 320 322 323 324 324 325 325 325 325 326 327 327 328 329 329 330 329 329 328 328 328 328 329 329
305 305 304 304 304 303 303 303 303 303 303 304 304 306 307 306 304 304 304 304 304 304 304 304 304 304 305 305 306 307 306 307 308 309 308 308 310 311 313 315 317 319 321 323 324 324 325 325 326 327 328 327 328 329 330 330 330 329 328 327 328 328 328
305 305 304 304 303 303 302 302 302 302 302 302 302 303 304 303 302 302 302 302 302 302 302 302 303 303 304 305 305 304 303 303 304 304 304 304 305 306 307 309 311 313 316 318 321 322 323 323 324 326 328 327 327 328 329 329 330 328 328 327 327 328 328
305 305 304 304 304 303 301 301 300 300 300 300 301 301 301 301 300 300 301 301 301 301 301 301 302 302 303 303 302 301 300 300 301 301 301 301 302 303 303 305 307 309 311 313 315 318 321 322 322 324 325 326 327 327 327 328 330 329 328 328 328 328 328
305 305 305 305 304 303 301 300 299 299 299 299 299 299 299 299 298 298 299 299 299 299 299 299 300 301 302 301 298 298 298 299 299 300 300 301 301 302 302 303 305 306 308 309 311 313 316 319 321 322 323 324 325 326 326 327 329 329 328 328 327 327 328
306 306 305 305 304 303 302 300 299 299 298 298 298 298 299 298 297 297 297 297 297 297 297 297 298 299 299 298 296 297 297 298 299 299 300 301 301 301 302 303 304 305 306 307 309 311 313 316 319 320 321 323 324 325 326 327 328 329 328 328 327 327 327
305 305 305 304 303 302 301 300 299 299 298 298 298 297 297 297 297 296 296 296 296 296 296 296 296 297 296 295 295 296 297 297 298 299 299 300 301 301 302 303 304 304 305 307 308 309 310 312 313 314 316 319 322 323 325 327 327 328 328 328 328 327 327
304 303 302 302 301 300 299 299 298 298 298 297 297 297 296 296 296 296 295 295 295 295 295 295 295 295 295 295 295 295 296 297 297 298 299 299 300 301 301 302 303 303 304 306 307 307 307 307 307 308 310 312 315 319 322 326 327 327 328 328 328 328 327
301 300 300 299 299 299 298 298 298 297 297 297 297 296 296 296 296 296 295 295 295 295 295 295 295 295 295 294 295 295 296 297 297 298 298 298 299 299 300 301 301 301 302 304 305 304 303 303 303 304 305 306 308 311 316 321 325 326 327 327 328 328 327
299 299 299 299 299 298 298 298 297 297 297 297 296 296 296 296 296 295 295 295 295 295 294 294 294 295 294 294 295 295 296 296 297 297 297 297 297 297 298 299 300 300 301 302 303 302 301 301 301 301 302 302 303 305 308 313 319 324 326 326 327 327 327
299 299 299 299 298 298 298 298 297 297 296 296 296 296 296 296 295 295 295 295 295 294 294 294 294 294 294 294 295 295 295 296 296 297 297 296 296 296 297 298 298 299 299 301 302 300 299 299 299 299 299 299 300 301 303 307 312 318 323 325 326 326 327
300 300 299 299 298 298 298 297 297 296 296 296 295 295 296 296 296 295 295 295 295 295 294 294 294 294 294 294 294 294 295 295 295 296 296 296 296 296 296 297 297 297 298 300 300 299 298 298 297 297 297 297 298 298 300 302 306 311 318 323 326 326 326
300 299 299 299 298 298 297 297 296 296 296 295 295 295 296 296 296 296 295 295 295 295 294 294 294 294 294 294 294 294 294 294 294 294 295 295 295 295 296 296 295 296 297 299 299 298 297 296 296 296 296 296 296 297 298 299 302 306 312 319 324 326 326
299 299 298 297 297 297 296 296 296 296 296 295 295 295 296 296 296 295 295 295 295 295 294 294 293 293 293 293 294 294 294 294 294 294 294 294 295 295 295 295 295 295 296 297 297 296 295 295 294 294 294 294 295 296 296 297 299 302 307 314 321 324 326
299 298 297 296 295 295 295 294 294 295 295 295 295 295 295 296 295 295 295 295 295 295 294 293 293 293 293 293 293 293 293 293 293 293 293 294 294 294 294 294 294 295 295 296 295 295 294 293 293 293 293 294 294 295 295 296 298 300 304 310 316 321 325
299 297 295 294 294 294 293 293 293 293 294 294 294 295 295 296 295 295 295 295 295 295 294 294 293 293 293 293 292 293 293 293 293 293 293 293 294 294 294 294 294 294 295 295 295 294 293 292 292 293 294 295 295 294 295 296 297 299 302 307 312 318 323
296 295 294 294 293 293 292 292 292 292 293 293 294 294 295 295 295 295 295 295 295 294 294 294 293 293 293 293 292 292 292 292 293 292 292 292 293 293 293 293 293 294 294 294 294 293 293 292 292 293 295 296 296 296 295 296 297 299 301 304 307 312 318
294 294 294 293 292 292 292 291 291 292 292 292 293 293 294 294 294 294 295 295 295 295 294 294 294 293 293 292 292 292 292 292 292 292 292 292 292 293 292 293 293 294 293 293 293 293 292 292 292 292 294 295 296 296 296 296 296 298 299 302 305 308 313
294 294 293 293 292 292 291 291 291 291 292 292 292 292 292 293 294 294 295 295 295 295 294 294 294 293 293 292 292 292 292 292 292 292 292 292 292 292 292 292 293 293 293 292 292 292 292 292 292 292 293 294 294 295 296 296 297 297 299 301 303 306 310
294 293 293 293 292 292 291 291 291 291 291 291 291 291 292 293 293 294 295 295 295 295 294 294 294 293 292 292 292 292 292 292 292 292 291 291 291 291 291 292 293 292 292 292 292 292 292 291 292 292 292 293 294 294 295 296 296 296 297 299 300 303 307
294 293 293 293 292 292 291 291 291 291 291 292 292 292 293 293 294 294 295 295 295 295 294 295 295 293 292 292 292 292 292 292 291 291 291 291 291 291 291 292 292 292 292 292 292 292 292 292 292 292 292 293 293 293 294 295 296 296 297 298 301 304 307
294 294 293 293 293 292 292 291 291 291 292 292 293 293 294 294 294 295 295 295 295 295 295 295 294 292 291 292 292 292 292 291 291 291 291 291 291 290 291 292 292 292 291 292 292 292 292 292 292 292 292 293 293 293 294 295 296 298 299 301 305 308 310
294 294 293 293 293 292 292 291 291 291 291 292 293 293 294 294 294 294 295 295 295 295 295 294 293 291 292 292 292 292 292 292 291 291 291 291 291 290 291 291 292 291 291 291 292 292 292 292 291 292 292 292 292 292 293 294 296 298 300 303 307 311 312
294 294 293 293 293 292 292 291 291 291 291 292 292 293 293 293 294 294 294 294 294 294 294 293 292 291 292 292 292 292 292 292 292 291 291 291 291 291 291 291 291 291 291 291 292 292 292 292 291 292 292 292 292 292 293 294 296 298 299 302 306 308 310
294 294 294 293 293 292 292 292 291 291 291 291 292 292 292 293 293 293 293 293 293 293 293 292 291 291 291 292 293 293 292 292 292 292 291 291 291 291 291 291 291 291 291 291 292 292 292 292 291 292 291 291 291 292 292 294 296 297 298 300 301 302 304
294 294 294 293 293 293 292 292 291 291 291 291 291 292 292 292 292 292 293 293 293 292 292 292 291 291 291 291 292 293 292 292 292 292 292 291 291 291 291 291 291 291 291 291 291 292 292 292 292 291 291 291 291 292 292 294 295 296 297 298 299 299 300
294 294 294 294 293 293 293 292 292 291 291 291 291 291 291 292 292 292 292 292 292 292 292 292 291 291 291 291 292 292 292 292 292 292 292 291 291 291 291 291 291 291 291 291 291 292 292 292 292 291 291 292 292 292 292 293 294 295 296 297 297 298 298
294 294 294 294 294 293 293 293 292 292 292 291 291 291 291 291 291 291 291 291 291 292 292 292 292 292 291 291 291 292 292 292 292 292 291 291 291 291 291 291 291 291 291 291 291 291 292 291 291 291 292 292 292 292 292 292 293 294 294 295 296 297 297
294 294 294 294 294 294 293 293 292 292 292 292 292 291 291 291 291 291 291 291 291 291 292 292 292 292 292 291 291 291 292 292 292 291 291 291 291 291 291 291 291 291 291 291 291 291 291 291 291 291 292 292 292 291 291 292 292 292 293 293 294 295 296

ECMWFFLT1_925_thetae_087.txt.gz
Theta_e
324 322 321 320 320 320 320 320 319 319 320 320 321 321 321 321 321 322 323 323 324 325 325 325 326 327 328 328 328 327 327 328 329 329 329 328 328 329 329 329 329 328 329 329 328 329 328 328 328 328 328 329 329 330 330 331 331 331 331 331 330 330 330
320 318 318 317 317 317 317 317 317 317 317 317 318 317 317 317 318 318 318 318 319 319 320 320 321 323 325 326 326 326 327 328 328 328 329 328 328 328 327 328 328 328 329 328 328 330 329 328 327 328 328 329 329 330 330 331 331 331 331 332 331 330 330
316 315 314 314 314 314 315 314 314 314 314 314 314 314 314 314 315 315 315 315 315 315 316 316 317 318 320 321 322 323 324 325 326 326 327 327 328 328 327 327 327 328 329 328 329 330 329 329 328 328 329 329 328 329 330 330 331 331 331 332 332 331 331
313 312 312 311 311 312 312 312 312 312 312 312 312 312 312 312 312 313 313 313 313 314 314 314 315 315 316 317 318 319 320 321 322 323 323 324 325 326 327 327 327 328 328 328 328 328 328 328 328 328 328 328 328 329 328 329 329 330 331 331 332 332 332
310 310 310 310 310 310 310 310 310 310 310 310 310 310 309 309 310 310 310 311 311 311 311 311 312 313 314 314 315 316 316 317 318 319 320 320 321 322 324 325 327 328 328 327 327 328 327 328 328 328 328 328 328 328 328 328 329 329 329 330 331 332 332
308 308 308 308 308 308 308 309 309 309 309 308 309 308 307 307 307 306 306 306 306 306 306 307 308 309 310 311 312 312 313 314 314 315 315 315 316 317 318 320 322 324 326 326 327 327 327 327 328 327 327 328 328 328 328 328 328 329 329 330 330 331 331
307 306 306 306 306 306 306 307 307 307 307 307 307 307 305 304 303 303 303 303 303 303 304 304 305 305 306 307 308 308 309 309 310 311 311 311 311 312 313 314 316 318 321 324 325 325 326 327 327 327 327 327 327 328 329 328 328 328 329 330 330 330 331
306 305 305 304 304 304 305 305 305 305 305 306 306 304 303 302 302 302 302 302 302 302 303 303 304 304 304 305 305 304 305 305 306 306 307 307 307 308 309 309 311 313 316 318 320 321 323 324 325 325 326 326 327 327 327 327 328 328 329 329 330 330 331
305 304 304 303 302 303 304 304 304 304 304 304 304 302 301 301 300 300 300 300 300 301 301 301 301 302 302 302 302 302 302 302 303 303 304 304 305 305 306 306 307 309 311 312 313 315 317 319 321 323 324 325 326 326 326 327 328 328 328 328 329 330 330
305 304 303 302 302 303 303 303 303 303 303 303 303 301 300 299 299 298 298 298 298 299 299 300 299 299 300 301 301 301 301 301 302 302 303 303 304 304 305 305 306 307 308 309 310 311 313 314 317 319 321 323 323 324 326 327 326 327 327 328 328 329 330
305 304 304 303 303 302 302 302 302 302 302 302 301 300 299 298 297 297 297 297 297 297 298 298 298 299 299 300 300 301 301 301 302 302 302 303 303 303 304 304 305 306 307 308 308 310 311 312 314 316 318 319 320 321 324 325 325 326 327 328 328 328 329
306 305 304 303 303 302 302 301 301 301 301 300 299 299 298 297 297 297 296 297 296 296 296 296 297 297 298 299 300 300 300 300 301 302 302 302 303 303 303 304 305 305 306 307 308 309 310 311 311 312 313 313 315 316 319 321 323 324 326 327 328 328 328
306 305 304 303 302 302 301 301 301 300 299 298 298 298 298 297 297 296 296 296 296 296 296 296 296 297 297 298 299 299 299 300 300 301 301 301 301 302 303 303 304 304 305 305 307 308 308 308 307 307 308 309 310 312 313 314 317 319 322 325 328 328 328
304 303 302 302 301 301 300 300 300 299 298 298 297 297 297 297 297 296 296 295 295 295 295 295 296 296 297 298 298 298 299 299 300 300 300 300 300 301 301 302 303 303 303 303 305 306 306 305 304 305 305 306 307 308 308 309 311 313 316 320 324 327 328
302 301 301 301 300 300 300 299 298 298 298 298 297 297 297 297 297 296 296 295 295 295 295 295 295 296 296 297 298 298 298 299 299 299 300 300 300 300 300 301 301 301 301 302 303 304 304 303 302 302 303 303 304 304 305 306 307 309 311 313 318 322 326
301 301 301 300 300 300 299 299 298 298 298 298 297 297 297 296 296 296 296 295 295 295 295 294 295 295 296 297 297 297 298 298 298 299 299 299 299 299 299 300 300 300 300 301 302 303 302 301 301 301 301 301 302 302 302 303 303 305 307 309 312 316 321
300 300 300 300 299 299 299 299 298 298 298 297 297 297 297 296 296 296 296 296 295 295 295 295 294 295 295 296 297 297 297 298 298 298 299 299 299 299 299 299 299 299 299 299 300 301 301 300 299 299 299 299 300 300 300 300 301 302 304 306 309 312 316
300 300 300 299 299 298 298 298 298 298 297 297 297 297 297 296 296 296 296 296 295 295 295 295 295 295 295 296 296 296 297 297 297 298 298 298 298 298 298 298 298 297 298 298 299 299 299 298 298 298 298 298 298 298 299 299 300 301 302 304 305 308 312
300 300 299 299 298 298 298 298 297 297 297 297 297 297 297 296 296 296 296 296 295 295 295 295 294 294 295 295 296 296 296 296 297 297 297 297 297 297 297 297 297 297 297 298 298 297 297 297 297 296 296 297 297 297 297 298 299 300 301 302 303 305 309
299 299 298 298 298 297 297 297 297 297 297 297 297 296 296 296 296 296 295 295 295 296 295 294 294 294 294 295 295 295 296 296 296 296 296 296 296 297 297 296 296 296 297 297 297 296 296 296 295 295 295 296 296 296 297 297 298 299 300 301 303 304 307
298 298 298 297 297 296 296 296 296 296 296 296 296 296 296 296 296 295 295 295 295 295 295 294 293 293 294 294 295 295 295 295 296 296 296 296 296 296 296 296 296 296 296 296 296 295 295 295 295 295 295 295 295 296 296 297 297 298 299 300 302 303 305
297 297 296 295 295 295 295 295 295 295 295 295 296 295 295 295 295 295 295 295 295 295 294 293 292 292 293 293 294 295 295 295 295 295 295 295 296 296 295 295 295 295 295 295 295 295 294 294 294 294 294 294 295 295 295 296 297 298 298 299 301 302 304
296 295 294 294 294 293 293 294 294 295 295 295 295 295 295 295 295 295 295 295 295 295 294 293 292 292 292 293 294 295 295 295 295 295 295 295 295 295 295 295 295 295 295 294 294 294 294 293 293 293 294 294 294 294 294 295 296 297 298 299 300 301 303
295 294 294 293 293 292 293 293 293 294 294 294 294 294 295 295 295 295 295 295 295 295 294 292 292 292 292 292 293 294 295 295 295 295 295 295 295 295 294 294 294 294 294 294 294 294 293 293 293 293 293 293 294 294 294 295 295 296 297 298 298 299 301
294 293 293 292 292 292 292 292 292 292 293 293 293 294 294 295 295 295 295 295 295 294 293 292 292 292 292 292 293 294 294 294 294 294 294 294 294 294 294 294 294 294 294 294 294 294 293 293 293 293 293 294 294 294 294 295 295 295 296 297 297 298 299
293 293 292 292 292 292 292 292 292 292 292 293 293 294 294 295 295 295 295 295 295 294 293 292 292 292 292 292 293 293 294 294 294 294 294 294 293 293 293 293 294 294 294 294 294 293 292 292 293 293 294 294 295 295 295 295 295 295 295 296 296 297 298
293 292 292 292 292 292 292 292 292 292 293 293 294 294 295 295 295 295 295 294 294 293 292 292 292 292 292 292 292 293 294 294 294 294 294 293 293 293 293 293 294 294 293 293 293 292 292 292 293 293 294 294 295 295 295 295 295 295 295 296 296 297 297
293 292 292 292 292 292 292 292 293 293 294 294 294 295 295 295 295 294 294 293 294 293 292 292 292 292 292 292 292 294 294 294 294 294 294 294 294 293 293 293 294 293 293 293 293 292 291 292 292 293 294 294 294 294 295 295 295 295 295 295 295 296 296
293 292 292 292 292 292 292 293 293 294 294 294 294 294 294 294 294 293 293 293 293 293 292 291 292 292 292 292 293 294 294 294 294 294 294 294 294 294 293 293 293 293 293 293 292 291 291 292 292 293 293 293 294 294 294 295 294 294 294 294 295 296 297
293 293 293 292 292 292 292 293 293 293 294 294 294 294 294 293 293 293 292 292 293 293 292 291 291 292 292 292 293 294 294 294 294 294 294 294 294 294 294 293 293 293 293 292 292 291 291 292 292 293 293 293 293 293 294 294 293 293 294 294 296 297 298
293 293 293 292 292 292 292 292 292 292 293 293 293 293 294 294 293 293 292 292 292 292 292 291 291 292 292 292 292 294 294 294 294 294 294 294 294 294 294 293 292 292 292 291 291 291 291 292 292 293 292 292 292 293 293 293 293 293 294 294 296 297 298
294 293 293 292 292 292 292 292 292 292 292 293 293 293 293 293 293 293 292 292 291 292 292 291 291 291 292 292 292 293 294 294 294 294 294 294 294 294 293 293 292 291 291 291 291 292 291 291 292 293 292 292 292 292 292 292 292 293 293 294 295 296 297
293 293 293 292 291 291 291 291 291 292 292 293 293 293 293 293 293 293 292 292 292 292 292 291 291 291 291 291 291 292 293 293 293 294 294 293 294 293 293 293 293 291 291 291 291 291 292 291 292 292 292 291 291 291 291 292 292 293 293 293 294 295 296
293 293 292 292 291 291 291 291 291 291 292 292 292 292 292 292 293 293 292 292 292 292 292 292 292 291 291 291 291 292 293 292 292 293 294 293 293 293 293 293 292 291 290 291 291 291 291 291 292 292 291 291 291 291 291 292 292 292 292 293 293 294 295
293 293 293 292 292 292 291 291 291 291 291 292 292 292 292 292 293 293 293 292 292 292 292 292 292 291 291 291 291 291 292 292 291 293 294 293 293 293 293 292 292 291 290 290 290 291 291 291 291 291 291 291 291 291 291 292 292 292 292 292 292 293 293
294 293 293 292 292 292 292 292 291 291 291 292 293 293 292 292 293 293 293 293 293 292 292 292 292 292 291 291 291 291 291 292 291 292 293 293 293 292 292 291 291 290 290 290 290 290 291 291 291 291 291 291 291 292 291 291 291 291 292 292 292 292 292
294 294 293 293 293 292 292 292 292 291 292 293 294 293 293 293 293 293 293 293 293 293 293 293 292 292 291 291 291 291 291 292 291 291 292 292 292 292 291 291 290 290 290 290 290 290 290 291 291 291 291 291 291 291 291 291 291 291 291 292 292 292 292

ECMWFFLT1_925_thetae_093.txt.gz
Theta_e
330 328 327 326 325 325 324 323 323 322 321 320 320 320 319 319 319 320 320 320 320 320 320 321 321 321 321 322 323 324 324 324 325 325 325 326 326 326 326 326 328 329 329 330 330 330 331 331 331 330 329 328 330 331 331 332 331 331 331 332 334 334 333
327 326 325 325 324 323 322 322 321 320 319 318 317 317 317 317 317 317 318 318 318 318 318 319 319 319 319 320 321 321 321 321 322 321 322 323 322 322 323 323 324 326 327 328 328 328 329 329 329 329 330 329 330 330 329 330 331 331 331 332 332 333 333
325 325 324 324 323 322 321 320 319 318 317 316 315 315 315 315 315 315 315 315 315 315 316 316 316 316 317 319 318 318 318 318 318 318 319 318 318 319 320 320 322 323 324 325 325 325 325 326 327 327 328 329 329 328 328 329 330 330 330 331 331 332 333
324 324 323 322 322 321 320 319 317 316 315 315 314 314 313 314 313 313 314 314 314 314 314 315 315 315 316 317 316 316 316 315 315 316 316 315 315 316 317 318 319 320 321 322 322 321 321 322 323 323 324 325 325 326 326 327 328 328 329 329 330 330 331
322 322 321 320 319 319 319 317 316 315 314 314 314 313 312 312 312 312 313 313 313 313 313 314 314 314 315 314 314 314 314 313 313 313 314 313 313 314 314 315 316 317 318 318 317 317 318 319 320 320 321 321 321 322 322 323 324 325 326 327 328 329 329
320 319 319 318 317 317 316 316 315 314 313 313 313 312 311 310 311 311 311 312 312 312 312 313 312 312 313 312 312 312 312 312 312 312 312 312 311 311 312 313 314 315 315 314 314 315 315 316 317 319 319 319 319 320 320 321 321 322 323 325 326 327 327
317 316 316 316 315 315 314 314 313 313 313 312 311 310 310 310 309 309 310 310 310 310 311 311 311 311 312 311 311 311 311 312 311 311 311 311 310 310 311 311 312 313 312 312 312 312 313 314 315 316 316 316 317 318 318 318 319 320 321 323 324 324 326
315 314 314 314 313 313 313 312 312 312 312 311 310 309 309 309 309 308 308 309 309 309 309 310 310 310 311 310 309 310 310 311 310 310 310 310 310 310 310 310 311 311 311 310 310 311 311 312 312 312 313 313 313 314 315 315 316 318 319 319 320 321 322
313 313 312 312 312 312 311 311 311 311 310 310 309 308 308 308 308 307 307 308 308 308 308 309 309 309 309 309 308 309 309 310 310 309 309 310 310 310 310 310 310 310 309 309 309 309 309 310 310 310 310 311 311 311 311 311 313 314 315 316 316 317 318
312 312 311 311 311 311 310 310 310 310 309 309 308 308 307 307 307 307 307 307 307 308 308 308 308 308 308 308 308 307 308 308 308 309 308 309 309 309 309 308 309 308 308 307 308 308 308 309 309 308 308 309 310 309 309 309 310 310 311 312 313 313 314
311 311 311 311 310 310 310 310 310 309 309 308 307 307 307 306 306 306 306 306 306 307 307 307 307 307 307 307 307 307 307 307 308 308 308 307 307 307 308 307 307 306 306 306 307 307 307 307 307 307 307 308 308 308 308 308 308 308 309 310 310 310 310
311 310 310 310 310 310 310 310 309 308 308 307 307 306 306 305 305 305 305 305 305 305 306 306 306 307 306 306 307 306 306 307 307 307 307 306 306 307 307 306 305 305 305 305 305 305 306 305 305 305 305 306 306 306 307 307 306 307 307 307 308 308 309
310 310 310 310 310 310 309 309 308 307 307 306 306 306 305 305 304 304 304 304 304 304 305 305 306 306 306 306 306 306 306 306 306 306 306 306 306 306 305 305 304 304 303 303 304 304 304 303 303 303 303 304 304 305 305 305 305 305 305 306 306 307 307
309 310 310 309 309 309 308 308 307 307 306 306 305 305 305 305 304 304 304 304 304 304 304 305 305 305 305 305 305 305 305 305 305 305 305 305 305 305 305 304 303 302 302 302 302 302 302 302 301 301 302 302 303 303 303 303 304 304 304 304 304 305 305
309 309 309 309 308 308 307 307 306 306 306 305 305 305 305 305 304 304 303 303 303 303 303 304 304 304 305 305 305 305 305 305 305 305 305 304 304 304 304 303 302 302 301 301 301 301 301 300 300 300 301 301 301 302 302 302 302 303 303 303 303 304 304
309 309 308 308 307 307 306 306 306 305 305 305 304 304 304 304 304 304 303 302 302 302 302 303 303 304 304 304 305 304 304 304 304 304 304 304 303 303 303 302 301 301 301 300 300 300 300 299 299 299 300 300 300 300 301 301 301 302 302 302 302 303 304
309 308 308 307 307 306 306 306 305 305 305 305 304 304 304 304 304 303 303 302 301 301 301 302 302 303 304 304 304 304 304 304 304 304 304 303 303 303 302 302 301 300 300 300 299 299 299 299 298 299 299 299 299 300 300 300 301 301 301 301 302 302 303
308 307 307 307 307 306 306 305 305 305 305 304 304 304 304 303 303 303 302 301 301 300 300 301 301 302 303 304 304 304 304 304 303 303 303 303 303 302 301 301 300 299 299 299 299 298 298 298 298 298 298 299 299 299 299 299 300 300 300 301 301 301 302
307 307 307 307 306 306 306 305 305 304 304 304 304 304 303 303 303 302 301 301 300 299 299 299 300 301 303 304 304 303 303 303 303 303 303 303 302 301 301 300 300 299 299 298 298 298 298 298 297 298 298 298 298 298 298 298 299 299 299 299 300 300 301
307 306 306 306 305 305 305 305 304 304 304 304 304 304 303 303 303 302 301 300 299 299 298 297 297 299 301 303 303 303 303 303 302 302 302 301 301 301 300 300 299 299 298 298 298 298 297 297 297 297 297 298 298 298 298 298 298 298 299 299 299 299 300
306 306 305 305 305 305 305 304 304 304 304 304 304 304 303 303 302 302 300 299 298 298 297 296 295 297 299 301 303 303 303 302 302 302 301 301 301 301 300 299 299 298 298 298 297 297 297 296 296 297 297 297 297 297 297 298 298 298 299 299 299 299 299
304 304 304 304 304 304 304 304 303 303 303 303 303 303 303 302 302 302 300 299 298 297 296 295 295 296 297 299 301 303 302 302 301 301 301 301 300 300 299 299 299 298 298 297 297 297 296 295 295 296 296 296 297 297 297 298 298 298 298 298 298 298 299
304 304 304 304 304 304 304 303 303 303 303 303 303 303 302 302 302 301 300 299 297 296 295 294 295 296 297 298 300 302 302 301 301 300 300 300 300 299 299 299 298 298 298 297 297 297 295 294 294 295 295 296 297 297 297 298 298 298 298 298 298 298 298
303 303 303 303 303 303 303 303 303 303 303 303 303 303 302 302 302 301 300 299 297 296 294 294 295 296 297 298 299 300 302 301 300 300 299 299 299 299 299 298 298 298 297 297 297 296 295 294 294 295 296 297 297 297 297 297 297 297 297 298 298 297 298
302 302 302 302 302 302 302 303 303 304 303 303 303 302 302 302 302 300 299 298 297 295 293 293 295 296 297 298 299 300 301 301 300 300 299 299 299 298 298 298 298 298 297 297 296 295 294 294 294 295 296 297 297 297 297 297 297 297 297 297 297 297 297
302 302 302 302 302 302 302 302 303 303 303 302 302 302 302 302 302 301 299 298 297 295 293 292 294 296 297 297 298 300 300 300 300 300 299 299 299 298 298 297 297 297 296 296 295 293 293 294 294 296 297 297 297 297 297 297 297 297 296 296 296 296 296
301 302 302 301 301 302 302 302 303 303 302 302 302 302 302 302 302 301 300 298 297 295 292 291 293 295 296 297 298 299 300 300 300 299 299 299 298 298 298 297 296 296 296 296 294 292 292 293 294 296 297 297 297 297 296 297 297 296 296 296 296 296 295
301 301 301 301 301 302 302 302 302 302 302 302 301 301 301 301 301 301 300 300 298 295 292 291 292 294 296 297 298 299 300 300 300 299 299 299 298 298 298 297 296 295 295 295 293 291 292 292 294 296 297 296 296 296 296 296 296 296 296 296 296 295 295
301 301 301 301 301 302 302 302 302 301 301 301 301 301 300 300 300 301 301 300 299 296 293 291 292 293 295 297 298 299 299 299 299 299 298 298 298 298 297 297 296 295 294 294 293 292 292 292 293 296 296 296 296 296 296 296 295 296 295 295 296 295 295
300 300 300 300 301 302 302 301 301 301 301 301 300 300 300 299 299 299 300 300 299 297 294 291 291 292 293 296 298 299 298 299 299 299 298 298 298 298 297 296 296 294 294 293 292 292 292 292 293 295 296 296 296 295 295 295 295 296 296 296 296 295 295
300 300 300 300 301 302 301 301 301 301 301 300 300 300 300 300 299 298 298 299 299 298 295 292 291 291 292 294 297 298 297 297 299 299 298 297 298 298 297 296 295 294 292 292 292 292 292 292 293 294 295 295 295 295 295 295 295 295 296 295 295 295 295
300 300 300 300 301 301 301 301 301 300 300 300 300 299 299 300 300 299 298 297 297 298 298 294 291 291 291 292 294 297 297 296 297 298 298 297 297 297 296 295 295 294 292 291 291 292 292 292 292 293 294 295 294 294 294 294 294 295 296 295 295 294 294
300 300 300 300 300 300 301 301 301 300 300 299 299 299 299 299 299 299 299 298 297 297 297 296 292 291 291 291 292 294 296 296 295 297 298 297 296 297 296 295 296 294 292 292 292 292 292 292 292 293 294 294 294 294 294 293 294 295 295 295 294 294 294
300 300 300 300 300 300 300 301 300 300 299 299 299 300 299 299 299 299 299 299 299 297 297 297 294 292 292 292 292 293 295 295 294 295 297 297 296 297 296 296 296 295 293 292 293 292 292 293 293 293 294 294 293 293 293 293 294 295 295 295 294 294 293
300 300 300 300 300 300 300 300 300 299 299 300 300 300 300 300 300 300 299 299 300 299 298 298 296 293 292 293 293 293 294 294 293 294 296 297 296 296 296 296 296 295 293 293 293 293 293 293 294 294 294 293 293 293 294 294 294 295 295 295 295 294 293
300 300 300 300 300 300 300 300 300 300 300 300 300 300 300 300 299 299 299 299 299 299 299 298 297 294 293 293 294 294 294 294 293 294 295 296 296 296 296 296 296 294 294 294 294 293 293 294 294 294 294 293 293 294 294 294 294 294 294 294 294 294 294
300 300 300 300 300 300 300 300 300 301 301 300 300 300 299 299 299 299 299 299 299 298 298 298 296 295 293 293 294 294 294 294 294 293 294 296 296 295 295 295 295 295 294 294 294 294 294 294 294 294 294 294 294 294 294 294 294 294 294 294 294 294 293

ECMWFFLT1_925_thetae_096.txt.gz
Theta_e
329 328 327 326 325 324 323 322 321 320 319 318 318 317 317 317 318 318 318 318 318 319 319 318 318 319 320 320 319 319 319 319 319 319 320 319 319 319 319 320 321 322 323 324 325 325 325 325 324 324 324 323 322 323 325 324 324 325 326 326 328 329 330
327 327 326 324 323 323 321 320 319 318 317 316 316 316 316 316 316 316 316 316 316 317 317 317 318 318 318 317 317 317 316 316 317 317 317 316 316 317 317 318 319 319 320 320 320 319 320 321 321 321 320 320 320 320 321 321 321 322 322 322 324 325 327
327 326 325 324 322 321 320 318 317 316 316 315 314 314 315 315 315 315 315 315 315 316 316 316 317 317 316 316 316 315 314 315 315 315 314 314 314 315 315 316 317 317 317 317 316 316 316 318 318 318 318 318 319 318 319 319 319 320 321 321 321 322 325
326 325 324 323 322 320 319 317 316 316 315 314 313 312 313 313 313 314 314 314 314 314 314 314 315 315 314 314 314 314 313 313 314 313 312 312 313 313 313 314 315 315 314 314 314 314 314 315 315 315 316 316 315 315 316 316 316 317 318 318 320 320 321
324 323 322 321 320 319 318 316 316 315 314 313 312 311 311 311 312 312 312 312 312 313 313 312 313 313 312 312 313 313 312 312 312 312 311 312 312 312 312 313 313 313 312 312 312 312 312 313 313 313 313 312 312 313 313 313 313 313 314 315 317 316 315
322 321 320 319 318 318 317 316 315 314 313 313 312 311 310 310 310 310 310 311 311 311 312 311 311 311 311 311 311 312 311 310 311 311 311 311 311 310 311 311 312 311 310 310 311 311 311 311 311 311 310 310 310 311 311 311 311 311 311 312 312 311 310
319 318 318 317 316 316 315 315 314 313 312 311 311 310 309 309 309 309 309 310 310 310 310 310 310 310 309 310 310 311 311 310 310 310 310 310 310 310 309 310 310 308 308 309 309 309 309 309 310 310 309 309 309 309 309 309 309 309 310 310 309 309 310
316 316 315 315 315 314 314 313 313 312 310 310 309 309 309 308 308 308 308 309 309 309 309 309 309 309 308 308 309 309 310 309 309 308 309 309 309 309 308 308 308 307 307 308 307 307 308 308 308 308 308 307 307 307 307 307 307 308 308 308 308 308 308
314 314 314 313 313 313 312 312 311 310 310 309 308 308 308 307 307 307 307 308 308 308 308 308 308 309 308 308 308 308 309 309 308 307 307 307 308 308 307 306 306 305 305 306 306 306 306 306 306 305 306 306 306 306 306 306 306 306 306 306 306 306 305
313 313 312 312 312 312 312 311 310 309 309 308 308 307 307 307 307 306 306 307 307 308 307 307 307 308 308 307 307 307 307 308 308 306 306 307 307 307 306 305 305 304 304 305 304 304 305 304 303 303 303 304 305 305 305 305 305 305 305 305 304 304 304
312 312 312 312 311 311 311 310 309 308 308 307 307 307 306 306 306 306 305 306 306 307 307 307 306 306 307 307 306 307 306 306 307 306 306 306 306 306 305 304 304 303 303 303 303 303 303 302 302 302 302 302 303 303 304 303 303 303 303 303 303 303 303
312 312 312 311 311 311 310 309 308 308 307 307 306 306 306 305 305 305 305 305 305 306 306 306 306 306 306 306 306 306 306 306 306 306 306 305 305 305 304 303 303 302 302 302 302 302 302 301 300 301 301 301 301 302 302 302 302 302 302 302 302 302 302
311 311 311 311 310 310 309 308 308 307 307 306 306 305 305 305 304 304 304 304 305 305 305 306 306 306 306 306 306 305 305 305 305 305 305 305 305 304 303 302 302 302 301 301 301 301 300 300 300 300 300 300 300 300 301 301 301 301 301 301 301 301 301
311 311 310 310 309 309 308 307 307 306 306 306 306 306 305 304 304 303 303 304 304 304 305 305 305 305 305 305 305 305 305 305 305 305 304 304 304 304 303 302 301 301 300 300 300 300 299 299 299 299 299 300 300 300 300 300 301 301 301 300 300 300 300
310 310 310 309 308 307 307 307 306 306 305 305 305 305 305 304 303 303 303 303 303 303 304 304 305 305 305 305 305 305 305 304 304 304 304 304 303 303 302 301 300 300 300 299 299 299 299 299 298 298 299 299 299 299 299 300 300 300 300 300 299 300 300
310 309 308 308 307 307 307 306 306 305 305 305 305 304 304 304 303 302 302 301 302 302 303 304 304 305 305 305 305 305 304 304 304 304 304 303 302 302 301 301 300 300 299 299 299 299 298 298 298 298 298 298 299 299 299 299 299 299 299 299 299 299 299
309 308 308 307 307 307 306 306 306 305 305 305 305 304 304 303 302 302 301 300 301 301 302 303 304 305 305 304 304 304 304 304 304 304 303 302 302 301 301 300 300 299 299 299 298 298 298 298 297 297 297 298 298 298 298 298 298 298 298 298 298 299 299
309 308 308 307 307 306 306 306 305 305 305 305 305 304 303 302 302 301 300 300 299 299 300 301 303 304 304 304 304 304 304 303 303 302 302 302 301 301 300 300 300 299 299 298 298 298 298 297 296 296 297 298 298 298 298 298 298 298 298 298 299 299 298
309 308 307 307 307 306 306 305 305 305 305 304 304 304 303 302 301 301 300 299 298 297 297 299 301 302 303 304 304 303 303 303 302 302 302 302 301 301 300 300 299 299 299 298 298 298 297 296 295 296 296 297 297 297 297 298 298 298 298 298 298 298 298
308 307 307 307 306 306 305 305 305 305 305 304 304 303 303 301 300 300 299 298 297 296 296 297 299 301 302 303 304 303 302 302 302 302 302 301 300 300 300 300 299 299 298 298 297 297 296 295 294 295 296 296 297 297 297 298 298 298 298 298 298 298 298
307 307 307 306 305 305 305 305 305 305 305 305 304 303 303 301 300 299 298 297 296 296 296 297 298 299 301 302 303 303 302 302 301 301 301 301 300 300 299 299 299 299 298 297 297 296 294 294 294 294 295 296 296 297 297 298 297 297 297 297 298 297 297
306 306 306 305 305 305 304 304 305 304 304 304 304 303 303 302 300 299 298 296 295 295 296 296 297 298 299 301 302 303 302 302 301 301 300 300 300 299 299 298 299 299 297 297 297 296 294 293 294 294 295 296 296 296 297 298 297 297 297 297 297 297 297
305 305 305 305 305 304 304 304 304 304 304 304 303 303 302 301 300 299 298 296 295 294 295 296 297 297 298 299 301 302 302 301 301 300 300 300 299 299 299 298 298 298 297 297 296 295 293 292 293 294 296 296 296 297 297 297 297 297 297 297 297 297 296
305 305 305 305 304 304 304 304 304 304 304 303 303 303 302 301 300 298 298 297 295 294 294 296 297 298 298 299 300 301 302 301 301 300 300 300 299 299 299 298 297 297 296 296 296 294 292 292 292 294 296 297 297 297 297 297 297 297 297 297 296 296 296
304 304 304 304 304 304 304 304 304 304 304 303 303 303 302 300 299 298 297 296 294 293 294 295 297 298 299 299 300 301 301 301 300 300 300 300 299 299 299 298 297 297 296 296 296 293 292 292 292 294 296 297 297 297 296 296 296 296 296 296 296 296 296
304 303 303 303 303 304 304 304 304 303 303 304 303 303 303 301 300 299 297 295 293 292 293 295 296 297 298 299 300 300 301 301 300 300 299 299 299 299 298 297 297 297 295 295 295 293 292 292 292 293 295 296 296 296 296 296 296 295 295 295 296 296 296
303 303 303 303 303 303 303 303 303 303 303 303 303 303 303 302 301 300 298 295 292 291 292 293 295 297 298 298 299 300 301 301 300 300 299 298 299 299 298 297 297 296 295 294 294 292 292 292 292 293 294 295 295 296 295 295 295 295 294 294 295 296 296
303 303 303 303 303 303 303 303 303 302 302 302 302 302 302 302 302 301 299 296 293 292 292 293 294 296 298 298 299 299 300 300 300 300 298 297 299 299 297 296 296 296 294 293 292 292 292 292 292 293 294 294 295 295 295 295 295 295 295 294 294 295 296
302 302 302 303 303 303 303 303 302 302 302 301 301 301 301 302 302 301 300 298 295 292 292 292 293 294 296 298 298 298 298 299 300 300 298 297 298 299 297 296 296 295 294 293 292 292 292 292 293 293 293 294 294 295 295 294 294 294 294 294 294 295 296
302 302 302 303 303 303 302 302 301 301 301 301 301 300 300 300 301 301 301 300 298 294 292 291 292 293 294 296 297 297 297 298 299 299 299 298 298 298 297 296 295 295 294 293 293 293 293 293 293 293 293 293 294 295 295 294 294 294 294 294 295 295 295
302 302 302 302 302 302 302 302 301 301 301 301 300 300 299 299 298 299 299 300 300 297 293 291 291 292 292 294 295 297 297 296 296 297 298 298 298 297 297 297 296 296 295 293 293 294 293 293 293 293 293 294 294 295 294 294 294 294 294 295 295 295 295
301 302 302 302 302 302 302 302 302 301 301 301 301 300 300 299 298 298 297 297 299 298 296 294 292 291 291 292 293 295 296 295 295 295 297 298 298 297 297 297 297 296 295 294 294 294 294 294 294 294 294 294 294 295 294 294 294 294 294 295 295 295 295
301 302 302 302 302 302 302 301 301 301 301 300 300 300 300 300 300 299 298 297 297 297 297 296 294 291 291 292 292 294 295 294 294 294 296 297 297 297 297 297 297 296 294 294 295 295 294 294 294 294 294 294 294 294 294 294 294 294 294 295 294 294 294
301 301 301 302 302 302 302 301 301 301 300 300 300 300 300 300 300 300 300 299 299 299 298 297 295 292 291 293 293 293 294 294 293 294 295 296 296 297 297 296 296 295 295 295 295 295 294 294 294 294 295 294 294 294 294 294 294 294 294 294 294 294 294
301 301 301 301 301 302 301 301 301 300 300 300 300 300 300 300 300 300 300 300 300 300 299 298 295 293 292 293 293 293 294 294 293 293 294 295 296 296 296 295 295 295 295 295 295 295 295 294 294 294 294 294 294 294 294 294 294 294 294 294 294 294 294
301 301 301 301 301 301 301 300 300 300 300 301 301 301 301 301 300 300 300 300 300 301 300 298 295 293 292 292 293 293 294 293 293 292 293 294 295 295 294 294 295 295 295 296 295 295 295 294 294 294 294 294 294 294 295 294 294 294 294 294 294 294 294
301 301 301 301 301 301 301 300 300 300 301 301 301 301 300 300 300 300 300 300 299 299 299 298 296 294 293 292 293 293 293 293 292 292 293 294 294 294 294 294 295 295 296 296 295 295 294 294 294 294 294 294 294 294 295 294 294 293 294 293 293 293 293

ECMWFFLT1_925_thetae_102.txt.gz
Theta_e
326 324 323 322 320 319 318 317 316 316 316 316 316 316 316 316 317 317 317 316 316 315 314 312 313 313 311 310 310 311 311 311 311 311 311 310 310 309 309 310 309 308 308 308 308 311 312 311 308 306 305 303 303 303 302 302 303 304 303 303 303 302 300
325 323 321 320 318 317 316 315 314 314 314 314 314 314 315 315 315 315 315 314 313 312 311 311 311 311 309 309 309 309 310 309 309 309 308 308 307 307 307 307 307 307 306 306 306 307 307 308 307 305 303 302 302 302 301 301 302 302 301 301 301 301 300
323 321 320 318 317 316 314 312 312 312 312 313 313 313 313 314 314 314 313 312 312 311 310 310 310 310 309 309 308 308 308 308 308 307 306 306 305 305 305 305 305 305 305 304 304 304 304 304 304 303 301 301 301 301 300 300 301 301 300 300 300 300 300
322 320 319 317 315 314 312 311 310 310 311 311 312 312 312 312 312 312 311 310 311 311 309 309 309 309 309 308 308 307 307 306 306 306 305 305 304 303 303 303 303 303 303 303 302 302 302 302 301 301 300 300 301 301 300 300 300 300 300 299 300 300 299
321 319 318 316 314 313 312 310 309 309 309 310 310 310 311 310 310 310 309 310 310 310 309 308 308 308 308 307 307 307 306 304 304 304 303 303 302 302 302 302 301 301 300 300 300 300 300 300 300 300 299 300 300 300 299 299 299 299 299 299 299 299 298
320 319 317 315 314 313 311 309 308 308 308 309 309 309 309 309 308 308 308 309 309 309 309 308 307 306 307 307 307 306 305 303 302 301 302 302 302 301 301 301 299 298 298 298 299 299 299 299 299 299 299 299 299 299 298 298 298 299 299 298 299 299 297
319 317 316 315 314 313 311 309 307 307 308 308 308 308 308 308 308 307 307 307 308 308 308 308 306 305 305 306 306 305 304 302 301 301 301 301 301 300 300 299 297 297 297 297 297 297 298 298 298 299 298 298 298 298 298 298 298 298 298 298 298 298 297
318 316 315 314 314 313 311 309 307 307 307 307 308 308 307 308 308 308 307 307 307 307 307 307 306 305 304 305 305 304 303 302 301 300 300 299 299 299 298 297 296 297 297 296 296 295 296 297 297 298 298 298 298 298 297 297 297 297 298 297 297 297 297
316 315 314 313 313 313 311 308 307 307 306 306 307 307 307 307 307 307 307 306 306 306 306 306 306 305 304 304 304 303 302 302 301 300 298 298 298 297 296 296 297 297 297 296 295 294 295 295 296 297 297 298 298 298 298 298 297 297 297 297 297 297 296
315 314 313 313 312 311 308 306 306 306 306 305 306 306 306 306 306 306 306 306 306 305 305 305 305 305 304 304 304 303 302 302 301 300 298 297 298 297 296 296 296 297 297 296 294 293 293 294 295 296 297 297 298 298 298 298 297 297 297 297 296 296 296
314 314 312 312 311 309 306 305 306 305 305 305 305 305 306 306 305 305 305 305 305 305 305 305 305 304 304 304 303 303 302 301 301 300 298 298 297 296 296 295 295 296 296 295 293 292 293 294 295 296 296 297 297 297 297 297 297 297 296 296 296 296 296
314 313 312 311 310 307 305 305 305 305 305 305 304 304 305 305 305 305 305 305 304 304 304 304 304 304 303 303 303 303 302 301 300 300 299 298 297 296 296 296 295 296 296 294 292 292 293 294 295 296 296 296 296 296 297 297 296 296 296 296 296 296 295
313 312 311 310 308 306 306 305 305 304 304 305 304 304 304 305 305 305 305 304 304 304 304 304 304 303 303 303 303 302 301 301 300 300 299 299 298 297 296 296 296 296 296 295 293 291 293 295 296 295 296 296 296 296 296 296 296 296 296 296 296 296 295
312 311 309 308 307 306 306 305 304 304 304 304 304 304 304 304 304 304 305 304 304 304 304 303 303 303 303 303 302 301 301 300 300 299 299 299 298 298 297 296 296 296 296 295 294 292 292 294 295 296 296 296 296 296 296 296 296 296 296 296 296 296 295
311 310 308 307 306 305 305 304 304 303 303 303 303 303 303 304 304 304 304 304 304 304 304 303 303 303 303 302 302 301 300 300 300 300 299 298 298 298 297 297 296 296 295 295 294 292 291 292 294 295 296 296 296 296 296 296 296 296 296 296 296 296 295
310 309 307 306 306 305 305 304 303 303 302 302 302 302 302 303 303 304 304 304 303 304 303 303 303 303 302 302 301 300 300 299 299 299 299 298 298 298 297 297 296 295 295 295 295 293 292 291 293 294 295 296 296 296 296 295 295 295 295 296 296 296 295
309 308 307 306 306 305 305 304 303 302 301 301 301 300 301 302 303 303 304 303 303 303 303 303 302 302 301 301 300 300 300 299 299 299 299 298 298 298 298 297 295 295 295 295 295 293 292 291 292 293 295 295 295 295 295 295 295 295 295 295 296 295 295
308 307 306 305 305 305 304 303 303 302 301 301 300 299 299 300 302 303 304 303 303 303 303 302 302 301 301 301 301 301 300 299 298 297 297 297 296 297 297 296 295 294 294 294 294 292 291 292 293 293 293 294 295 295 295 295 295 295 295 295 295 295 295
307 306 305 305 304 304 303 303 302 302 301 300 299 297 296 297 300 302 303 303 303 303 302 302 302 301 301 301 301 301 300 299 298 297 297 297 296 296 296 296 295 295 294 294 292 291 291 292 293 293 293 293 294 294 294 294 294 294 294 295 295 295 294
307 306 305 305 304 304 303 302 302 301 300 299 297 295 294 295 297 300 302 303 303 303 302 302 301 301 301 301 300 300 300 299 299 298 298 297 296 295 295 295 295 295 294 293 291 291 292 293 293 293 293 293 293 293 293 293 293 294 294 294 294 294 294
306 305 305 305 305 304 303 302 301 301 300 298 295 294 293 294 295 298 301 302 303 302 302 302 301 301 301 300 300 300 300 299 299 298 298 298 296 295 295 295 295 294 293 292 292 292 292 293 293 293 293 293 293 293 293 293 293 293 293 293 294 294 293
306 306 305 304 304 304 303 302 301 300 297 295 293 293 293 294 294 296 298 301 302 302 302 301 301 301 301 300 299 299 299 299 299 298 298 298 296 295 295 295 295 293 292 292 293 293 293 293 293 293 293 294 294 293 293 293 293 293 293 293 293 293 293
305 305 305 304 304 303 302 302 301 299 296 293 293 293 293 294 294 295 297 299 300 301 301 301 301 301 300 300 299 299 299 299 299 299 298 297 296 296 295 295 294 293 293 293 294 293 293 293 294 294 294 294 294 293 293 293 293 293 293 293 293 293 293
305 305 304 304 303 302 302 302 301 300 297 294 293 293 293 294 295 296 297 298 299 300 300 301 301 300 300 300 299 299 298 298 299 299 298 297 296 296 295 295 294 293 293 294 294 294 294 293 293 294 294 293 293 293 293 293 293 293 293 293 293 293 293
305 305 304 304 303 303 302 301 301 300 297 294 292 292 293 293 294 295 296 297 298 299 299 300 300 300 300 300 299 299 299 298 298 298 299 297 296 295 295 295 294 293 293 294 294 294 294 293 293 293 293 293 293 293 294 293 293 293 293 293 293 293 293
305 305 305 304 303 303 302 301 301 299 295 292 292 292 293 293 294 295 296 297 298 298 299 299 299 300 300 300 299 300 299 297 297 298 298 297 296 295 295 296 295 293 294 294 294 294 294 294 293 293 293 293 293 293 293 293 293 293 293 293 293 293 292
304 304 304 304 303 302 302 301 300 298 294 292 292 292 292 293 293 294 296 297 297 298 298 298 299 299 299 299 299 299 298 297 298 298 298 297 296 295 296 296 294 293 294 294 294 295 294 294 293 293 293 293 293 293 293 293 293 293 292 292 292 292 292
304 304 304 303 303 302 302 301 300 298 295 293 292 291 292 292 292 293 294 296 297 297 298 298 298 298 298 298 299 298 298 298 297 298 298 297 296 296 296 295 294 294 294 294 294 295 294 293 293 293 293 293 293 293 292 292 292 292 292 292 292 292 292
304 304 304 303 303 302 302 301 300 299 298 295 293 292 291 291 292 292 292 294 295 295 296 297 297 297 297 297 298 298 298 298 297 297 297 297 297 296 296 295 294 294 294 295 294 294 294 293 293 293 293 293 292 292 292 292 292 291 291 292 292 292 292
304 304 303 303 303 302 302 302 301 300 300 298 296 295 293 291 291 291 291 292 292 293 293 295 296 296 295 295 296 297 297 298 297 297 297 297 296 295 295 294 294 294 295 295 294 294 293 293 293 293 293 293 292 292 292 292 291 291 291 292 292 292 292
304 304 303 303 303 303 302 302 301 300 300 300 299 299 297 293 291 291 291 290 291 291 291 291 292 292 292 291 292 294 295 297 297 297 296 296 295 294 294 294 294 294 295 294 294 293 293 293 293 293 293 293 292 292 292 292 291 291 291 292 292 293 293
304 303 303 303 303 303 302 302 301 301 301 301 300 300 299 295 292 293 292 291 290 290 290 290 290 290 290 290 291 292 293 294 295 295 295 295 294 293 294 294 295 294 295 294 293 293 293 293 293 293 293 293 292 292 292 291 291 291 291 291 292 292 292
303 303 303 303 302 302 302 302 302 301 301 301 300 301 299 294 294 295 295 294 293 291 290 290 290 290 290 290 290 291 291 292 292 292 293 293 293 294 294 294 294 294 295 294 293 293 293 293 293 293 293 292 292 292 291 291 290 290 290 291 291 291 292
303 303 303 302 301 301 301 301 301 301 301 301 301 301 298 295 295 297 297 296 295 293 292 291 290 291 291 290 290 290 290 291 291 292 292 293 294 294 294 294 294 294 295 294 293 293 293 292 293 292 292 292 292 291 290 290 290 290 290 291 291 291 291
303 303 302 301 301 301 301 300 300 300 300 300 299 298 296 295 297 298 298 298 297 295 293 292 290 290 291 290 290 290 290 290 291 292 293 293 294 294 294 295 294 294 295 294 293 293 293 292 292 292 291 292 291 290 290 290 290 290 290 290 290 291 291
303 302 302 302 301 301 300 300 299 297 297 297 297 297 297 297 298 298 298 298 297 295 294 293 291 290 290 290 290 289 290 290 291 292 293 294 294 294 294 294 294 294 295 294 293 293 293 292 292 291 291 291 290 290 290 290 290 290 290 290 290 290 290
302 302 302 301 301 300 300 299 298 298 298 298 298 298 298 299 299 298 298 298 298 296 295 294 293 291 290 290 290 289 289 290 292 293 293 294 294 294 294 295 294 294 294 294 293 293 293 292 292 290 290 290 290 290 290 289 290 290 290 290 290 290 290

ECMWFFLT1_925_thetae_105.txt.gz
Theta_e
327 324 322 321 320 320 319 319 318 318 317 317 318 317 318 318 317 317 316 315 314 313 311 310 310 310 310 310 310 310 310 309 309 308 306 306 306 305 305 304 303 302 301 301 304 307 309 309 305 299 297 297 297 297 298 299 300 298 297 299 299 297 296
326 323 320 319 318 318 318 316 316 316 316 316 316 316 316 316 316 315 314 312 311 310 309 308 308 309 309 309 308 308 308 307 306 306 305 304 303 303 302 301 300 299 298 298 300 301 301 304 305 300 297 298 297 297 297 298 299 298 297 298 299 296 296
323 320 318 317 316 316 316 315 314 314 314 314 315 315 315 314 314 313 311 310 309 308 308 307 307 307 308 307 307 306 306 305 304 303 303 302 301 300 299 299 298 298 299 298 298 299 298 300 302 299 297 298 298 298 297 297 299 298 297 297 298 297 295
322 319 317 315 314 314 314 313 313 313 313 313 313 313 313 313 312 311 309 309 309 308 307 307 306 306 306 306 306 305 304 303 302 301 300 300 299 298 298 298 298 298 298 298 298 298 298 298 299 298 297 297 298 298 297 296 297 298 296 296 298 296 295
321 318 316 314 313 313 312 311 312 312 312 312 312 312 311 311 310 309 308 308 308 308 307 306 306 305 304 303 303 302 302 301 300 300 299 298 297 297 297 296 297 297 297 297 297 297 297 297 298 297 296 297 298 297 296 296 297 297 296 296 296 296 295
320 318 316 314 312 311 311 310 311 311 311 310 310 310 310 310 310 309 308 307 307 307 307 306 305 304 303 301 300 300 300 300 300 299 297 296 295 295 295 294 294 294 295 295 296 296 296 297 296 296 296 297 297 297 296 296 296 296 296 295 295 295 295
319 317 315 313 312 310 309 309 310 310 310 309 309 309 309 309 309 309 307 306 306 305 305 305 304 303 302 301 299 298 299 299 299 298 296 295 295 295 294 293 292 292 293 293 294 295 296 296 296 296 296 296 296 296 295 296 296 296 296 295 295 295 294
318 316 315 313 311 309 308 308 308 309 309 308 308 307 308 308 308 308 307 306 305 304 304 304 303 303 302 301 299 297 297 297 296 296 295 294 295 295 294 293 292 292 292 293 294 294 295 296 296 296 296 297 297 296 295 295 295 295 295 295 295 295 295
317 316 314 312 310 309 307 307 308 308 308 308 307 307 307 307 307 307 307 306 305 304 303 303 303 302 301 301 299 296 295 295 295 294 294 294 294 294 293 292 291 291 292 293 294 294 295 296 296 296 296 296 297 297 296 296 295 295 295 295 295 295 294
317 315 314 311 309 308 307 306 307 307 307 307 307 307 306 306 306 306 306 305 305 304 303 303 302 302 301 301 298 295 295 295 295 294 294 294 293 293 293 293 292 291 291 292 294 294 295 295 296 296 296 296 296 296 296 296 296 295 295 295 295 295 294
316 314 313 311 309 308 307 306 307 307 306 306 307 307 306 306 305 305 305 305 305 304 304 303 302 302 302 301 299 297 296 296 296 296 295 294 294 294 294 294 293 292 291 291 293 294 295 295 295 296 296 295 296 296 296 296 295 295 295 295 295 294 294
315 313 312 310 308 308 306 305 306 307 306 306 306 306 306 305 305 305 305 305 304 304 304 303 303 302 301 300 299 299 298 298 298 297 296 295 294 294 294 294 294 293 292 291 291 293 294 295 295 295 295 295 296 295 295 295 295 295 295 295 294 294 294
313 312 310 309 308 307 305 305 305 306 306 305 305 305 305 305 305 304 304 304 304 303 303 303 302 302 301 300 299 299 299 298 298 297 297 296 295 294 293 294 294 294 293 291 290 291 293 294 295 295 295 296 295 295 294 295 295 295 294 294 294 294 294
312 311 309 307 307 306 305 305 305 305 305 305 305 304 304 304 304 304 304 304 304 303 303 303 302 301 300 300 300 299 299 298 298 298 297 297 296 294 293 293 293 293 293 291 291 291 292 293 294 295 295 295 295 295 294 294 294 294 294 294 294 294 293
311 309 308 307 306 305 305 305 304 304 304 305 305 304 304 304 304 303 303 303 303 303 303 302 302 301 300 300 300 299 299 299 298 297 297 297 295 293 293 293 293 293 292 291 291 292 292 292 293 294 294 295 295 295 294 294 294 294 294 293 293 293 293
310 309 307 306 305 305 304 304 304 304 304 304 304 304 304 304 303 303 303 303 302 303 302 302 302 301 300 299 299 299 299 298 296 296 296 296 294 293 293 293 293 292 291 291 291 292 292 292 293 293 293 294 294 294 294 293 293 293 293 293 293 293 293
308 307 307 306 305 304 304 303 304 303 303 303 303 304 304 304 303 303 303 303 303 302 302 302 301 300 299 299 299 298 297 296 295 295 294 294 294 294 294 294 293 292 291 291 292 292 293 293 293 293 293 293 293 293 293 293 293 293 293 293 293 293 293
307 306 306 305 304 303 303 303 303 303 303 303 303 303 303 303 303 303 303 303 302 302 302 301 301 299 299 299 298 296 295 295 296 296 294 294 294 294 294 294 293 292 291 291 292 292 293 293 293 293 293 293 293 293 293 293 293 293 293 293 293 293 293
307 306 305 304 304 303 302 302 302 302 301 302 302 303 303 303 303 303 303 303 302 302 301 300 300 300 300 299 298 297 297 297 297 296 295 294 294 294 294 294 292 292 292 292 292 293 293 293 293 293 293 293 293 293 293 293 293 293 293 292 292 292 292
307 305 305 304 303 303 302 302 301 301 301 300 300 302 303 303 303 302 302 302 302 301 300 300 300 300 300 300 299 298 298 297 297 297 296 295 295 295 294 293 292 292 293 293 293 293 293 293 293 293 293 293 293 293 293 293 293 293 293 292 292 292 292
306 305 305 304 303 302 302 302 301 301 300 299 298 300 302 303 302 302 302 302 302 301 301 301 300 301 300 300 299 299 298 298 298 297 296 295 295 295 294 293 292 293 293 294 294 294 294 294 293 293 293 293 293 293 293 293 293 293 292 292 292 292 292
306 305 304 304 303 302 302 302 301 300 299 296 296 298 301 302 302 302 302 302 301 301 301 301 300 300 300 299 299 299 299 298 298 298 297 296 295 295 294 293 293 293 294 294 294 294 294 293 293 293 293 293 293 293 292 292 292 292 292 292 292 292 292
305 305 304 303 302 302 301 301 300 299 296 294 294 296 299 301 302 302 302 302 301 301 301 300 300 300 299 299 299 299 299 299 298 298 297 296 295 295 294 293 293 294 294 294 294 294 293 293 293 293 293 292 292 292 292 292 292 292 292 292 292 292 291
305 304 304 303 302 301 301 301 299 297 294 293 294 295 297 299 300 301 301 301 301 301 300 300 300 299 299 299 299 299 299 299 298 298 297 296 295 295 294 293 293 294 294 294 294 294 293 293 293 292 292 292 292 292 292 292 292 292 292 292 292 291 291
305 304 304 303 302 301 301 300 297 295 293 293 294 294 295 297 299 300 300 301 301 300 300 300 300 299 299 298 298 298 298 298 298 298 297 296 295 295 295 293 293 294 294 294 294 293 292 292 292 292 292 292 292 292 292 291 291 291 291 292 291 291 291
304 304 303 303 302 301 300 299 297 294 292 293 294 294 295 296 297 299 299 300 300 300 300 300 300 300 299 298 298 298 298 297 297 298 297 295 295 295 295 293 293 294 294 294 294 293 292 292 292 292 292 292 292 292 291 290 290 291 291 291 291 291 291
304 304 303 302 301 301 300 300 297 294 292 293 293 294 295 296 297 298 298 299 299 299 300 300 300 300 299 299 299 299 298 297 297 298 297 295 295 295 294 293 293 294 294 294 293 293 292 292 292 292 292 291 291 291 290 289 290 291 291 291 291 291 291
304 304 303 302 301 301 301 300 297 293 292 292 293 293 294 295 296 297 298 298 299 299 299 299 299 299 299 299 299 299 298 297 297 298 297 296 296 295 294 293 294 294 294 294 293 292 293 292 292 292 292 291 291 291 290 289 290 291 291 291 291 291 292
304 304 303 302 301 301 301 300 296 293 292 292 292 293 294 295 295 296 297 298 298 298 298 298 298 298 298 298 298 298 297 297 297 297 297 297 296 295 293 293 294 294 294 293 292 292 292 293 292 292 291 291 291 290 289 289 290 291 292 292 293 292 293
304 304 303 302 302 301 301 299 295 292 291 292 292 292 293 294 295 295 296 297 298 298 298 297 298 298 297 297 297 298 297 297 297 297 296 297 296 294 293 294 294 294 294 293 292 292 292 292 292 291 291 291 290 289 289 289 290 291 292 293 293 293 294
304 303 303 302 302 301 300 298 294 292 291 292 291 292 292 292 293 294 295 296 297 297 297 297 297 296 296 295 295 296 297 297 297 296 296 296 295 293 293 294 294 294 294 293 292 292 292 292 291 291 291 291 289 289 289 289 290 291 292 293 293 294 294
304 303 303 302 302 301 300 299 295 292 291 291 291 291 291 291 291 292 292 293 293 294 294 294 293 293 292 292 293 294 296 297 297 296 296 296 294 293 294 294 294 294 294 293 292 292 292 292 291 291 291 290 289 289 289 289 290 291 291 292 293 293 294
304 303 303 303 302 301 301 300 298 294 293 293 292 290 290 291 290 290 290 290 290 291 290 290 290 290 290 290 291 292 294 295 296 295 295 294 293 293 294 294 294 294 294 293 293 292 292 291 291 290 290 289 289 289 289 289 289 290 291 292 292 293 293
304 304 303 303 302 302 301 301 300 297 296 297 295 292 291 291 291 290 290 290 290 290 290 290 290 290 290 290 290 291 291 292 292 292 293 293 293 294 294 294 294 294 294 293 293 292 292 291 290 290 289 289 289 289 289 289 289 289 290 291 292 293 293
304 303 303 303 302 302 301 301 301 300 299 299 298 294 292 293 294 293 292 292 291 291 290 290 290 290 290 290 290 290 290 290 291 291 292 293 294 294 294 294 294 294 294 293 293 292 292 291 290 289 289 288 288 288 289 289 289 289 289 290 291 292 292
304 303 303 303 302 302 302 301 301 300 300 300 300 297 293 294 296 296 295 293 292 292 291 291 290 290 290 290 289 289 289 290 291 292 293 294 294 294 294 294 294 294 294 293 293 292 292 291 290 289 289 288 288 287 288 289 289 289 289 289 289 290 291
303 303 303 303 302 302 302 301 301 301 300 300 300 298 295 294 296 297 297 296 294 293 292 292 291 290 290 290 290 289 289 290 291 293 293 294 294 294 294 294 294 294 294 293 293 292 292 292 291 290 289 289 289 288 288 288 289 289 289 289 289 289 290

ECMWFFLT1_925_thetae_108.txt.gz
Theta_e
328 325 324 323 322 321 321 320 319 319 318 318 318 318 318 318 317 317 316 315 313 311 309 309 309 309 309 308 308 307 306 305 304 303 302 301 301 299 298 297 296 296 296 298 301 303 307 309 302 296 296 296 296 297 298 296 295 295 295 295 295 294 294
327 325 322 321 320 320 320 319 318 318 317 316 317 316 316 316 315 314 313 311 309 308 308 308 308 307 307 306 305 304 303 302 301 299 298 297 297 297 296 296 296 296 296 296 297 297 299 303 303 297 296 296 296 295 297 297 295 294 294 295 294 294 294
324 322 320 320 318 318 319 317 316 316 315 315 315 315 315 314 313 311 309 308 307 308 307 307 306 306 305 304 303 302 300 299 297 296 296 296 295 296 295 296 296 296 296 296 296 296 296 298 299 297 295 296 297 296 295 296 295 294 294 294 294 294 294
324 322 320 318 317 318 318 316 315 315 314 314 314 314 313 312 310 309 308 307 306 307 306 305 305 304 304 302 300 299 297 296 296 295 295 295 295 295 294 295 295 295 296 296 296 296 296 296 298 297 295 295 297 295 294 295 295 294 294 294 294 294 294
324 323 321 319 318 317 317 315 314 313 313 313 313 312 311 310 309 308 307 306 305 305 305 304 304 303 301 300 298 297 296 295 295 295 294 294 294 294 294 294 294 294 295 295 295 295 296 296 296 297 295 295 297 295 294 294 294 295 294 293 294 293 293
324 323 322 319 317 316 315 314 313 312 312 312 312 311 310 309 309 308 307 306 305 304 303 302 301 300 299 298 297 296 295 294 294 294 294 293 293 293 293 293 293 294 294 294 294 295 296 295 295 296 295 295 296 295 294 294 294 295 294 293 293 293 293
323 322 320 318 316 314 313 312 312 312 311 311 311 310 309 308 308 307 306 305 304 303 301 300 299 298 297 296 296 295 294 293 293 293 293 292 292 292 292 293 293 293 294 294 294 294 295 295 295 295 295 294 295 294 294 294 294 294 294 293 293 293 293
322 320 318 317 315 313 312 311 311 311 311 310 310 310 308 307 307 306 305 305 303 302 301 299 297 297 296 295 295 294 293 293 292 292 292 292 292 292 292 292 292 293 293 294 294 295 295 295 295 295 295 295 296 295 294 294 294 294 294 293 293 293 293
321 319 317 315 313 312 310 310 310 310 310 309 309 309 308 307 306 305 304 304 303 301 300 298 296 295 295 294 294 293 293 292 292 292 292 292 291 291 291 291 291 293 293 294 294 294 295 295 295 295 295 295 296 296 295 295 295 295 294 293 293 293 293
320 318 316 314 311 310 309 309 309 309 309 308 308 308 308 306 305 304 304 303 302 301 299 297 295 295 294 294 293 293 293 293 292 292 292 292 291 291 291 291 291 292 293 293 294 294 294 294 295 295 295 295 295 295 295 295 295 295 294 293 293 293 292
319 317 315 313 310 309 308 308 309 308 307 307 307 307 307 306 304 304 303 302 301 301 299 296 294 295 295 294 294 293 293 293 293 292 292 292 291 291 290 290 290 291 291 292 293 293 294 294 295 295 295 295 295 295 295 295 295 294 294 293 293 293 292
318 316 314 312 309 308 308 308 308 307 307 306 306 307 306 305 304 304 303 302 301 301 299 296 295 295 296 296 295 294 293 293 292 292 292 291 291 291 290 290 290 291 291 291 292 292 293 294 295 295 295 295 295 294 294 294 294 294 293 293 293 293 292
316 315 312 310 309 308 307 307 307 307 307 306 306 306 306 305 304 304 303 302 302 301 300 298 297 297 297 297 296 296 294 293 292 292 291 291 291 291 290 290 290 291 292 292 292 292 293 293 294 294 294 294 294 294 293 293 294 294 293 293 293 292 292
315 313 311 310 308 307 307 307 307 307 306 306 305 305 305 305 304 304 303 303 302 301 300 299 298 298 297 298 297 296 295 293 292 292 292 292 292 291 290 290 291 291 292 292 292 292 293 293 293 293 293 293 293 293 292 292 293 294 293 293 292 292 292
314 312 310 309 308 307 307 306 306 306 306 305 305 305 304 304 304 303 303 302 302 301 300 299 298 298 298 298 297 295 294 292 292 292 293 293 292 291 291 290 291 292 292 292 292 293 293 293 293 293 293 293 293 293 293 292 292 293 293 293 292 292 291
312 310 309 308 307 306 306 306 305 305 305 305 305 304 304 304 303 303 303 302 302 301 300 299 298 299 299 297 295 294 293 292 292 293 293 293 293 292 291 290 291 292 292 292 292 293 293 293 293 293 293 293 293 293 293 293 292 292 292 292 292 291 291
310 309 308 307 306 306 305 305 305 305 305 304 304 304 304 303 303 303 302 302 302 301 300 299 299 299 298 296 294 294 293 292 293 293 293 294 293 292 291 291 291 292 292 293 293 293 293 293 293 293 293 293 293 293 293 292 292 292 292 292 291 291 291
309 308 307 306 306 305 304 304 305 305 304 304 304 303 303 303 303 302 302 302 302 301 300 299 299 298 296 295 295 295 294 294 294 294 294 294 293 292 292 292 292 293 293 293 293 293 293 293 293 293 292 292 292 292 292 292 292 292 292 291 291 291 291
308 307 306 306 305 304 304 304 304 304 304 304 304 303 303 303 302 302 302 302 302 301 300 298 297 296 295 295 296 296 296 295 294 294 294 294 293 293 292 292 293 293 293 293 293 293 292 292 292 292 292 292 292 292 292 292 291 291 291 291 291 291 291
307 307 306 305 304 304 304 304 304 303 303 303 303 303 303 303 302 302 302 302 302 301 299 297 296 295 296 296 297 297 296 296 295 295 295 294 293 293 292 292 293 293 293 293 293 293 293 292 292 292 292 292 292 292 292 291 291 291 291 291 291 291 291
307 306 305 304 304 303 303 303 303 303 303 303 303 303 303 303 302 302 302 302 301 300 299 298 297 297 297 297 297 297 297 296 296 295 295 294 294 293 292 292 293 293 294 294 293 293 292 292 292 292 292 292 292 292 291 291 291 291 291 291 291 291 291
306 305 304 303 303 303 303 302 302 302 302 302 303 303 303 303 302 302 302 301 300 300 299 299 299 299 299 298 298 298 297 297 297 296 295 294 294 293 293 293 293 294 294 294 293 292 292 292 292 292 291 291 292 291 291 291 290 291 291 291 291 291 291
305 304 303 303 302 302 302 301 301 301 300 301 302 302 302 302 302 302 301 301 300 300 300 300 300 300 299 299 298 298 298 297 297 296 295 294 294 293 293 293 293 293 294 294 293 292 292 292 292 292 291 291 291 291 291 290 290 290 290 291 291 291 291
304 304 303 302 302 301 301 301 301 300 299 299 300 302 302 302 302 301 301 301 300 300 300 300 300 299 299 299 299 298 298 298 297 296 295 295 295 294 293 293 293 294 294 294 293 292 292 292 292 292 291 291 291 291 290 290 290 290 290 290 290 290 290
304 303 303 302 302 301 301 301 300 299 297 296 299 301 302 302 302 301 301 301 300 300 300 300 299 299 299 299 299 298 298 298 298 297 296 295 295 295 293 293 293 294 294 293 293 292 292 292 292 292 291 291 291 290 289 289 290 290 290 290 290 290 291
304 303 303 302 302 301 301 301 301 299 296 294 297 300 301 301 301 301 301 301 300 300 300 300 299 299 298 298 298 298 298 298 298 297 296 295 295 295 294 293 293 294 294 293 292 292 292 292 292 291 291 290 290 289 289 289 290 290 290 290 290 291 291
304 303 302 302 301 301 301 301 300 298 294 294 296 299 300 301 301 301 301 300 300 300 300 300 299 299 298 298 298 298 298 297 297 298 297 295 295 296 294 293 293 294 293 293 292 292 292 292 292 291 290 289 289 289 289 289 290 291 291 291 291 291 292
304 303 302 302 301 301 301 300 298 296 293 293 294 296 298 299 300 300 300 300 300 300 300 300 299 299 299 298 298 298 298 297 297 297 297 295 296 296 294 293 293 294 293 293 292 292 292 292 292 291 290 289 289 289 289 289 289 290 291 292 292 292 293
303 302 302 301 301 300 300 299 297 294 293 293 294 295 296 298 299 299 299 300 300 299 299 299 299 299 299 299 299 299 298 297 296 297 297 296 296 296 294 293 294 294 293 293 292 292 292 292 291 290 289 289 289 289 289 289 289 289 290 291 292 292 293
303 302 301 301 300 300 299 299 296 293 292 293 294 295 296 296 298 298 298 299 299 299 299 299 299 299 299 298 298 298 298 297 297 297 297 296 296 295 293 293 294 294 293 293 292 292 292 291 291 290 289 289 288 288 289 289 289 289 289 289 290 291 292
303 302 301 301 301 300 300 299 297 294 292 292 293 294 295 296 297 297 298 298 298 298 298 298 297 298 298 298 298 297 297 297 297 297 297 296 296 295 293 293 294 294 294 293 293 292 292 291 290 289 289 288 288 288 288 288 289 289 289 289 289 290 291
304 302 301 301 301 300 300 300 297 293 292 292 293 293 295 295 296 297 297 297 298 298 298 298 297 297 297 296 296 296 296 297 297 297 296 296 296 295 293 293 294 294 294 294 293 292 292 291 290 289 288 288 287 287 288 288 288 288 289 289 288 289 290
304 303 302 301 301 301 301 299 296 292 291 292 292 293 294 295 295 296 296 297 297 297 297 297 296 295 293 292 292 293 295 296 296 296 296 296 296 295 293 293 294 294 294 294 293 292 292 291 289 288 288 288 288 288 288 288 288 288 288 288 288 288 289
304 303 302 302 301 301 301 300 296 292 291 292 292 292 293 293 294 294 294 295 295 295 294 293 292 291 290 290 291 291 293 294 295 295 295 295 294 294 293 293 294 294 294 294 293 292 292 291 290 289 289 289 289 288 288 288 289 288 288 288 288 288 288
304 303 303 302 302 301 300 299 296 292 291 291 291 291 291 291 291 291 291 291 291 291 290 290 290 290 290 290 290 290 291 291 292 293 293 293 293 293 293 294 294 294 294 294 293 292 292 291 291 290 290 290 290 290 290 289 289 289 289 288 288 288 288
304 303 303 302 302 301 299 297 294 292 291 291 290 290 290 290 290 290 290 290 290 290 290 290 290 290 290 290 290 290 290 290 290 291 291 292 293 293 293 294 294 294 294 294 293 293 292 292 292 291 291 291 291 291 291 291 290 290 289 289 288 288 288
303 303 303 302 302 301 299 297 294 292 292 291 290 290 291 290 290 290 290 290 290 290 290 290 290 290 290 290 289 289 289 289 290 291 292 293 293 293 294 294 294 294 294 294 293 293 292 292 292 292 292 291 292 292 292 291 291 290 290 289 289 288 288

ECMWFFLT1_925_thetae_111.txt.gz
Theta_e
328 326 325 325 325 325 323 322 322 321 320 319 319 318 318 318 318 317 316 315 313 311 310 309 310 310 309 308 306 305 304 303 302 304 304 304 304 300 297 297 297 297 298 300 303 306 305 302 300 300 299 299 299 299 299 298 297 298 298 298 297 297 297
326 325 323 323 323 322 322 321 320 319 317 317 317 317 316 316 315 315 313 312 310 309 309 308 307 307 305 304 302 300 299 298 297 297 298 300 302 301 300 301 301 301 300 299 301 303 303 302 300 300 300 300 300 299 299 299 298 297 297 298 297 297 297
325 323 321 321 321 321 322 321 318 317 316 316 316 315 315 314 313 312 310 309 308 308 307 306 305 304 302 300 298 296 295 295 295 295 295 296 296 297 299 302 303 303 303 302 302 302 303 302 300 300 301 301 301 300 299 299 298 297 297 297 297 297 297
324 322 321 320 321 321 321 318 316 315 315 315 314 314 313 312 311 309 308 307 307 307 305 304 303 301 299 297 295 295 295 295 294 294 294 294 294 294 296 299 300 301 302 302 302 302 302 302 302 301 300 300 300 299 298 298 298 297 297 296 297 296 297
325 323 323 322 321 321 319 317 315 314 314 314 313 313 312 310 309 307 306 306 306 305 304 302 300 298 296 295 295 295 294 294 294 294 293 293 294 294 294 295 297 299 300 300 300 300 301 301 302 301 299 299 300 298 297 298 298 297 297 296 296 296 296
325 324 324 323 321 320 318 316 314 313 313 313 312 312 310 308 307 306 306 305 304 303 302 300 298 296 295 295 294 294 294 294 293 293 293 293 293 293 293 294 296 297 297 297 298 299 300 300 301 301 300 299 300 299 298 298 298 297 297 296 296 296 296
325 324 324 323 320 318 316 314 313 313 313 312 311 310 309 308 306 305 305 304 302 301 299 298 296 295 294 294 294 294 293 293 293 292 292 292 293 292 293 294 295 295 295 296 297 298 299 300 300 302 302 300 300 300 299 298 298 297 297 296 296 296 296
325 324 323 321 319 317 315 313 312 312 312 311 310 309 308 307 306 304 303 302 300 299 298 296 295 294 294 293 293 293 293 292 292 292 292 292 292 292 292 293 294 295 296 296 297 297 298 299 299 300 301 301 301 301 301 300 299 298 296 296 296 296 295
324 323 322 319 317 315 314 313 312 312 312 311 309 309 308 307 305 304 302 301 299 298 297 295 294 294 293 293 293 292 292 292 292 292 292 292 292 291 291 292 293 295 296 296 297 297 297 298 298 298 299 299 300 300 300 300 300 298 296 296 296 296 295
324 323 321 318 315 314 312 312 312 311 311 310 309 308 307 306 305 303 302 300 298 297 296 295 294 293 293 293 293 292 292 292 292 291 291 291 291 291 291 291 293 294 295 295 296 297 297 297 297 298 298 298 298 298 298 298 299 299 296 296 296 295 295
323 322 320 317 315 313 311 311 311 311 310 310 309 307 306 305 304 302 301 299 297 296 295 294 293 293 293 293 293 293 292 292 291 291 291 291 291 291 291 292 293 294 294 295 295 296 296 297 297 297 297 297 297 297 297 297 298 298 297 296 295 295 295
322 320 318 316 314 312 311 311 311 310 309 309 308 307 305 304 303 302 300 298 295 295 294 294 293 293 293 294 294 293 292 292 292 292 291 291 291 292 292 293 294 294 294 295 295 295 295 295 296 296 296 296 296 296 297 297 297 298 297 297 296 295 295
320 318 316 315 313 311 310 311 310 309 308 308 308 306 305 304 303 301 300 297 295 294 294 294 293 293 294 294 294 293 292 292 292 292 291 291 292 293 293 294 294 294 295 295 295 295 295 295 295 295 295 296 296 296 296 297 297 297 297 297 296 296 295
317 316 315 314 312 311 310 310 310 308 307 308 307 306 305 304 302 301 300 297 295 295 296 295 295 294 294 294 293 293 293 294 293 293 292 292 292 294 294 294 294 294 295 295 295 295 295 295 295 295 295 296 296 296 296 296 297 297 296 296 296 296 295
316 315 314 313 311 310 310 310 309 307 307 307 307 306 305 304 303 302 300 298 297 297 297 297 296 296 295 293 292 293 294 294 294 294 293 293 293 294 294 294 294 294 294 295 295 295 294 295 295 295 295 295 296 296 296 296 296 296 296 296 296 296 295
315 314 313 311 310 310 310 309 308 307 306 306 306 306 305 304 303 302 301 300 298 298 298 298 297 297 296 294 294 294 295 295 295 294 294 294 294 294 295 295 295 295 295 295 295 295 294 295 295 295 295 295 295 295 295 296 296 295 295 296 296 296 295
314 313 312 311 310 309 309 308 307 307 306 306 305 305 305 304 303 302 301 300 299 299 299 298 297 296 295 295 295 295 296 296 295 295 294 294 294 295 295 295 295 295 296 295 295 295 295 295 295 295 295 295 295 295 295 295 295 295 295 296 296 295 295
313 313 312 310 309 309 308 307 306 306 306 305 305 305 304 304 303 302 301 301 300 299 299 298 297 295 295 295 296 296 296 296 296 295 294 294 295 295 295 295 295 295 296 296 295 295 295 295 295 295 295 295 295 295 295 295 295 295 295 296 296 296 296
312 312 311 309 309 309 308 306 306 306 306 305 305 304 304 303 303 302 302 301 300 299 300 299 297 296 296 296 296 297 297 297 296 295 295 294 295 295 295 295 295 296 296 296 296 295 295 295 295 295 295 295 294 295 295 295 294 295 295 296 296 296 296
312 311 310 309 309 308 307 306 305 305 305 305 304 304 304 303 303 302 302 301 300 299 299 298 297 297 297 296 297 297 297 297 296 295 295 295 295 295 295 295 296 296 297 296 296 295 294 295 295 295 295 294 295 295 295 294 294 295 295 296 296 296 296
311 311 309 308 308 307 306 305 305 305 304 304 304 304 303 303 303 302 302 301 300 299 298 298 297 297 297 297 297 297 297 297 296 296 295 295 295 295 295 295 296 297 296 294 294 293 293 293 295 295 295 294 295 295 295 294 295 295 295 295 296 296 296
310 310 308 307 307 306 305 305 305 304 304 304 304 303 303 303 302 302 302 301 301 299 297 296 296 297 298 298 298 298 297 297 297 297 296 295 295 295 295 295 295 295 293 292 292 292 292 292 293 294 293 293 294 294 294 294 294 295 295 295 296 295 296
309 308 307 306 306 305 304 304 304 304 304 303 303 303 303 302 302 302 302 301 301 298 296 295 297 298 298 298 298 297 298 297 297 297 296 296 295 295 295 295 294 293 292 292 292 292 292 292 292 292 291 291 291 292 293 294 294 294 295 295 295 295 296
308 307 306 306 305 304 304 304 304 304 304 303 303 303 303 302 302 302 302 301 300 298 296 296 298 298 298 298 298 298 298 297 297 297 297 296 296 295 295 295 294 293 292 292 292 292 292 292 291 291 290 290 289 289 290 292 293 294 294 295 295 295 295
307 306 305 305 304 304 304 304 303 303 303 303 303 303 303 302 302 302 302 301 300 299 298 298 299 299 299 298 298 298 298 298 297 297 297 297 296 296 295 295 294 293 292 292 292 292 292 291 291 290 289 289 289 289 289 290 290 292 293 294 295 295 295
306 305 305 304 304 304 303 303 303 303 302 302 303 303 302 302 302 302 301 301 300 299 300 300 300 299 299 299 298 298 298 298 298 298 297 297 297 296 295 295 295 294 293 292 292 292 292 291 290 289 289 289 289 289 289 289 289 289 290 292 294 294 294
305 304 304 303 303 303 303 302 302 301 301 301 302 302 302 302 302 302 301 300 300 300 300 300 300 299 299 299 299 298 298 299 298 298 297 297 297 296 295 294 295 295 293 292 292 292 292 291 290 289 289 289 288 288 288 289 289 288 289 290 292 292 292
305 304 303 303 303 302 302 301 301 300 299 300 301 301 302 302 302 301 301 301 300 300 300 300 299 299 299 298 298 298 298 298 298 299 298 297 297 296 294 293 295 295 294 293 292 292 292 291 290 289 290 290 289 289 289 288 288 288 288 288 289 290 290
304 303 302 302 301 301 301 301 300 299 298 297 299 301 302 302 302 301 301 301 300 300 300 300 299 299 298 298 298 298 298 297 297 298 297 296 297 296 293 293 295 295 293 293 293 292 292 291 290 290 290 290 290 291 291 289 289 288 288 288 288 288 289
304 303 302 301 301 301 301 301 300 299 297 295 297 299 301 301 301 301 301 300 300 300 300 300 299 299 298 298 298 298 299 298 297 298 297 296 296 296 293 293 294 294 293 294 293 292 292 291 291 291 290 290 291 292 292 291 290 290 289 289 289 288 288
304 303 302 301 301 301 301 301 300 299 297 295 295 297 300 301 301 301 301 300 300 300 300 300 299 299 299 299 298 298 299 298 297 297 297 296 296 296 294 293 293 293 293 294 293 293 292 291 291 291 290 291 292 293 292 291 291 292 291 291 291 290 290
304 303 302 302 302 301 301 301 300 299 297 294 293 295 298 299 300 300 300 300 300 300 300 299 299 299 299 299 298 298 298 298 297 297 297 297 296 296 294 293 293 293 293 294 293 293 292 292 291 291 290 292 294 294 292 291 291 291 291 292 291 291 291
305 304 303 302 302 302 301 301 300 298 295 293 293 294 296 298 298 299 299 299 299 299 299 299 299 298 298 298 298 297 298 298 298 297 297 297 296 296 295 294 293 293 293 294 293 293 292 292 292 291 291 292 294 293 292 291 291 291 291 291 291 292 292
304 304 304 303 302 302 301 301 300 297 294 293 293 294 296 297 297 298 298 298 298 298 298 298 298 298 297 297 296 295 296 297 297 297 297 297 297 296 295 295 294 294 293 294 294 293 293 292 292 292 292 292 292 292 292 292 292 292 292 292 292 293 293
304 303 304 303 302 301 301 301 300 298 294 292 293 294 295 296 296 297 297 297 297 297 297 297 297 297 296 294 293 292 294 295 296 296 296 296 296 295 295 295 294 294 293 294 294 293 293 292 292 292 292 292 292 292 292 292 292 293 293 293 294 294 293
304 304 304 303 302 301 301 300 299 296 293 292 293 294 295 295 296 296 296 296 296 296 296 296 296 294 292 290 290 291 292 293 293 294 295 296 295 295 294 294 294 294 294 294 294 293 293 293 293 292 292 292 292 292 292 292 293 293 294 294 294 294 294
304 304 304 302 301 301 300 300 298 294 292 292 293 293 294 294 294 295 295 295 295 295 295 294 292 290 290 290 290 291 291 291 291 291 293 294 294 294 294 294 293 294 294 294 294 294 294 293 293 293 293 293 293 292 293 293 294 294 294 295 294 294 294

ECMWFFLT1_925_thetae_114.txt.gz
Theta_e
330 326 326 328 329 328 327 326 325 324 323 322 322 322 321 321 320 320 319 318 317 316 316 316 315 315 314 311 310 311 312 314 315 313 311 308 306 306 307 306 305 306 309 311 312 311 309 307 305 303 303 302 302 302 302 301 300 301 301 301 301 300 301
329 326 326 327 327 326 325 324 323 322 322 321 320 320 320 319 319 318 317 316 314 314 313 312 311 309 308 307 307 308 308 309 311 312 311 309 308 308 308 308 308 306 306 308 309 309 308 307 305 305 306 305 304 302 302 302 301 300 301 301 300 300 300
327 325 326 326 326 324 323 323 323 322 321 320 319 319 318 317 317 316 315 313 311 311 311 309 307 305 303 301 301 302 303 305 307 309 309 309 309 310 309 310 310 309 308 308 307 307 308 307 305 305 305 306 305 303 302 302 301 300 300 300 300 300 300
327 326 326 325 324 323 323 323 322 321 320 319 319 318 317 316 315 314 313 312 310 310 309 308 306 304 301 299 299 299 300 303 305 306 307 308 308 308 308 308 307 307 307 307 306 307 307 308 306 304 303 304 304 302 302 303 302 300 300 300 299 300 299
327 327 327 326 325 324 323 322 322 321 320 319 318 317 316 315 314 312 312 311 310 309 308 307 305 304 303 302 301 301 301 303 306 307 307 307 307 307 306 306 305 305 305 305 306 306 307 307 306 304 303 303 303 301 302 303 302 301 300 300 299 299 299
327 328 328 326 325 324 323 323 322 321 320 319 318 316 315 314 313 312 311 310 309 307 305 304 303 303 303 302 302 303 303 304 305 306 307 307 307 306 305 305 304 304 304 304 305 305 306 306 307 307 305 304 304 303 302 302 301 300 300 299 299 299 299
328 328 327 326 324 323 322 322 322 321 320 319 317 315 314 313 312 311 310 308 307 305 303 302 302 302 302 302 302 302 303 303 304 304 305 306 305 305 304 304 304 303 304 304 304 304 304 305 306 307 307 306 306 305 304 302 301 300 299 299 299 299 298
327 327 326 325 323 322 322 321 321 320 319 318 316 314 313 312 311 309 308 307 305 303 302 301 300 301 302 302 302 302 303 303 303 303 304 304 304 304 304 303 303 303 303 303 303 303 303 304 304 304 305 307 306 305 304 303 302 300 299 299 299 298 298
326 326 325 323 321 320 320 320 320 319 318 317 315 313 312 310 310 309 308 306 304 302 302 301 301 302 302 302 302 302 302 302 302 302 302 303 303 303 303 303 302 302 302 302 302 303 303 303 303 302 303 304 305 304 304 304 303 301 300 299 299 299 298
326 325 324 322 320 317 317 318 318 317 316 315 314 312 311 310 309 308 306 305 303 303 303 302 302 302 302 302 302 302 302 302 302 302 301 302 302 302 302 302 301 301 302 302 302 302 303 302 302 301 301 301 303 303 303 304 304 302 300 299 299 299 299
325 325 323 321 319 316 316 317 317 316 315 314 313 312 310 309 308 307 306 304 304 303 303 302 303 303 303 303 302 302 302 301 301 301 301 301 301 301 301 301 301 301 301 301 301 301 302 301 301 301 300 300 301 302 303 303 303 301 300 300 299 299 299
325 324 322 319 317 316 316 317 317 316 314 313 312 311 310 308 307 306 305 304 303 303 302 302 302 303 303 303 302 302 301 301 301 301 301 301 301 301 301 301 301 301 301 301 301 300 300 300 300 300 300 300 300 300 301 302 302 301 300 300 299 299 299
324 323 320 317 316 316 316 317 316 315 314 313 312 311 309 308 307 305 304 303 303 302 302 302 302 303 302 302 302 301 301 300 301 301 300 300 300 300 300 301 301 301 301 301 300 300 300 300 300 299 300 301 300 299 300 301 301 301 300 299 299 299 299
322 322 319 317 316 316 316 316 316 314 313 312 311 310 309 307 306 305 303 303 302 302 302 302 302 302 302 302 302 301 300 300 300 300 300 300 300 300 299 300 300 300 300 300 300 300 300 300 299 299 299 299 299 299 299 300 301 301 300 299 299 299 299
322 321 318 316 315 315 315 316 315 313 313 312 311 310 309 307 306 304 303 302 302 302 302 302 302 302 302 302 301 301 300 300 299 300 300 300 300 300 299 299 300 300 300 300 300 299 299 299 299 299 299 299 299 299 299 299 300 300 300 300 300 299 299
322 320 317 316 315 315 315 315 314 313 312 311 311 310 309 307 306 304 303 303 302 302 302 302 302 301 301 301 301 301 300 300 299 299 299 299 299 300 300 300 300 300 300 300 300 299 300 299 299 299 299 299 299 299 299 299 300 299 300 300 300 299 299
321 318 316 316 315 315 315 314 313 312 311 311 310 310 308 307 306 305 304 303 303 303 303 303 302 301 301 301 301 300 300 299 299 299 299 299 300 300 300 300 300 301 300 300 300 299 299 300 299 299 299 299 299 298 299 299 299 299 299 300 300 300 300
319 317 317 317 315 315 315 314 312 311 311 311 310 309 308 307 306 306 305 304 303 303 303 303 302 301 300 301 300 300 299 299 299 299 299 299 299 300 300 300 300 300 300 300 300 300 300 300 300 299 299 299 298 299 299 299 299 299 300 300 300 300 300
317 317 317 316 314 315 314 313 312 311 310 310 310 309 308 308 307 306 305 304 304 304 303 302 302 301 300 301 301 300 300 299 299 299 299 299 300 300 300 300 301 301 300 300 300 299 300 300 300 299 299 299 299 299 300 299 299 299 299 300 300 300 299
318 317 316 315 314 314 314 313 311 310 310 310 309 309 308 308 307 306 305 305 304 304 303 302 301 301 301 301 301 301 300 300 299 299 299 299 299 299 300 301 301 300 299 299 299 299 299 300 300 299 298 299 299 299 299 298 299 299 299 299 299 299 299
317 315 315 314 313 314 314 313 311 310 309 309 309 309 308 307 307 306 305 305 304 304 302 301 301 301 301 301 301 301 301 300 300 299 299 299 299 299 300 300 300 298 297 296 296 296 295 297 298 298 297 297 297 298 298 298 298 298 298 299 299 298 299
316 314 314 313 313 313 313 312 310 309 309 309 309 308 308 307 307 306 306 305 304 304 302 301 301 301 301 302 302 302 301 301 300 300 299 299 299 299 299 299 297 295 293 292 292 292 291 292 294 295 296 296 296 296 297 297 297 297 297 298 298 298 298
315 314 313 312 313 313 312 311 310 309 309 309 308 308 308 307 307 306 306 305 305 304 303 302 301 301 301 302 302 302 302 301 301 300 300 300 299 299 299 298 295 293 293 292 291 291 290 289 290 291 292 292 293 294 296 296 296 296 296 297 298 298 298
314 313 312 312 312 312 312 311 309 308 308 308 308 308 307 307 307 306 305 305 305 304 303 302 301 300 301 301 302 302 302 301 301 301 300 300 300 299 299 299 297 296 296 296 295 293 291 289 288 289 289 289 289 291 292 294 295 295 296 296 297 297 297
313 312 311 311 311 311 311 310 308 308 308 308 308 307 307 307 306 306 305 305 305 304 303 302 299 299 300 300 301 302 302 302 302 301 301 300 300 299 299 299 299 298 296 296 297 297 295 292 290 290 291 291 290 290 290 290 292 293 295 296 297 297 296
312 311 311 310 310 310 309 308 308 308 308 308 307 307 307 307 306 306 306 305 305 304 303 300 297 297 299 299 300 302 302 302 302 301 301 300 300 300 299 299 300 299 296 296 297 298 298 296 295 294 295 294 294 293 292 291 290 291 293 296 297 296 295
311 310 310 309 309 309 309 308 308 308 308 308 307 307 307 307 307 306 306 305 305 304 303 299 297 298 299 298 299 301 302 302 302 301 301 300 300 300 299 299 300 299 299 298 296 296 297 298 298 297 297 297 297 296 295 293 293 292 293 295 296 295 295
310 310 309 308 308 308 308 308 308 308 308 307 307 307 307 307 307 306 306 305 304 304 304 300 298 298 299 298 298 299 302 303 302 302 301 300 301 300 298 299 299 299 299 298 293 292 295 298 298 298 297 298 298 298 296 294 293 293 293 294 294 294 294
309 309 308 307 308 308 308 308 308 307 307 307 306 307 306 306 306 306 306 305 304 305 304 301 299 299 299 299 298 298 301 303 302 302 302 301 301 300 298 299 299 299 299 297 293 290 292 296 298 298 298 299 299 299 297 295 294 293 293 293 294 294 294
308 307 307 307 307 307 307 308 307 307 306 306 306 306 306 306 306 305 305 305 305 305 304 301 300 300 299 299 299 299 302 303 302 302 302 301 301 300 299 299 299 299 299 297 293 291 292 296 298 297 298 300 299 299 298 297 296 295 294 294 295 295 295
308 307 306 306 306 306 306 306 306 305 305 305 305 305 305 305 305 305 305 305 304 305 303 301 300 300 299 298 298 300 302 302 302 302 302 301 301 301 299 296 296 299 300 296 293 292 292 295 299 298 298 299 299 299 298 297 297 297 295 296 297 297 297
308 306 306 306 305 305 305 305 304 303 303 303 303 303 304 304 305 304 304 304 304 304 303 301 299 299 299 298 298 300 302 302 302 302 302 301 301 300 299 295 293 295 297 295 293 293 292 294 297 298 298 299 299 298 297 296 297 296 296 298 298 298 298
308 307 305 305 305 304 304 303 303 302 301 301 302 302 302 303 303 303 303 304 303 303 303 301 299 299 299 298 298 300 302 302 301 301 301 301 300 300 300 297 294 293 294 294 293 293 292 292 294 297 298 298 298 296 295 295 296 295 297 298 298 297 298
308 307 305 305 304 304 303 303 302 301 300 300 301 302 301 302 303 302 302 303 302 303 303 302 300 299 299 299 298 299 301 302 301 301 301 300 300 300 299 298 297 294 293 294 293 293 293 292 292 296 298 296 294 293 293 294 295 296 297 298 297 297 297
308 307 306 305 304 303 302 302 302 301 300 300 301 301 301 301 302 302 302 302 302 302 302 301 300 299 299 299 298 298 299 300 300 300 301 300 300 299 299 299 298 295 293 294 294 293 294 293 293 295 295 294 293 292 292 294 296 297 297 297 297 297 297
306 306 305 304 303 303 302 302 301 301 300 300 300 300 300 300 301 301 301 301 302 302 301 300 299 299 299 298 298 298 298 298 298 299 300 300 299 299 298 298 298 296 293 293 294 293 294 294 294 294 294 293 293 293 294 295 297 297 297 297 297 297 297
305 305 304 304 304 304 303 302 301 300 300 300 300 300 299 299 300 300 301 301 301 301 300 299 298 298 298 298 298 297 296 295 295 297 299 299 299 298 298 298 297 295 293 294 294 294 294 294 294 294 294 294 294 294 296 297 298 297 297 297 297 297 296